Date StartTime U_cm/s V_cm/s W_cm/s Ustd_cm/s Vstd_cm/s Wstd_cm/s Uvar_(cm/s)^2 Vvar_(cm/s)^2 Wvar_(cm/s)^2 KE_(m/s)^2 TurbulentKE_(m/s)^2 HorizWindSpeed_cm/s FrictionSpeec_cm/s DragCoef SpeedOfSound_m/s SonicTemperature_C Pressure_mb 
12/23/2014  00:00:00     -130.345      -22.145       -7.907       22.666       15.861       11.821      513.744      251.558      139.741        0.922        0.045      132.213        6.019        0.002      334.682        4.816      869.636
12/23/2014  00:01:00     -119.164      -22.663       -9.129       33.321       29.750       19.429     1110.275      885.041      377.469        0.858        0.119      121.300        8.846        0.005      334.601        4.680      869.637
12/23/2014  00:02:00     -126.566      -25.120       -3.325       40.953       27.884       24.503     1677.147      777.515      600.374        0.986        0.153      129.035       22.376        0.030      334.646        4.756      869.623
12/23/2014  00:03:00     -103.955       -6.907        1.882       48.567       33.351       27.324     2358.772     1112.312      746.599        0.754        0.211      104.184       28.806        0.076      334.815        5.036      869.605
12/23/2014  00:04:00     -125.241      -15.460      -10.291       42.329       27.100       21.330     1791.711      734.416      454.985        0.951        0.149      126.192       24.249        0.037      334.831        5.063      869.598
12/23/2014  00:05:00     -102.371      -30.448       -6.241       27.116       20.962       12.381      735.293      439.424      153.299        0.639        0.066      106.803       10.274        0.009      334.811        5.029      869.595
12/23/2014  00:06:00     -100.631      -17.149      -10.300       30.787       27.184       15.154      947.823      738.959      229.656        0.622        0.096      102.082       12.105        0.014      335.027        5.390      869.593
12/23/2014  00:07:00     -103.644      -28.945       -8.598       23.524       24.917       14.205      553.359      620.856      201.794        0.651        0.069      107.609       15.121        0.020      334.975        5.304      869.582
12/23/2014  00:08:00     -123.314      -14.222      -11.126       23.910       21.990       14.480      571.677      483.563      209.665        0.840        0.063      124.131       14.001        0.013      334.968        5.290      869.584
12/23/2014  00:09:00     -118.048      -35.102      -10.715       18.156       14.239       12.714      329.649      202.745      161.649        0.799        0.035      123.156        9.750        0.006      334.795        5.005      869.594
12/23/2014  00:10:00      -97.893      -47.098       -1.406       26.195       22.767       15.921      686.183      518.335      253.485        0.663        0.073      108.633       16.402        0.023      334.763        4.950      869.609
12/23/2014  00:11:00      -77.842      -45.027       -4.808       27.564       19.837       11.709      759.766      393.488      137.104        0.470        0.065       89.927        7.641        0.007      334.673        4.800      869.625
12/23/2014  00:12:00      -92.145      -17.717       -7.556       21.327       16.497       13.477      454.834      272.136      181.638        0.488        0.045       93.832       10.037        0.011      334.645        4.754      869.640
12/23/2014  00:13:00     -102.251      -22.749       -8.720       18.495       18.746       14.055      342.050      351.394      197.547        0.597        0.045      104.751       10.249        0.010      334.640        4.747      869.640
12/23/2014  00:14:00     -111.783      -16.396      -10.927       22.315       15.569       14.289      497.967      242.381      204.176        0.691        0.047      112.979       13.580        0.014      334.580        4.644      869.633
12/23/2014  00:15:00      -90.938      -31.436       -5.417       28.799       22.780       13.516      829.355      518.940      182.673        0.541        0.077       96.218       10.400        0.012      334.643        4.751      869.626
12/23/2014  00:16:00      -61.370      -30.771        2.129       22.554       19.049       14.357      508.668      362.880      206.118        0.290        0.054       68.652       10.536        0.024      334.596        4.674      869.623
12/23/2014  00:17:00      -65.297      -37.796       -5.202       18.218       16.092       10.279      331.912      258.937      105.657        0.321        0.035       75.447        7.704        0.010      334.626        4.723      869.630
12/23/2014  00:18:00      -63.337      -54.792      -11.205       16.461       16.421       11.881      270.969      269.651      141.147        0.391        0.034       83.748        5.597        0.004      334.514        4.536      869.622
12/23/2014  00:19:00      -79.373      -53.541       -9.675       18.543       15.614       12.478      343.847      243.787      155.708        0.500        0.037       95.743        6.536        0.005      334.463        4.453      869.605
12/23/2014  00:20:00      -93.100      -29.774      -13.720       11.793       17.030       10.197      139.073      290.016      103.987        0.514        0.027       97.745        2.538        0.001      334.407        4.359      869.596
12/23/2014  00:21:00     -104.659      -28.675       -7.403       19.340       20.446       14.673      374.041      418.037      215.305        0.642        0.050      108.517       11.442        0.011      334.437        4.410      869.579
12/23/2014  00:22:00     -124.042      -42.570      -11.578       22.995       23.274       13.806      528.764      541.672      190.606        0.930        0.063      131.143       13.700        0.011      334.394        4.337      869.568
12/23/2014  00:23:00     -119.171      -47.294      -12.392       16.268       22.780       14.745      264.651      518.929      217.426        0.880        0.050      128.212       12.095        0.009      334.276        4.142      869.561
12/23/2014  00:24:00      -86.786      -45.261        3.539       32.414       26.795       18.140     1050.638      717.993      329.047        0.584        0.105       97.880       13.121        0.018      334.274        4.139      869.545
12/23/2014  00:25:00      -68.868      -40.437        5.153       33.437       22.919       19.467     1118.042      525.290      378.978        0.421        0.101       79.862       15.780        0.039      334.327        4.227      869.534
12/23/2014  00:26:00      -64.392      -23.920        1.110       17.472       17.365       11.748      305.278      301.528      138.019        0.273        0.037       68.691        9.893        0.021      334.296        4.174      869.526
12/23/2014  00:27:00      -88.259      -29.178       -2.558       15.937       14.333       12.595      254.002      205.432      158.633        0.463        0.031       92.957       10.279        0.012      334.329        4.230      869.511
12/23/2014  00:28:00      -83.800      -45.009       -5.618       22.431       20.302       12.141      503.138      412.191      147.410        0.507        0.053       95.123        6.981        0.005      334.356        4.274      869.500
12/23/2014  00:29:00      -97.011      -48.060       -7.628       32.672       16.539       19.648     1067.482      273.549      386.058        0.675        0.086      108.263       19.490        0.032      334.351        4.268      869.492
12/23/2014  00:30:00     -103.437      -47.813       -2.479       24.122       16.703       10.806      581.860      278.982      116.772        0.698        0.049      113.953        7.436        0.004      334.361        4.284      869.486
12/23/2014  00:31:00      -85.762      -29.447       -8.915       14.474       17.037       11.144      209.484      290.243      124.188        0.446        0.031       90.677        7.199        0.006      334.381        4.318      869.480
12/23/2014  00:32:00      -97.173      -16.236      -11.421       26.403       21.473       17.144      697.139      461.095      293.910        0.564        0.073       98.520       18.277        0.034      334.436        4.408      869.479
12/23/2014  00:33:00     -126.313      -22.611      -17.373       22.404       22.769       16.105      501.918      518.441      259.367        0.902        0.064      128.321       12.401        0.009      334.345        4.256      869.481
12/23/2014  00:34:00     -104.728      -39.506       -6.740       34.127       27.492       16.514     1164.638      755.797      272.717        0.738        0.110      111.931       18.001        0.026      334.269        4.130      869.473
12/23/2014  00:35:00     -109.698      -61.456       -6.900       18.617       16.013       10.331      346.607      256.421      106.722        0.828        0.035      125.740        7.678        0.004      334.283        4.155      869.469
12/23/2014  00:36:00      -42.155      -21.950        0.734       26.057       19.962       14.401      678.972      398.480      207.379        0.177        0.064       47.527       12.540        0.070      334.214        4.040      869.498
12/23/2014  00:37:00      -65.610      -13.472       -8.470       27.094       22.218       11.952      734.072      493.643      142.848        0.296        0.069       66.979        9.494        0.020      334.327        4.227      869.533
12/23/2014  00:38:00      -90.822      -14.671      -11.827       22.048       17.538       13.044      486.113      307.569      170.141        0.478        0.048       92.000       12.497        0.018      334.360        4.282      869.553
12/23/2014  00:39:00      -82.510      -31.170      -10.779       20.625       13.156        8.102      425.396      173.073       65.644        0.428        0.033       88.201        6.215        0.005      334.275        4.140      869.552
12/23/2014  00:40:00      -96.833      -42.293      -11.934       14.113       17.560       10.219      199.170      308.368      104.420        0.596        0.031      105.666        7.571        0.005      334.240        4.081      869.537
12/23/2014  00:41:00     -109.447      -57.624      -10.551       14.929       18.088       12.462      222.879      327.159      155.292        0.806        0.035      123.690        9.897        0.006      334.278        4.146      869.520
12/23/2014  00:42:00     -108.717      -42.177      -10.367       13.030       20.836       10.361      169.778      434.130      107.345        0.721        0.036      116.612        6.594        0.003      334.221        4.051      869.512
12/23/2014  00:43:00     -109.457      -35.479      -10.549       26.568       20.690       13.769      705.864      428.056      189.588        0.734        0.066      115.064       13.688        0.014      334.198        4.011      869.484
12/23/2014  00:44:00     -112.719      -11.120        2.190       45.392       26.782       22.355     2060.432      717.272      499.725        0.806        0.164      113.266       24.380        0.046      334.162        3.952      869.447
12/23/2014  00:45:00     -131.926      -23.867       -0.597       34.826       26.425       20.890     1212.822      698.281      436.403        1.016        0.117      134.067       21.379        0.025      334.188        3.996      869.404
12/23/2014  00:46:00     -125.360      -23.955       -8.898       29.959       22.449       17.704      897.565      503.970      313.425        0.904        0.086      127.628       16.163        0.016      334.205        4.023      869.372
12/23/2014  00:47:00     -111.992        0.169       -9.131       42.249       26.354       24.800     1784.964      694.536      615.026        0.786        0.155      111.993       27.908        0.062      334.313        4.203      869.361
12/23/2014  00:48:00      -98.415       11.600       -0.553       41.493       32.184       24.202     1721.641     1035.817      585.749        0.658        0.167       99.096       23.755        0.057      334.622        4.716      869.373
12/23/2014  00:49:00     -114.859       30.752       -6.521       41.075       33.531       23.767     1687.157     1124.353      564.887        0.878        0.169      118.904       20.184        0.029      334.575        4.637      869.379
12/23/2014  00:50:00     -112.364       22.377      -12.621       37.422       39.112       23.255     1400.401     1529.751      540.790        0.838        0.174      114.570       15.981        0.019      334.663        4.785      869.400
12/23/2014  00:51:00      -64.835        4.671       -5.789       28.153       31.683       21.296      792.614     1003.824      453.502        0.325        0.112       65.003        8.870        0.019      334.554        4.604      869.407
12/23/2014  00:52:00      -70.946       20.019        0.030       31.811       33.082       20.314     1011.955     1094.440      412.671        0.398        0.126       73.716       15.763        0.046      334.609        4.694      869.413
12/23/2014  00:53:00      -29.813       27.184       -1.885       21.865       25.453       21.930      478.091      647.842      480.904        0.162        0.080       40.346       15.130        0.141      334.726        4.889      869.413
12/23/2014  00:54:00      -58.841      -22.415       -0.275       30.664       24.241       18.427      940.311      587.628      339.549        0.292        0.093       62.966       17.208        0.075      334.650        4.763      869.414
12/23/2014  00:55:00       -2.603      -14.538        6.084       19.506       11.942       11.245      380.503      142.623      126.453        0.045        0.032       14.770       10.634        0.518      334.569        4.628      869.415
12/23/2014  00:56:00        7.231       16.463       25.224       13.368       11.265        9.603      178.711      126.894       92.214        0.068        0.020       17.981        6.702        0.139      334.312        4.202      869.406
12/23/2014  00:57:00       11.645        0.134       20.174       12.522       13.647        5.715      156.790      186.228       32.666        0.046        0.019       11.645        6.924        0.354      334.302        4.185      869.396
12/23/2014  00:58:00        6.305        9.169        4.734       13.235        8.977        9.396      175.164       80.585       88.281        0.025        0.017       11.128        5.593        0.253      334.199        4.015      869.390
12/23/2014  00:59:00       -3.853        1.016       16.739        4.958        7.967        5.880       24.586       63.469       34.570        0.021        0.006        3.985        4.861        1.488      334.212        4.036      869.388
12/23/2014  01:00:00       -9.369        0.507       10.939        5.891        9.929        5.836       34.705       98.579       34.054        0.019        0.008        9.383        3.773        0.162      334.150        3.935      869.388
12/23/2014  01:01:00       -7.950      -10.517        5.826       10.358       13.268        9.133      107.284      176.045       83.418        0.029        0.018       13.184       10.033        0.579      334.169        3.963      869.386
12/23/2014  01:02:00      -16.904      -15.711        5.523       10.692       11.464        7.997      114.319      131.422       63.954        0.044        0.015       23.078        4.690        0.041      334.200        4.017      869.377
12/23/2014  01:03:00      -27.621      -14.638       -2.969       11.411        6.329        5.212      130.218       40.055       27.167        0.059        0.010       31.260        3.822        0.015      334.108        3.863      869.367
12/23/2014  01:04:00      -15.228      -16.064        1.951       15.546        9.926        8.689      241.689       98.528       75.504        0.045        0.021       22.135        9.546        0.186      334.148        3.931      869.366
12/23/2014  01:05:00      -36.628       -9.926       -3.889       13.280       18.902        8.422      176.371      357.282       70.927        0.103        0.030       37.949        5.716        0.023      334.129        3.898      869.364
12/23/2014  01:06:00      -31.324       10.954       -3.107       18.130       22.941       13.529      328.713      526.284      183.031        0.107        0.052       33.184        8.124        0.060      334.185        3.991      869.363
12/23/2014  01:07:00      -65.927       -8.885       -7.276       20.662       23.190       14.696      426.913      537.792      215.967        0.283        0.059       66.523       14.564        0.048      334.172        3.968      869.359
12/23/2014  01:08:00      -91.711       -8.398      -16.125       11.685       12.106        9.761      136.546      146.550       95.268        0.456        0.019       92.095        5.659        0.004      334.214        4.038      869.360
12/23/2014  01:09:00      -90.258      -21.346       -9.338       19.971       16.323       12.244      398.838      266.453      149.926        0.475        0.041       92.748       10.544        0.013      334.176        3.977      869.356
12/23/2014  01:10:00      -75.108      -18.392        1.568       19.608       18.923       10.998      384.479      358.077      120.960        0.342        0.043       77.327        6.103        0.006      334.011        3.702      869.361
12/23/2014  01:11:00      -80.665      -13.752       -1.887       25.541       18.690       13.474      652.362      349.323      181.536        0.394        0.059       81.829       12.540        0.023      334.107        3.861      869.374
12/23/2014  01:12:00      -71.812      -17.292       -1.271       25.270       17.601       12.359      638.591      309.785      152.735        0.328        0.055       73.865       12.832        0.030      334.143        3.921      869.392
12/23/2014  01:13:00      -80.242       -8.964       -3.359       19.289       15.148       12.167      372.085      229.473      148.035        0.364        0.037       80.741        8.210        0.010      334.113        3.870      869.408
12/23/2014  01:14:00      -97.604        5.363       -8.435       13.399       11.426        9.186      179.539      130.555       84.382        0.501        0.020       97.751        7.282        0.006      334.131        3.901      869.434
12/23/2014  01:15:00      -74.517       -0.130      -15.819       17.542       18.115       10.440      307.736      328.143      108.995        0.327        0.037       74.517       10.893        0.021      334.081        3.819      869.426
12/23/2014  01:16:00      -80.855       -2.947       -9.512       13.113       10.572        8.066      171.961      111.763       65.057        0.349        0.017       80.909        6.720        0.007      334.071        3.801      869.411
12/23/2014  01:17:00      -70.570      -15.589       -9.904        9.694       17.019        8.936       93.979      289.640       79.849        0.289        0.023       72.271        8.590        0.014      334.000        3.685      869.398
12/23/2014  01:18:00      -81.922      -22.705       -9.227       16.125       13.251        8.333      260.017      175.587       69.439        0.391        0.025       85.010        6.316        0.006      333.887        3.497      869.392
12/23/2014  01:19:00      -87.031      -28.532       -6.941       22.244       18.624       15.701      494.811      346.850      246.509        0.476        0.054       91.588       14.915        0.027      333.847        3.432      869.410
12/23/2014  01:20:00     -103.146      -14.139      -12.844       17.250       10.249       11.202      297.570      105.037      125.483        0.577        0.026      104.110       10.566        0.010      333.876        3.480      869.428
12/23/2014  01:21:00     -119.240       -6.211      -15.739       11.186        9.828        8.395      125.136       96.580       70.468        0.740        0.015      119.402        5.482        0.002      333.946        3.594      869.433
12/23/2014  01:22:00     -116.720      -11.731      -13.390       10.694       10.565       11.548      114.364      111.622      133.348        0.715        0.018      117.308        4.009        0.001      333.984        3.659      869.423
12/23/2014  01:23:00     -111.111      -25.377      -10.052       13.668        9.828        9.579      186.820       96.585       91.752        0.673        0.019      113.972        6.291        0.003      333.985        3.660      869.409
12/23/2014  01:24:00      -96.040      -31.126       -7.627       20.514       17.194       12.271      420.840      295.617      150.588        0.556        0.043      100.958       10.639        0.011      333.945        3.594      869.398
12/23/2014  01:25:00      -96.746      -53.368       -3.789       14.465       18.203        9.956      209.224      331.362       99.125        0.643        0.032      110.490        5.811        0.003      333.953        3.607      869.393
12/23/2014  01:26:00     -101.546      -44.613       -8.258       11.668       15.365        9.415      136.135      236.093       88.649        0.642        0.023      110.914        6.388        0.003      333.981        3.654      869.386
12/23/2014  01:27:00     -100.373      -21.409       -7.356       16.454       14.705       12.330      270.746      216.247      152.023        0.561        0.032      102.631        9.415        0.008      333.950        3.603      869.367
12/23/2014  01:28:00     -102.323      -25.039       -9.948       13.936       16.062        9.398      194.211      257.973       88.314        0.587        0.027      105.342        6.161        0.003      333.919        3.552      869.344
12/23/2014  01:29:00      -92.920      -27.907       -1.461       25.091       21.102       14.307      629.576      445.289      204.700        0.535        0.064       97.020       14.261        0.022      333.823        3.391      869.334
12/23/2014  01:30:00     -104.029      -27.294       -4.211       20.152       13.774       13.241      406.119      189.721      175.331        0.618        0.039      107.550       11.978        0.012      333.845        3.427      869.339
12/23/2014  01:31:00      -87.437      -44.970        3.032       27.345       17.319       14.176      747.740      299.942      200.965        0.546        0.062       98.323       14.800        0.023      333.881        3.487      869.351
12/23/2014  01:32:00      -88.512      -38.349       -3.447       19.765       13.397       14.076      390.662      179.473      198.137        0.504        0.038       96.462       10.865        0.013      333.908        3.532      869.349
12/23/2014  01:33:00      -82.093      -19.906       -5.837       14.620       14.791        8.887      213.755      218.765       78.978        0.384        0.026       84.472        5.533        0.004      333.877        3.482      869.353
12/23/2014  01:34:00      -74.892      -23.846      -11.277        9.791       10.065        7.878       95.856      101.307       62.056        0.328        0.013       78.597        4.380        0.003      333.935        3.578      869.374
12/23/2014  01:35:00      -52.770      -23.227       -5.253       12.633       10.922        8.458      159.599      119.295       71.530        0.185        0.018       57.656        5.285        0.008      333.960        3.621      869.395
12/23/2014  01:36:00      -40.631      -23.758       -3.569        9.834       11.289        5.423       96.699      127.439       29.409        0.124        0.013       47.067        3.974        0.007      333.985        3.664      869.413
12/23/2014  01:37:00      -55.404      -18.560       -4.127       14.837       12.272        7.285      220.142      150.596       53.066        0.193        0.021       58.430        5.690        0.009      333.963        3.622      869.423
12/23/2014  01:38:00      -64.067       -9.393       -8.332        7.518        8.244        8.069       56.521       67.960       65.112        0.223        0.009       64.751        2.741        0.002      333.934        3.577      869.421
12/23/2014  01:39:00      -71.875      -13.953      -11.579        9.079        9.555        9.172       82.435       91.299       84.129        0.288        0.013       73.217        4.444        0.004      333.911        3.538      869.419
12/23/2014  01:40:00      -91.844      -24.850       -4.375       21.326       14.129       11.490      454.814      199.637      132.013        0.493        0.039       95.146        7.317        0.006      333.932        3.571      869.418
12/23/2014  01:41:00     -102.360      -51.230       -3.251       10.846       13.722        8.910      117.628      188.294       79.389        0.675        0.019      114.464        5.317        0.002      333.907        3.530      869.419
12/23/2014  01:42:00      -93.944      -40.229       -5.506       10.327       16.287        9.330      106.646      265.275       87.052        0.547        0.023      102.196        7.283        0.005      333.829        3.401      869.419
12/23/2014  01:43:00      -75.077      -37.233        0.158       19.564       18.638       12.690      382.746      347.375      161.040        0.396        0.045       83.803       11.882        0.020      333.775        3.310      869.415
12/23/2014  01:44:00      -66.665      -34.041       -4.126       22.775       14.839       13.265      518.718      220.209      175.948        0.327        0.046       74.853        5.721        0.006      333.776        3.313      869.427
12/23/2014  01:45:00      -70.214      -28.194       -2.920       15.267       14.251        9.779      233.070      203.079       95.630        0.313        0.027       75.663        5.809        0.006      333.781        3.322      869.438
12/23/2014  01:46:00      -43.954       -9.421       -4.526       11.749       13.853       11.092      138.039      191.897      123.036        0.125        0.023       44.953        6.285        0.020      333.853        3.440      869.445
12/23/2014  01:47:00      -81.439      -18.638       -9.873       12.053       10.140        6.235      145.268      102.818       38.879        0.368        0.014       83.544        1.554        0.000      333.890        3.501      869.440
12/23/2014  01:48:00      -61.279      -29.267       -1.877       12.710       12.994        8.203      161.539      168.844       67.296        0.251        0.020       67.909        3.400        0.003      333.871        3.472      869.437
12/23/2014  01:49:00      -44.619      -31.078       -0.168       17.337       15.314        9.891      300.578      234.508       97.841        0.179        0.032       54.375        7.481        0.019      333.828        3.400      869.449
12/23/2014  01:50:00      -38.427      -30.293       -5.310       10.603       11.555        7.647      112.434      133.516       58.474        0.136        0.015       48.932        6.449        0.017      333.812        3.374      869.461
12/23/2014  01:51:00       -9.211      -30.876        2.351       13.012       10.845        8.221      169.311      117.620       67.580        0.070        0.018       32.220        4.065        0.016      333.891        3.504      869.470
12/23/2014  01:52:00      -35.632      -25.056       -0.103       16.207       15.117       10.539      262.678      228.526      111.078        0.125        0.030       43.560       10.895        0.063      333.886        3.495      869.472
12/23/2014  01:53:00      -31.221        1.491       -3.619       12.028       10.368        8.988      144.669      107.487       80.776        0.066        0.017       31.257        6.346        0.041      333.801        3.355      869.470
12/23/2014  01:54:00      -14.761       -0.727        6.351       16.082       10.480        8.646      258.638      109.829       74.755        0.035        0.022       14.779        9.383        0.403      333.817        3.383      869.475
12/23/2014  01:55:00      -29.780      -17.606       -0.127       21.424       12.348        8.754      458.994      152.482       76.641        0.094        0.034       34.595        9.615        0.077      333.788        3.333      869.487
12/23/2014  01:56:00      -11.364      -17.830        5.559       31.338       12.686       11.515      982.091      160.928      132.599        0.088        0.064       21.143        9.409        0.198      333.836        3.412      869.512
12/23/2014  01:57:00      -15.412       -8.790        4.343       14.267        8.785        6.614      203.533       77.185       43.744        0.033        0.016       17.742        7.074        0.159      333.819        3.384      869.538
12/23/2014  01:58:00       -8.615       -8.118       -0.541        9.536        6.548        4.310       90.938       42.879       18.574        0.015        0.008       11.837        3.559        0.090      333.778        3.317      869.549
12/23/2014  01:59:00      -34.753       -8.046        1.436       25.656       11.988       11.515      658.245      143.723      132.596        0.110        0.047       35.672        4.825        0.018      333.813        3.375      869.550
12/23/2014  02:00:00      -59.972      -32.498        1.655       22.331       23.261       16.049      498.692      541.058      257.561        0.298        0.065       68.211       15.130        0.049      333.778        3.315      869.538
12/23/2014  02:01:00      -91.194      -37.454       -0.841       16.669       18.440        9.355      277.844      340.049       87.513        0.521        0.035       98.586        5.253        0.003      333.796        3.346      869.544
12/23/2014  02:02:00      -46.974      -31.042        3.655       32.074       18.678       12.946     1028.752      348.862      167.596        0.236        0.077       56.304       15.232        0.073      333.750        3.271      869.552
12/23/2014  02:03:00      -42.414      -16.133        1.633       25.905       14.694       13.389      671.057      215.914      179.278        0.156        0.053       45.379       13.869        0.093      333.711        3.206      869.551
12/23/2014  02:04:00      -68.608       -0.657       -4.758       19.528       14.352        9.138      381.344      205.980       83.504        0.270        0.034       68.611        9.693        0.020      333.747        3.264      869.560
12/23/2014  02:05:00      -48.177       -0.287        0.210       18.531       15.405       13.517      343.406      237.304      182.707        0.154        0.038       48.177       12.855        0.071      333.720        3.219      869.579
12/23/2014  02:06:00      -44.818      -10.790       -6.817       15.573       13.952        6.692      242.512      194.669       44.786        0.133        0.024       46.098        4.632        0.010      333.820        3.387      869.594
12/23/2014  02:07:00      -29.545      -15.256       -0.394       14.373       11.815        7.147      206.578      139.585       51.084        0.075        0.020       33.252        8.112        0.060      333.821        3.389      869.623
12/23/2014  02:08:00      -37.591      -23.968      -10.957        7.414        9.370        8.632       54.961       87.798       74.519        0.116        0.011       44.582        4.197        0.009      333.770        3.303      869.638
12/23/2014  02:09:00      -22.321      -21.536       -3.478        9.666        7.765        7.133       93.428       60.295       50.879        0.059        0.010       31.016        5.312        0.029      333.791        3.338      869.649
12/23/2014  02:10:00        3.530       -3.340        1.657        4.731        4.148        4.952       22.382       17.202       24.525        0.005        0.003        4.860        2.624        0.292      333.719        3.218      869.646
12/23/2014  02:11:00        3.270        1.562        2.188        5.784        3.940        6.302       33.457       15.524       39.721        0.005        0.004        3.624        4.698        1.681      333.729        3.236      869.645
12/23/2014  02:12:00        4.361       13.775        3.061        4.072        7.323        4.617       16.580       53.633       21.313        0.015        0.005       14.448        4.680        0.105      333.739        3.252      869.630
12/23/2014  02:13:00      -24.646       14.707       -3.184       11.811       11.439        4.435      139.506      130.860       19.673        0.056        0.015       28.700        4.895        0.029      333.765        3.294      869.597
12/23/2014  02:14:00      -54.271      -21.137       -3.766       10.038       11.454       10.159      100.754      131.191      103.196        0.187        0.017       58.242        7.905        0.018      333.701        3.187      869.582
12/23/2014  02:15:00      -60.029      -21.127       -2.616        9.776       11.451        5.637       95.572      131.121       31.774        0.216        0.013       63.638        4.987        0.006      333.631        3.071      869.582
12/23/2014  02:16:00      -79.140      -17.666       -7.590        9.044       16.919        7.221       81.791      286.261       52.144        0.353        0.021       81.088        5.315        0.004      333.540        2.921      869.582
12/23/2014  02:17:00      -66.480      -10.389       -2.821       25.637       16.114       12.236      657.230      259.667      149.729        0.280        0.053       67.287       11.700        0.030      333.546        2.931      869.575
12/23/2014  02:18:00      -88.130       -6.206       -7.933       25.098       13.144       11.880      629.892      172.776      141.145        0.441        0.047       88.348       11.232        0.016      333.442        2.758      869.567
12/23/2014  02:19:00      -43.280      -13.606       -3.543       20.054       18.590       10.175      402.163      345.579      103.537        0.146        0.043       45.368       10.398        0.053      333.410        2.707      869.567
12/23/2014  02:20:00      -29.035       -1.143       -0.747       14.956       20.981        9.681      223.670      440.206       93.718        0.080        0.038       29.057        7.140        0.060      333.582        2.992      869.586
12/23/2014  02:21:00      -10.977      -11.304        0.225        8.490        8.471        8.210       72.074       71.756       67.404        0.023        0.011       15.757        4.218        0.072      333.561        2.957      869.613
12/23/2014  02:22:00      -31.453      -15.402        0.234        6.922        5.814        8.659       47.915       33.800       74.975        0.069        0.008       35.022        4.479        0.016      333.867        3.464      869.644
12/23/2014  02:23:00      -16.625      -26.647        2.092       14.621       16.066       10.391      213.760      258.120      107.966        0.079        0.029       31.408        9.520        0.092      333.746        3.264      869.673
12/23/2014  02:24:00       -1.509       -4.973        7.304        7.095        6.888        5.443       50.344       47.445       29.622        0.010        0.006        5.197        3.890        0.560      333.731        3.238      869.680
12/23/2014  02:25:00      -16.352       -2.191       -1.656       11.272        5.522        5.323      127.061       30.487       28.336        0.023        0.009       16.498        3.966        0.058      333.703        3.192      869.685
12/23/2014  02:26:00      -43.780        6.656       -5.524        5.354        5.122        5.761       28.669       26.231       33.193        0.104        0.004       44.283        3.553        0.006      333.635        3.079      869.689
12/23/2014  02:27:00      -37.087       14.415       -1.032       14.125       16.782        8.593      199.522      281.642       73.838        0.107        0.028       39.790        2.467        0.004      333.822        3.391      869.702
12/23/2014  02:28:00      -41.700      -10.706       -4.984        9.635        7.908        5.218       92.829       62.533       27.228        0.103        0.009       43.053        4.862        0.013      333.695        3.178      869.711
12/23/2014  02:29:00      -37.149        1.690        2.058       12.884       16.585        7.603      165.993      275.052       57.804        0.094        0.025       37.188        5.796        0.024      333.588        3.001      869.701
12/23/2014  02:30:00      -58.090      -10.098       -7.448       16.481       11.946        9.683      271.619      142.710       93.769        0.202        0.025       58.962        8.715        0.022      333.459        2.787      869.692
12/23/2014  02:31:00      -64.208      -11.262       -8.743       10.242       10.384        7.674      104.890      107.829       58.897        0.230        0.014       65.188        4.917        0.006      333.355        2.616      869.691
12/23/2014  02:32:00      -55.676        5.368       -8.041       17.569       13.669       11.145      308.680      186.829      124.209        0.191        0.031       55.934        8.016        0.021      333.400        2.689      869.712
12/23/2014  02:33:00      -64.849       14.148       -3.821       20.291       22.116       13.347      411.722      489.114      178.141        0.275        0.054       66.375        5.415        0.007      333.611        3.039      869.726
12/23/2014  02:34:00      -62.547        6.115       -5.780       16.352       15.779       12.520      267.380      248.964      156.754        0.233        0.034       62.845        4.910        0.006      333.495        2.846      869.731
12/23/2014  02:35:00      -58.583      -12.885       -9.705       18.952       14.523       10.278      359.194      210.920      105.646        0.218        0.034       59.983        8.954        0.022      333.356        2.616      869.737
12/23/2014  02:36:00      -49.819       -0.671       -6.898       24.488       22.724       16.407      599.658      516.377      269.200        0.196        0.069       49.824       14.452        0.084      333.429        2.737      869.751
12/23/2014  02:37:00      -59.489      -10.225       -8.072       21.977       22.586       14.689      482.995      510.132      215.755        0.246        0.060       60.361       13.146        0.047      333.391        2.674      869.754
12/23/2014  02:38:00      -85.248      -21.881      -17.062       15.681       18.111       11.014      245.885      328.020      121.316        0.437        0.035       88.011       10.426        0.014      333.271        2.475      869.760
12/23/2014  02:39:00      -90.875      -11.918      -15.376       13.915       15.626       13.299      193.613      244.157      176.850        0.463        0.031       91.653        9.873        0.012      333.198        2.355      869.758
12/23/2014  02:40:00      -80.524       -5.374      -11.868       32.882       14.031       12.428     1081.222      196.861      154.464        0.404        0.072       80.703       12.874        0.025      333.138        2.256      869.745
12/23/2014  02:41:00      -68.214       -2.161      -15.832       30.104       19.255       17.475      906.266      370.746      305.373        0.325        0.079       68.248       19.649        0.083      333.220        2.391      869.732
12/23/2014  02:42:00      -86.650       26.818      -19.433       23.267       32.437       18.617      541.337     1052.138      346.608        0.527        0.097       90.705       12.536        0.019      333.613        3.041      869.728
12/23/2014  02:43:00     -125.041       49.268      -24.674       39.359       30.527       22.969     1549.111      931.900      527.564        1.084        0.150      134.397       19.157        0.020      333.708        3.199      869.725
12/23/2014  02:44:00     -147.888       29.568      -17.280       42.936       36.796       28.555     1843.478     1353.950      815.371        1.353        0.201      150.815       24.715        0.027      333.577        2.982      869.728
12/23/2014  02:45:00     -159.043       12.461      -26.385       34.206       29.437       20.799     1170.026      866.559      432.618        1.431        0.123      159.530       15.853        0.010      333.437        2.750      869.738
12/23/2014  02:46:00      -77.488      -20.685       -6.377       30.452       34.649       17.526      927.306     1200.567      307.152        0.445        0.122       80.201       15.896        0.039      333.381        2.657      869.747
12/23/2014  02:47:00      -68.589       12.782       -5.672       34.454       25.181       15.086     1187.050      634.072      227.574        0.347        0.102       69.770       10.372        0.022      333.546        2.931      869.757
12/23/2014  02:48:00      -46.338       22.307      -11.584       22.583       21.799       15.070      510.009      475.176      227.108        0.200        0.061       51.427        4.017        0.006      333.637        3.082      869.763
12/23/2014  02:49:00      -49.582       39.816        0.905       20.770       31.128       17.439      431.381      968.971      304.120        0.287        0.085       63.590       11.010        0.030      334.113        3.873      869.777
12/23/2014  02:50:00      -30.260       43.271       -4.207       23.955       31.011       18.033      573.831      961.695      325.189        0.233        0.093       52.802       15.875        0.090      334.081        3.819      869.786
12/23/2014  02:51:00       17.058       -5.618       10.723       14.829       20.404       12.321      219.909      416.318      151.812        0.061        0.039       17.959       10.709        0.356      333.833        3.407      869.794
12/23/2014  02:52:00       11.095      -17.312        8.943       15.908       19.726       14.542      253.065      389.123      211.478        0.068        0.043       20.562        9.303        0.205      333.741        3.255      869.797
12/23/2014  02:53:00      -34.934      -25.547       -6.402       17.477       10.657        9.273      305.448      113.568       85.986        0.121        0.025       43.279        5.131        0.014      333.558        2.953      869.789
12/23/2014  02:54:00      -64.316      -24.492       -6.288       12.865       12.002        9.169      165.509      144.053       84.072        0.258        0.020       68.821        5.620        0.007      333.431        2.740      869.774
12/23/2014  02:55:00      -67.833      -33.084      -10.752       11.237       10.792        7.672      126.267      116.468       58.852        0.306        0.015       75.471        3.531        0.002      333.452        2.774      869.755
12/23/2014  02:56:00      -51.106      -40.016      -15.982       13.718        9.307        8.850      188.191       86.616       78.327        0.241        0.018       64.908        6.869        0.011      333.499        2.854      869.747
12/23/2014  02:57:00      -72.388      -32.136      -12.229       22.915       10.817        8.914      525.108      117.000       79.452        0.357        0.036       79.201        4.338        0.003      333.518        2.883      869.765
12/23/2014  02:58:00      -66.071      -32.687       -8.909        8.936        6.236        5.518       79.858       38.891       30.449        0.283        0.007       73.714        2.049        0.001      333.551        2.939      869.778
12/23/2014  02:59:00      -64.671      -24.701       -5.517        9.472        7.788        5.501       89.726       60.647       30.261        0.250        0.009       69.227        4.204        0.004      333.590        3.005      869.787
12/23/2014  03:00:00      -66.539      -26.206       -7.656       12.557        9.711        8.201      157.687       94.309       67.249        0.275        0.016       71.514        4.888        0.005      333.559        2.952      869.798
12/23/2014  03:01:00      -69.577       -7.374       -6.167        8.362       10.024        7.176       69.915      100.477       51.494        0.258        0.011       69.967        5.273        0.006      333.533        2.909      869.809
12/23/2014  03:02:00      -70.786       -7.635       -4.490       21.946       11.296       10.316      481.614      127.593      106.429        0.290        0.036       71.196       10.215        0.021      333.587        3.000      869.816
12/23/2014  03:03:00      -95.001      -14.743       -6.321       21.209       14.665       13.243      449.812      215.059      175.371        0.506        0.042       96.138       10.671        0.012      333.458        2.785      869.828
12/23/2014  03:04:00     -101.199      -24.697      -10.519       22.703       15.539       14.400      515.420      241.465      207.370        0.596        0.048      104.169       13.109        0.016      333.510        2.872      869.834
12/23/2014  03:05:00     -115.626      -30.323       -7.019       18.755       16.380       11.474      351.746      268.299      131.642        0.754        0.038      119.536        7.945        0.004      333.525        2.895      869.829
12/23/2014  03:06:00     -112.042      -59.269       -3.799       23.105       20.002       16.430      533.861      400.084      269.943        0.864        0.060      126.752       13.515        0.011      333.520        2.889      869.818
12/23/2014  03:07:00     -113.099      -55.075       -7.215       18.716       16.560       13.199      350.287      274.250      174.219        0.834        0.040      125.796        8.682        0.005      333.406        2.698      869.805
12/23/2014  03:08:00     -128.488      -46.213       -7.374       18.307       20.644       14.234      335.156      426.160      202.598        0.983        0.048      136.546        5.152        0.001      333.457        2.783      869.796
12/23/2014  03:09:00      -99.747      -50.908       -2.017       38.413       25.375       18.038     1475.582      643.885      325.359        0.749        0.122      111.987       16.029        0.020      333.498        2.852      869.796
12/23/2014  03:10:00     -101.333      -55.734       -7.565       26.149       27.611       18.321      683.780      762.357      335.642        0.761        0.089      115.649       15.453        0.018      333.472        2.808      869.800
12/23/2014  03:11:00      -75.999      -51.402       -0.862       27.691       24.511       14.721      766.811      600.791      216.695        0.500        0.079       91.749       13.908        0.023      333.451        2.774      869.791
12/23/2014  03:12:00      -87.138      -23.190       -3.239       32.691       21.168       15.803     1068.701      448.099      249.722        0.495        0.088       90.172       15.098        0.028      333.413        2.712      869.788
12/23/2014  03:13:00     -123.042      -29.999       -1.443       37.404       25.541       22.276     1399.024      652.364      496.208        0.929        0.127      126.646       21.308        0.028      333.276        2.484      869.782
12/23/2014  03:14:00      -91.785      -46.532        3.323       38.585       33.748       18.462     1488.800     1138.917      340.835        0.678        0.148      102.907       16.926        0.027      333.299        2.523      869.778
12/23/2014  03:15:00     -122.570      -64.639       -2.519       29.752       20.458       15.992      885.183      418.548      255.748        1.038        0.078      138.570       13.579        0.010      333.381        2.657      869.769
12/23/2014  03:16:00      -96.176      -55.142        0.895       38.676       24.210       21.435     1495.849      586.101      459.477        0.742        0.127      110.862       15.710        0.020      333.357        2.618      869.756
12/23/2014  03:17:00     -108.439      -78.847        3.618       40.537       37.596       24.184     1643.269     1413.441      584.863        1.081        0.182      134.074       23.447        0.031      333.310        2.540      869.737
12/23/2014  03:18:00      -81.234      -57.413       12.379       52.442       37.410       28.232     2750.208     1399.481      797.029        0.750        0.247       99.475       27.063        0.074      333.329        2.573      869.721
12/23/2014  03:19:00     -130.942      -89.925       -1.266       43.292       40.660       25.768     1874.227     1653.262      664.006        1.471        0.210      158.847       20.107        0.016      333.341        2.591      869.691
12/23/2014  03:20:00     -130.110      -58.361       -6.470       38.449       35.916       24.264     1478.308     1289.941      588.740        1.187        0.168      142.599       19.160        0.018      333.343        2.597      869.681
12/23/2014  03:21:00     -143.320      -43.348       -4.564       34.492       28.540       22.069     1189.697      814.555      487.034        1.247        0.125      149.732       20.473        0.019      333.365        2.632      869.674
12/23/2014  03:22:00     -118.492      -45.221        0.981       39.888       34.437       25.504     1591.025     1185.879      650.459        0.976        0.171      126.828       22.562        0.032      333.406        2.699      869.673
12/23/2014  03:23:00     -138.439      -63.674       -8.147       36.116       43.598       21.001     1304.393     1900.743      441.026        1.347        0.182      152.381       20.893        0.019      333.472        2.809      869.680
12/23/2014  03:24:00     -125.699      -64.969       -4.405       50.428       29.136       21.148     2543.005      848.926      447.257        1.194        0.192      141.496       21.519        0.023      333.449        2.771      869.691
12/23/2014  03:25:00     -104.553      -51.398        0.744       40.440       26.550       21.451     1635.402      704.896      460.160        0.819        0.140      116.503       22.615        0.038      333.473        2.811      869.705
12/23/2014  03:26:00     -113.638      -67.019        1.590       30.356       28.716       19.091      921.464      824.632      364.470        0.976        0.106      131.929       11.343        0.007      333.469        2.802      869.724
12/23/2014  03:27:00     -119.474      -47.656       -7.814       32.525       25.184       18.013     1057.877      634.231      324.484        0.931        0.101      128.628       18.753        0.021      333.423        2.728      869.735
12/23/2014  03:28:00      -89.118      -34.473       -2.574       29.818       24.077       16.482      889.139      579.691      271.659        0.544        0.087       95.553       13.689        0.021      333.349        2.604      869.739
12/23/2014  03:29:00      -81.896      -47.386        2.879       32.328       23.256       14.841     1045.116      540.830      220.269        0.538        0.090       94.617       16.909        0.032      333.419        2.722      869.742
12/23/2014  03:30:00      -59.299      -41.631        8.185       40.856       26.533       19.370     1669.213      703.985      375.198        0.403        0.137       72.453       19.237        0.070      333.479        2.819      869.739
12/23/2014  03:31:00      -64.315      -41.506        6.135       42.970       30.090       21.435     1846.380      905.415      459.463        0.455        0.161       76.545       19.993        0.068      333.450        2.772      869.725
12/23/2014  03:32:00     -103.442      -74.383        0.362       36.965       29.488       19.603     1366.382      869.533      384.259        0.943        0.131      127.409       17.872        0.020      333.563        2.959      869.714
12/23/2014  03:33:00     -117.533      -61.559        1.802       37.642       24.080       15.146     1416.920      579.841      229.412        0.992        0.111      132.678        9.207        0.005      333.537        2.917      869.689
12/23/2014  03:34:00     -112.321      -42.142       -4.652       19.981       20.793       14.380      399.225      432.342      206.771        0.773        0.052      119.966       13.482        0.013      333.547        2.932      869.677
12/23/2014  03:35:00      -87.174      -34.759       -0.166       19.813       15.488       16.658      392.556      239.872      277.505        0.486        0.045       93.849       12.450        0.018      333.518        2.885      869.656
12/23/2014  03:36:00      -96.225      -20.497       -2.586       23.244       20.429       12.781      540.287      417.359      163.359        0.540        0.056       98.384       12.591        0.016      333.502        2.858      869.641
12/23/2014  03:37:00      -91.939      -11.098       -5.942       25.762       20.289       14.768      663.684      411.625      218.100        0.495        0.065       92.606       11.886        0.016      333.465        2.797      869.633
12/23/2014  03:38:00      -89.444      -15.108       -4.357       21.334       17.421       11.814      455.160      303.493      139.561        0.457        0.045       90.711       11.129        0.015      333.575        2.980      869.628
12/23/2014  03:39:00      -65.719      -18.389        0.779       25.197       17.411       12.592      634.909      303.142      158.562        0.288        0.055       68.243       13.001        0.036      333.564        2.960      869.627
12/23/2014  03:40:00      -62.659      -42.243        1.639       19.264       18.748       12.872      371.100      351.498      165.687        0.330        0.044       75.569       11.240        0.022      333.533        2.909      869.624
12/23/2014  03:41:00      -36.270      -20.687        9.438       29.300       21.066       14.094      858.473      443.784      198.635        0.167        0.075       41.755       15.491        0.138      333.419        2.722      869.629
12/23/2014  03:42:00      -38.747      -28.314       -3.493       21.299       16.759       13.363      453.667      280.868      178.565        0.161        0.046       47.989        5.258        0.012      333.445        2.764      869.622
12/23/2014  03:43:00      -43.990      -34.129       -4.757       13.936       14.100        7.108      194.217      198.819       50.531        0.178        0.022       55.677        1.324        0.001      333.398        2.686      869.623
12/23/2014  03:44:00      -74.641      -30.101       -8.686       14.253       10.067        6.826      203.159      101.342       46.596        0.345        0.018       80.481        3.795        0.002      333.384        2.665      869.610
12/23/2014  03:45:00      -97.842      -10.124      -14.293       10.711        9.936       11.200      114.720       98.718      125.434        0.511        0.017       98.364        6.887        0.005      333.375        2.649      869.604
12/23/2014  03:46:00      -78.669      -15.915       -7.100       16.928       13.150        9.148      286.572      172.934       83.683        0.352        0.027       80.262        6.980        0.008      333.325        2.565      869.596
12/23/2014  03:47:00      -63.449      -22.487       -5.322       24.007       15.366       10.302      576.339      236.127      106.128        0.274        0.046       67.316       10.526        0.024      333.337        2.584      869.584
12/23/2014  03:48:00      -73.497      -12.683       -5.799       22.135       12.681       13.428      489.952      160.814      180.317        0.321        0.042       74.584       11.651        0.024      333.357        2.619      869.577
12/23/2014  03:49:00      -70.338      -21.198       -5.356       13.293       16.449       11.543      176.693      270.554      133.238        0.300        0.029       73.463        6.980        0.009      333.356        2.618      869.563
12/23/2014  03:50:00      -74.632      -17.811      -13.704       15.993       14.758        9.808      255.778      217.785       96.196        0.332        0.028       76.728        5.827        0.006      333.322        2.561      869.555
12/23/2014  03:51:00      -42.396      -29.348        1.454       21.008       19.375       13.622      441.320      375.381      185.560        0.183        0.050       51.562        9.265        0.032      333.186        2.335      869.547
12/23/2014  03:52:00      -78.624      -40.498       -9.443       25.687       20.522       15.073      659.798      421.143      227.201        0.461        0.065       88.441       11.726        0.018      333.209        2.372      869.540
12/23/2014  03:53:00      -73.835      -41.936       -3.539       21.656       22.126       15.542      468.965      489.560      241.546        0.421        0.060       84.913       12.958        0.023      333.227        2.403      869.537
12/23/2014  03:54:00      -90.213      -39.141       -7.533       24.087       17.326       11.886      580.166      300.193      141.285        0.537        0.051       98.338        6.775        0.005      333.173        2.313      869.541
12/23/2014  03:55:00      -81.872      -32.863       -5.534       25.991       24.307       18.162      675.528      590.854      329.870        0.470        0.080       88.221       13.918        0.025      333.177        2.320      869.535
12/23/2014  03:56:00      -76.777      -39.298       -3.176       25.354       20.623       12.814      642.847      425.324      164.204        0.434        0.062       86.250       10.251        0.014      333.158        2.290      869.525
12/23/2014  03:57:00      -95.432      -30.342       -5.016       34.550       36.496       19.327     1193.699     1331.943      373.530        0.648        0.145      100.139       20.299        0.041      333.213        2.381      869.502
12/23/2014  03:58:00      -89.189      -24.596        0.191       29.812       29.507       18.250      888.771      870.654      333.063        0.533        0.105       92.518       16.485        0.032      333.208        2.372      869.484
12/23/2014  03:59:00      -75.255      -18.545       -8.425       20.686       17.201       12.970      427.895      295.860      168.230        0.348        0.045       77.506       12.001        0.024      333.266        2.467      869.467
12/23/2014  04:00:00      -44.099      -31.113        1.518       13.120       18.275       13.313      172.128      333.974      177.243        0.180        0.034       53.970       12.147        0.051      333.307        2.535      869.460
12/23/2014  04:01:00      -68.183      -13.214      -11.336       14.569       17.024       10.740      212.246      289.819      115.342        0.278        0.031       69.451        5.821        0.007      333.357        2.621      869.457
12/23/2014  04:02:00      -66.989      -26.718       -6.332       13.804       17.804        9.847      190.550      316.992       96.963        0.292        0.030       72.120        8.518        0.014      333.339        2.589      869.468
12/23/2014  04:03:00      -86.226      -44.604      -11.218       16.924       17.960       11.766      286.431      322.573      138.450        0.515        0.037       97.080       10.411        0.012      333.301        2.527      869.486
12/23/2014  04:04:00      -88.435      -31.530      -14.909       26.109       21.660       15.310      681.660      469.153      234.401        0.521        0.069       93.888       13.842        0.022      333.227        2.402      869.491
12/23/2014  04:05:00      -51.205      -33.421        2.530       34.559       21.664       14.198     1194.358      469.343      201.590        0.280        0.093       61.146       14.655        0.057      333.240        2.423      869.496
12/23/2014  04:06:00      -61.807      -26.790        0.026       31.244       24.265       17.910      976.196      588.796      320.779        0.321        0.094       67.363       17.897        0.071      333.230        2.410      869.487
12/23/2014  04:07:00      -99.490      -10.504       -9.092       27.750       19.736       16.986      770.084      389.529      288.528        0.577        0.072      100.043       12.526        0.016      333.249        2.439      869.476
12/23/2014  04:08:00     -102.377      -36.044       -7.350       17.447       18.365        9.330      304.413      337.261       87.056        0.628        0.036      108.537        4.225        0.002      333.253        2.446      869.475
12/23/2014  04:09:00      -94.479      -26.078       -8.703       25.354       17.690       10.518      642.831      312.920      110.633        0.537        0.053       98.012        8.312        0.007      333.305        2.533      869.471
12/23/2014  04:10:00     -107.524      -44.403       -8.853       13.269       14.722       10.993      176.076      216.737      120.836        0.706        0.026      116.331        6.371        0.003      333.315        2.550      869.467
12/23/2014  04:11:00      -97.909      -39.241       -6.169       16.528       16.533       11.750      273.167      273.353      138.052        0.592        0.034      105.481        8.933        0.007      333.278        2.488      869.466
12/23/2014  04:12:00      -85.240      -23.619       -6.024       18.371       21.125       12.755      337.508      446.258      162.678        0.440        0.047       88.451       11.328        0.016      333.291        2.508      869.470
12/23/2014  04:13:00      -37.820      -22.719        6.354       19.717       18.333       10.500      388.743      336.105      110.245        0.141        0.042       44.119       10.203        0.053      333.273        2.480      869.466
12/23/2014  04:14:00      -61.604      -16.956       -5.152       12.847       11.205        9.330      165.045      125.545       87.049        0.224        0.019       63.895        3.928        0.004      333.244        2.430      869.459
12/23/2014  04:15:00      -77.113       -9.606       -5.507       12.925       11.057        8.966      167.053      122.254       80.397        0.322        0.018       77.709        1.534        0.000      333.220        2.392      869.442
12/23/2014  04:16:00      -80.545      -25.360       -3.473       24.284       18.605        9.481      589.711      346.128       89.893        0.408        0.051       84.443       10.883        0.017      333.241        2.426      869.426
12/23/2014  04:17:00      -76.936      -27.615       -3.728       21.291       15.964       11.090      453.305      254.863      122.977        0.376        0.042       81.742       10.001        0.015      333.184        2.331      869.436
12/23/2014  04:18:00      -97.750      -33.149       -2.665       17.306       18.135       14.548      299.509      328.869      211.633        0.575        0.042      103.217       11.167        0.012      333.139        2.260      869.452
12/23/2014  04:19:00     -110.959      -37.511       -6.711       12.542       15.366       12.047      157.300      236.125      145.135        0.715        0.027      117.128        5.060        0.002      333.190        2.341      869.483
12/23/2014  04:20:00     -107.765      -42.560       -5.705       17.999       20.385       10.528      323.975      415.555      110.837        0.715        0.043      115.865        7.765        0.004      333.162        2.296      869.496
12/23/2014  04:21:00     -103.990      -25.941       -5.853       29.320       19.318       14.307      859.644      373.196      204.700        0.648        0.072      107.177       13.541        0.016      333.115        2.219      869.505
12/23/2014  04:22:00     -116.747      -30.656      -12.981       11.810       11.961       11.282      139.469      143.072      127.292        0.757        0.020      120.705        4.337        0.001      333.033        2.082      869.509
12/23/2014  04:23:00     -107.114      -23.941      -15.765       12.295       13.697       10.965      151.155      187.621      120.228        0.638        0.023      109.757        6.272        0.003      332.878        1.828      869.518
12/23/2014  04:24:00      -84.483      -36.157       -2.940       17.995       21.963       12.518      323.810      482.395      156.699        0.471        0.048       91.895        9.960        0.012      332.865        1.806      869.515
12/23/2014  04:25:00      -76.556      -35.155       -6.032       20.365       16.392       15.469      414.716      268.699      239.287        0.403        0.046       84.242       14.751        0.031      332.938        1.928      869.511
12/23/2014  04:26:00      -92.859      -40.411      -11.455       12.393       13.614        8.242      153.588      185.331       67.928        0.540        0.020      101.271        6.190        0.004      333.021        2.063      869.506
12/23/2014  04:27:00      -97.630      -23.405      -20.582       10.630       11.308        7.606      113.000      127.865       57.852        0.540        0.015      100.396        5.816        0.003      333.022        2.065      869.504
12/23/2014  04:28:00      -88.499      -14.526      -10.683       16.138       12.175       10.020      260.433      148.227      100.402        0.433        0.025       89.683        8.563        0.009      333.038        2.092      869.504
12/23/2014  04:29:00      -89.787      -16.941      -12.491       10.786       13.177        9.189      116.347      173.646       84.431        0.444        0.019       91.371        7.244        0.006      333.067        2.139      869.515
12/23/2014  04:30:00      -82.593      -14.492       -1.539       14.067       14.723       11.818      197.890      216.770      139.673        0.379        0.028       83.854        9.262        0.012      333.044        2.102      869.533
12/23/2014  04:31:00      -78.025      -37.466       -6.033       14.498       14.682       11.101      210.184      215.549      123.232        0.404        0.027       86.554        7.739        0.008      333.028        2.073      869.539
12/23/2014  04:32:00      -86.105      -24.450      -10.130       13.395       12.959       11.042      179.428      167.947      121.936        0.429        0.023       89.509        6.536        0.005      333.033        2.083      869.547
12/23/2014  04:33:00      -94.106      -31.994      -14.400       12.868       20.332       11.877      165.581      413.407      141.071        0.540        0.036       99.396        9.059        0.008      333.043        2.100      869.553
12/23/2014  04:34:00      -84.788      -14.931       -7.961       16.905       15.145       12.036      285.784      229.382      144.874        0.407        0.033       86.092        9.693        0.013      333.034        2.086      869.557
12/23/2014  04:35:00      -80.141      -16.047       -4.064       17.520       15.577       10.325      306.968      242.631      106.607        0.368        0.033       81.731        9.384        0.013      333.011        2.048      869.554
12/23/2014  04:36:00      -68.886      -26.204       -9.937       18.912       13.558       10.163      357.645      183.829      103.294        0.309        0.032       73.702        8.484        0.013      333.049        2.109      869.557
12/23/2014  04:37:00      -89.493      -46.706       -7.933       12.915       12.133       10.618      166.789      147.218      112.744        0.534        0.021      100.948        5.515        0.003      333.045        2.103      869.554
12/23/2014  04:38:00      -78.448      -18.598      -10.883       14.820       12.599        8.568      219.624      158.740       73.418        0.353        0.023       80.622        7.528        0.009      333.068        2.140      869.553
12/23/2014  04:39:00      -76.030      -14.289      -11.704       12.874       10.310        9.267      165.749      106.306       85.883        0.324        0.018       77.361        5.480        0.005      332.998        2.026      869.560
12/23/2014  04:40:00      -79.897      -18.279      -12.753       12.624       12.886        9.479      159.358      166.046       89.843        0.365        0.021       81.961        6.172        0.006      333.026        2.071      869.557
12/23/2014  04:41:00      -87.807      -31.991      -12.555       12.270       11.105        9.155      150.561      123.316       83.819        0.462        0.018       93.453        5.299        0.003      333.030        2.078      869.561
12/23/2014  04:42:00      -81.977      -26.798      -10.000       13.332       18.135       11.521      177.733      328.877      132.731        0.409        0.032       86.246       11.590        0.018      333.078        2.156      869.571
12/23/2014  04:43:00      -73.555      -25.161      -12.811       16.520       14.350        9.163      272.927      205.936       83.955        0.339        0.028       77.739        9.321        0.014      333.108        2.207      869.575
12/23/2014  04:44:00      -56.034      -27.714      -10.358       15.404       15.139       13.272      237.286      229.201      176.138        0.233        0.032       62.513       10.924        0.031      333.135        2.251      869.578
12/23/2014  04:45:00      -72.248      -37.448       -9.197       11.548       16.539        7.992      133.355      273.551       63.865        0.359        0.024       81.377        5.088        0.004      333.070        2.144      869.589
12/23/2014  04:46:00      -92.716      -39.975      -10.904        8.028       11.040        7.754       64.447      121.872       60.127        0.528        0.012      100.966        5.879        0.003      333.034        2.085      869.597
12/23/2014  04:47:00      -90.085      -37.387      -10.654        9.632       11.194        7.628       92.777      125.305       58.186        0.495        0.014       97.535        2.172        0.000      333.004        2.034      869.610
12/23/2014  04:48:00      -98.814      -44.572       -7.411       11.505       13.207        8.119      132.354      174.428       65.918        0.609        0.019      108.402        6.595        0.004      333.025        2.069      869.631
12/23/2014  04:49:00     -107.726      -45.262       -7.301       13.856       14.109       10.144      191.998      199.058      102.896        0.710        0.025      116.848        5.477        0.002      333.037        2.089      869.644
12/23/2014  04:50:00      -84.030      -47.067       -1.882       22.285       20.126       13.036      496.637      405.051      169.939        0.518        0.054       96.313        7.982        0.007      332.963        1.965      869.657
12/23/2014  04:51:00      -70.536      -41.563        0.453       21.779       17.011       14.682      474.336      289.366      215.564        0.384        0.049       81.871       14.017        0.029      333.010        2.045      869.669
12/23/2014  04:52:00      -66.451      -24.773       -4.198       13.628       14.870       10.547      185.733      221.124      111.236        0.278        0.026       70.919        8.255        0.014      332.956        1.956      869.682
12/23/2014  04:53:00      -77.675      -13.010       -9.324       11.783       11.331        8.199      138.828      128.383       67.228        0.331        0.017       78.756        4.496        0.003      333.001        2.029      869.687
12/23/2014  04:54:00      -91.717      -17.477       -8.564       13.451       11.046        8.180      180.922      122.023       66.911        0.458        0.018       93.367        7.202        0.006      332.965        1.970      869.689
12/23/2014  04:55:00      -79.650      -29.865       -3.821       18.575       16.339        9.962      345.027      266.965       99.240        0.398        0.036       85.065        6.898        0.007      332.906        1.874      869.688
12/23/2014  04:56:00      -76.504      -20.715       -3.754       25.158       15.100       13.903      632.947      228.009      193.298        0.367        0.053       79.259       14.718        0.034      332.867        1.810      869.686
12/23/2014  04:57:00      -71.028      -12.283       -1.979       21.314       13.400       11.279      454.301      179.553      127.210        0.298        0.038       72.083       12.016        0.028      332.815        1.723      869.689
12/23/2014  04:58:00      -75.077      -28.737       -0.142       16.357       13.465       11.066      267.536      181.301      122.460        0.352        0.029       80.389        9.760        0.015      332.911        1.883      869.705
12/23/2014  04:59:00      -64.953      -22.067        0.733       15.736       17.910       11.165      247.635      320.754      124.647        0.270        0.035       68.599        8.436        0.015      332.940        1.930      869.722
12/23/2014  05:00:00      -62.900       -7.161       -3.235       16.307        7.963        9.390      265.907       63.404       88.176        0.222        0.021       63.306        9.602        0.023      332.937        1.925      869.736
12/23/2014  05:01:00      -80.640        1.389      -10.286       14.053        9.548        8.206      197.488       91.172       67.342        0.348        0.018       80.652        6.463        0.006      332.974        1.987      869.738
12/23/2014  05:02:00     -102.017        2.836      -14.356       14.120        7.012        8.164      199.369       49.163       66.643        0.547        0.016      102.057        4.425        0.002      333.047        2.107      869.737
12/23/2014  05:03:00      -93.914        3.619      -14.876       22.748        9.811        8.398      517.456       96.246       70.529        0.487        0.034       93.983        6.906        0.005      333.093        2.183      869.728
12/23/2014  05:04:00      -79.493        2.060      -12.759       21.766       16.577       14.106      473.764      274.783      198.971        0.372        0.047       79.519       15.424        0.038      332.976        1.989      869.724
12/23/2014  05:05:00      -67.968      -25.412       -9.963       13.611       12.958        8.809      185.269      167.917       77.600        0.290        0.022       72.564        7.801        0.012      332.899        1.863      869.739
12/23/2014  05:06:00      -89.185      -22.134      -13.391       15.732       10.724        9.807      247.504      115.013       96.186        0.454        0.023       91.891        8.312        0.008      332.838        1.765      869.744
12/23/2014  05:07:00      -85.493      -14.741      -11.120       20.939       13.899       11.322      438.458      193.193      128.194        0.420        0.038       86.754        9.310        0.012      332.811        1.717      869.741
12/23/2014  05:08:00      -90.340      -12.440      -18.965       16.787       17.494       13.705      281.814      306.047      187.820        0.473        0.039       91.192       10.661        0.014      332.765        1.641      869.744
12/23/2014  05:09:00     -101.045       -8.459       -9.789       29.184       17.184       12.444      851.686      295.290      154.851        0.584        0.065      101.398       14.172        0.020      332.757        1.629      869.746
12/23/2014  05:10:00     -115.303       -3.036      -10.336       18.745       15.418       17.083      351.381      237.717      291.818        0.715        0.044      115.343       12.188        0.011      332.697        1.529      869.742
12/23/2014  05:11:00     -125.669       -7.097      -12.418       23.502       13.096       16.291      552.367      171.505      265.391        0.849        0.049      125.869       14.171        0.013      332.726        1.575      869.734
12/23/2014  05:12:00      -99.306      -14.007       -4.133       31.218       22.287       14.773      974.584      496.692      218.231        0.588        0.084      100.289       13.063        0.017      332.641        1.436      869.741
12/23/2014  05:13:00      -91.678      -27.116        2.138       30.385       21.027       18.369      923.235      442.119      337.413        0.542        0.085       95.604       16.394        0.029      332.598        1.363      869.740
12/23/2014  05:14:00      -82.561      -20.534        0.657       21.031       19.250       15.566      442.311      370.580      242.291        0.415        0.053       85.076       12.895        0.023      332.578        1.333      869.747
12/23/2014  05:15:00      -79.883       -2.978       -7.112       25.061       21.297       16.807      628.051      453.564      282.471        0.390        0.068       79.938       14.602        0.033      332.634        1.424      869.751
12/23/2014  05:16:00      -48.926        3.790       -1.149       26.189       23.945       15.166      685.888      573.352      230.006        0.195        0.074       49.073       12.456        0.064      332.752        1.620      869.756
12/23/2014  05:17:00      -54.453        8.103       -7.227       30.216       25.088       14.763      912.983      629.402      217.935        0.242        0.088       55.052       13.433        0.060      332.869        1.813      869.760
12/23/2014  05:18:00      -64.050        2.429      -11.893       19.815       14.588       11.846      392.626      212.810      140.334        0.250        0.037       64.096       10.059        0.025      333.022        2.065      869.758
12/23/2014  05:19:00      -71.125      -10.868      -14.000       16.699       20.007       10.688      278.873      400.278      114.240        0.308        0.040       71.951        7.878        0.012      332.869        1.811      869.760
12/23/2014  05:20:00      -73.395        0.556       -9.267       23.331       22.901       14.880      544.315      524.442      221.411        0.338        0.065       73.397       14.686        0.040      332.761        1.635      869.762
12/23/2014  05:21:00      -51.366       -6.335       -0.993       36.932       19.822       16.358     1363.960      392.915      267.595        0.235        0.101       51.755       17.294        0.112      332.751        1.617      869.763
12/23/2014  05:22:00      -89.496      -23.998       -5.386       34.758       25.217       16.814     1208.084      635.890      282.702        0.537        0.106       92.658       13.835        0.022      332.781        1.666      869.762
12/23/2014  05:23:00     -118.500      -17.620       -7.225       38.589       30.033       20.765     1489.132      902.010      431.165        0.861        0.141      119.803       20.479        0.029      332.724        1.573      869.748
12/23/2014  05:24:00      -89.716      -14.297       -5.128       40.233       31.830       18.315     1618.670     1013.163      335.437        0.562        0.148       90.848       18.036        0.039      332.673        1.489      869.736
12/23/2014  05:25:00      -78.124      -43.999       -6.030       20.853       24.178       14.210      434.843      584.588      201.933        0.465        0.061       89.662       11.188        0.016      332.717        1.561      869.717
12/23/2014  05:26:00      -72.106      -24.508       -2.093       37.289       33.410       15.455     1390.488     1116.222      238.863        0.427        0.137       76.157       12.596        0.027      332.713        1.556      869.704
12/23/2014  05:27:00      -90.671      -28.083       -6.618       28.980       32.464       18.902      839.853     1053.933      357.277        0.565        0.113       94.921       14.457        0.023      332.745        1.608      869.694
12/23/2014  05:28:00      -85.018      -41.560       -6.604       35.491       22.254       16.226     1259.610      495.242      263.288        0.551        0.101       94.633       13.323        0.020      332.789        1.681      869.689
12/23/2014  05:29:00      -80.591      -38.926       -5.127       24.920       26.744       14.711      620.985      715.268      216.415        0.479        0.078       89.499       11.796        0.017      332.792        1.687      869.695
12/23/2014  05:30:00      -62.512      -45.918       -8.533       47.047       20.678       21.103     2213.453      427.597      445.354        0.459        0.154       77.564       21.204        0.075      332.837        1.761      869.703
12/23/2014  05:31:00      -81.306      -41.528       -8.996       28.325       29.488       16.843      802.309      869.521      283.690        0.519        0.098       91.298       12.834        0.020      332.907        1.875      869.711
12/23/2014  05:32:00      -70.704      -28.972        1.392       40.693       36.009       19.055     1655.916     1296.662      363.091        0.458        0.166       76.410       17.110        0.050      332.912        1.884      869.723
12/23/2014  05:33:00      -58.089       -9.010       -3.166       36.649       32.171       20.966     1343.144     1034.973      439.589        0.314        0.141       58.784       16.999        0.084      332.964        1.969      869.723
12/23/2014  05:34:00     -108.762      -13.501       -6.315       43.730       31.618       22.922     1912.291      999.697      525.405        0.774        0.172      109.597       20.471        0.035      332.888        1.846      869.732
12/23/2014  05:35:00     -111.758        1.665       -7.663       66.323       36.551       26.419     4398.781     1335.989      697.943        0.949        0.322      111.770       33.843        0.092      332.884        1.838      869.745
12/23/2014  05:36:00     -111.408       -8.002       -9.532       41.607       43.426       24.277     1731.141     1885.839      589.392        0.839        0.210      111.695       20.191        0.033      332.909        1.879      869.772
12/23/2014  05:37:00     -167.097       36.670      -12.965       22.610       21.888       13.627      511.208      479.097      185.687        1.530        0.059      171.073        6.810        0.002      333.024        2.068      869.794
12/23/2014  05:38:00     -172.080       49.755      -16.971       26.974       30.268       17.837      727.599      916.124      318.167        1.717        0.098      179.129       10.475        0.003      333.073        2.148      869.822
12/23/2014  05:39:00     -145.892       21.898      -15.680       35.615       25.130       20.346     1268.395      631.531      413.949        1.216        0.116      147.526       17.513        0.014      333.054        2.117      869.831
12/23/2014  05:40:00     -100.400      -16.737      -12.205       33.868       30.802       17.881     1147.072      948.792      319.738        0.646        0.121      101.785       11.106        0.012      332.848        1.779      869.840
12/23/2014  05:41:00      -89.176      -23.097        1.365       45.615       23.329       21.226     2080.766      544.229      450.528        0.578        0.154       92.119       19.976        0.047      332.790        1.683      869.845
12/23/2014  05:42:00      -74.961      -38.857       -1.104       39.745       27.667       23.503     1579.684      765.436      552.389        0.501        0.145       84.434       23.404        0.077      332.845        1.775      869.854
12/23/2014  05:43:00      -33.976      -39.745        8.415       36.040       30.756       20.954     1298.907      945.938      439.068        0.274        0.134       52.288       19.251        0.136      332.906        1.873      869.862
12/23/2014  05:44:00      -46.551      -43.633        2.437       48.417       33.080       23.253     2344.246     1094.298      540.715        0.403        0.199       63.803       20.808        0.106      332.921        1.898      869.869
12/23/2014  05:45:00       -5.642      -22.786       18.265       34.653       24.739       20.910     1200.799      612.007      437.226        0.157        0.113       23.475       19.753        0.708      333.026        2.073      869.873
12/23/2014  05:46:00      -32.162      -45.270        7.853       47.373       22.019       17.691     2244.223      484.855      312.987        0.309        0.152       55.532       16.939        0.093      333.015        2.054      869.882
12/23/2014  05:47:00      -58.197      -59.600        5.230       27.796       27.717       18.641      772.600      768.227      347.488        0.443        0.094       83.301        6.044        0.005      333.007        2.041      869.879
12/23/2014  05:48:00      -79.585      -68.995       -9.135       37.016       36.222       28.312     1370.151     1312.010      801.551        0.733        0.174      105.328       23.612        0.050      333.017        2.057      869.886
12/23/2014  05:49:00      -99.702      -70.043       -2.193       34.289       29.752       19.191     1175.752      885.181      368.287        0.864        0.121      121.847        8.018        0.004      332.982        1.999      869.888
12/23/2014  05:50:00     -110.416      -81.622      -14.161       24.699       27.479       16.082      610.027      755.102      258.638        1.034        0.081      137.309       13.865        0.010      332.987        2.009      869.890
12/23/2014  05:51:00      -75.440      -42.366        4.392       53.461       26.619       22.054     2858.030      708.594      486.378        0.578        0.203       86.522       23.198        0.072      332.991        2.014      869.885
12/23/2014  05:52:00      -85.166      -51.473       -1.431       24.518       26.022       16.343      601.134      677.164      267.078        0.572        0.077       99.512        7.209        0.005      332.964        1.969      869.889
12/23/2014  05:53:00     -109.958      -58.210       -3.246       18.852       30.340       14.685      355.396      920.526      215.638        0.849        0.075      124.415        8.911        0.005      332.965        1.970      869.887
12/23/2014  05:54:00      -90.869      -53.750       -1.183       34.094       26.078       19.846     1162.412      680.043      393.864        0.669        0.112      105.575       19.774        0.035      332.964        1.968      869.886
12/23/2014  05:55:00      -49.246      -28.934        4.055       37.809       26.663       18.239     1429.494      710.902      332.669        0.288        0.124       57.117       15.837        0.077      332.921        1.898      869.888
12/23/2014  05:56:00      -67.484      -39.039       -3.161       27.418       22.759       11.301      751.757      517.951      127.713        0.374        0.070       77.962        9.913        0.016      332.943        1.935      869.890
12/23/2014  05:57:00      -68.042      -27.898       -1.163       22.659       21.544       14.408      513.424      464.140      207.578        0.330        0.059       73.539       14.446        0.039      332.950        1.947      869.895
12/23/2014  05:58:00      -83.494      -12.298       -7.943       13.900       12.922        9.945      193.215      166.972       98.910        0.382        0.023       84.395        6.603        0.006      332.975        1.987      869.909
12/23/2014  05:59:00      -84.083       -1.930       -5.546       34.293       14.693       10.504     1175.981      215.875      110.325        0.430        0.075       84.105       11.667        0.019      332.951        1.947      869.916
12/23/2014  06:00:00      -97.552      -12.791       -6.174       26.544       14.256       12.588      704.589      203.243      158.446        0.539        0.053       98.387       13.045        0.018      332.861        1.799      869.927
12/23/2014  06:01:00      -78.071      -10.770       -0.093       28.663       15.751       14.122      821.543      248.079      199.422        0.374        0.063       78.811       13.454        0.029      332.797        1.693      869.934
12/23/2014  06:02:00      -79.496      -20.079       -0.728       28.055       20.171       15.763      787.089      406.880      248.481        0.408        0.072       81.992       12.092        0.022      332.762        1.636      869.948
12/23/2014  06:03:00      -90.264      -15.369       -1.751       31.948       22.677       18.853     1020.672      514.259      355.439        0.514        0.095       91.563       15.695        0.029      332.725        1.574      869.962
12/23/2014  06:04:00     -115.199      -34.631        2.383       24.483       26.294       17.570      599.414      691.395      308.713        0.804        0.080      120.292       14.461        0.014      332.800        1.698      869.975
12/23/2014  06:05:00     -102.600      -32.878       -2.279       24.246       23.971       15.212      587.854      574.618      231.407        0.650        0.070      107.739       12.169        0.013      332.798        1.696      869.995
12/23/2014  06:06:00      -97.330      -30.413       -2.818       25.323       21.117       18.925      641.244      445.912      358.166        0.593        0.072      101.972       16.558        0.026      332.743        1.605      870.009
12/23/2014  06:07:00      -82.161      -35.770        2.228       22.847       20.815       15.771      521.986      433.279      248.721        0.462        0.060       89.610       13.615        0.023      332.742        1.602      870.021
12/23/2014  06:08:00      -79.554      -39.877       -4.242       18.689       14.914       12.069      349.291      222.417      145.658        0.433        0.036       88.989        9.597        0.012      332.854        1.788      870.035
12/23/2014  06:09:00      -73.195      -32.352        0.025       25.840       17.221       11.836      667.682      296.580      140.088        0.375        0.055       80.026        9.826        0.015      332.838        1.761      870.043
12/23/2014  06:10:00      -94.253      -33.086       -3.230       14.351       18.629       12.558      205.941      347.032      157.714        0.535        0.036       99.891        9.934        0.010      332.865        1.806      870.068
12/23/2014  06:11:00      -56.131      -23.143       -0.098       23.805       22.305       17.400      566.662      497.508      302.748        0.253        0.068       60.715       15.705        0.067      332.795        1.691      870.092
12/23/2014  06:12:00      -86.397      -10.090       -0.688       26.606       14.629       15.525      707.887      213.994      241.028        0.436        0.058       86.984       16.117        0.034      332.729        1.581      870.120
12/23/2014  06:13:00      -99.669      -25.942       -3.064       24.664       16.803       14.459      608.319      282.355      209.061        0.586        0.055      102.989       14.716        0.020      332.757        1.627      870.149
12/23/2014  06:14:00     -110.685      -43.119       -7.944       15.403       13.741       12.946      237.261      188.815      167.601        0.738        0.030      118.787       11.020        0.009      332.758        1.629      870.188
12/23/2014  06:15:00     -109.318      -40.794      -10.046       13.752        9.826        9.659      189.115       96.542       93.298        0.705        0.019      116.681        5.080        0.002      332.660        1.467      870.223
12/23/2014  06:16:00      -88.997      -26.886       -2.581       24.551       22.094       13.900      602.749      488.156      193.211        0.497        0.064       92.969       12.252        0.017      332.692        1.520      870.253
12/23/2014  06:17:00      -93.752      -50.415       -6.759       23.855       18.467       11.322      569.083      341.017      128.184        0.621        0.052      106.448        8.576        0.006      332.778        1.663      870.280
12/23/2014  06:18:00      -86.626      -25.284       -4.049       13.903       12.256        7.858      193.295      150.212       61.749        0.428        0.020       90.240        5.904        0.004      332.746        1.611      870.303
12/23/2014  06:19:00      -70.186      -43.059        1.350       18.853       18.458       12.972      355.439      340.699      168.262        0.382        0.043       82.342       11.773        0.020      332.795        1.690      870.329
12/23/2014  06:20:00      -57.288      -22.501       -0.538       12.772       12.571        6.645      163.116      158.027       44.152        0.208        0.018       61.549        4.972        0.007      332.743        1.605      870.352
12/23/2014  06:21:00      -39.710      -26.769       -0.303        8.069        9.567        4.986       65.111       91.532       24.857        0.124        0.009       47.890        3.352        0.005      332.745        1.607      870.374
12/23/2014  06:22:00      -50.540      -22.908       -6.727       11.956        6.296        5.659      142.946       39.642       32.022        0.167        0.011       55.490        4.182        0.006      332.797        1.696      870.395
12/23/2014  06:23:00      -58.995      -34.160       -2.058       11.948       12.329        8.718      142.762      152.011       76.008        0.251        0.019       68.171        7.311        0.012      332.722        1.571      870.414
12/23/2014  06:24:00      -35.108      -36.578        1.039       25.643       14.411       12.878      657.575      207.669      165.846        0.180        0.052       50.700       13.738        0.073      332.767        1.645      870.422
12/23/2014  06:25:00      -38.890      -18.063        2.810       13.212       10.633       11.730      174.561      113.052      137.587        0.114        0.021       42.880        8.982        0.044      332.698        1.530      870.435
12/23/2014  06:26:00      -74.222      -10.723       -7.085       13.185       15.031       10.803      173.849      225.923      116.711        0.310        0.026       74.992        8.634        0.013      332.719        1.563      870.452
12/23/2014  06:27:00      -72.534       -5.495       -2.208       26.784       14.601       14.813      717.394      213.194      219.437        0.322        0.058       72.742       13.674        0.035      332.684        1.506      870.467
12/23/2014  06:28:00      -83.725      -17.848       -7.273       18.002       14.470       12.231      324.088      209.372      149.593        0.403        0.034       85.606        8.505        0.010      332.710        1.548      870.474
12/23/2014  06:29:00      -50.010      -18.775       -2.464       25.453       20.433       14.747      647.880      417.518      217.461        0.207        0.064       53.418       13.311        0.062      332.661        1.468      870.476
12/23/2014  06:30:00      -50.067      -11.894       -0.250       20.724       16.805       12.080      429.485      282.391      145.923        0.175        0.043       51.460       10.150        0.039      332.676        1.494      870.478
12/23/2014  06:31:00      -50.112       -7.235        2.085       31.961       13.449       11.154     1021.474      180.881      124.404        0.195        0.066       50.632       12.521        0.061      332.750        1.618      870.483
12/23/2014  06:32:00      -44.662       -9.126        1.162       30.132       17.629       14.414      907.921      310.786      207.750        0.175        0.071       45.584       17.321        0.144      332.791        1.685      870.489
12/23/2014  06:33:00      -53.775      -23.446       -2.669       14.887       16.800        9.791      221.614      282.246       95.858        0.202        0.030       58.664        8.382        0.020      332.740        1.598      870.504
12/23/2014  06:34:00      -74.094      -22.800       -5.926       13.643       16.699       10.640      186.120      278.849      113.201        0.331        0.029       77.523        4.706        0.004      332.719        1.566      870.508
12/23/2014  06:35:00      -87.779      -18.408      -12.805       12.009       13.061        7.894      144.206      170.578       62.309        0.429        0.019       89.688        4.125        0.002      332.681        1.501      870.519
12/23/2014  06:36:00      -91.251      -30.015       -6.797       16.066       16.847       10.681      258.122      283.829      114.092        0.496        0.033       96.061        6.477        0.005      332.699        1.532      870.525
12/23/2014  06:37:00      -78.360      -30.993       -2.765       18.740       18.305       12.300      351.192      335.074      151.279        0.397        0.042       84.266       10.917        0.017      332.672        1.487      870.539
12/23/2014  06:38:00      -74.374      -36.867       -2.626       17.890       18.009       10.863      320.047      324.315      118.008        0.383        0.038       83.010        3.428        0.002      332.671        1.485      870.535
12/23/2014  06:39:00      -79.674      -19.858       -2.282       17.000       17.602       12.620      288.993      309.840      159.256        0.375        0.038       82.111        7.984        0.009      332.586        1.346      870.527
12/23/2014  06:40:00      -70.622      -42.572       -0.892       24.937       19.661       12.396      621.874      386.559      153.668        0.398        0.058       82.461       12.643        0.024      332.594        1.358      870.506
12/23/2014  06:41:00      -92.208      -43.301       -3.979       18.396       16.512       13.981      338.404      272.639      195.461        0.560        0.040      101.869        9.035        0.008      332.595        1.359      870.481
12/23/2014  06:42:00     -126.611      -50.441       -0.151       24.745       24.351       19.300      612.310      592.952      372.471        1.008        0.079      136.289       15.419        0.013      332.579        1.333      870.448
12/23/2014  06:43:00      -86.395      -44.139        6.548       31.742       21.805       19.195     1007.537      475.454      368.430        0.565        0.093       97.017       13.529        0.019      332.602        1.371      870.428
12/23/2014  06:44:00      -93.131      -89.917       -1.523       34.183       43.650       23.562     1168.488     1905.358      555.180        1.019        0.181      129.454       20.698        0.026      332.684        1.506      870.416
12/23/2014  06:45:00      -72.068      -47.224        4.755       52.861       35.796       24.365     2794.281     1281.332      593.665        0.606        0.233       86.162       20.871        0.059      332.712        1.553      870.410
12/23/2014  06:46:00      -60.618      -38.947        5.866       49.078       29.103       22.943     2408.679      847.008      526.375        0.450        0.189       72.051       20.453        0.081      332.749        1.615      870.406
12/23/2014  06:47:00      -74.323      -71.026       -2.859       45.253       36.330       29.308     2047.854     1319.847      858.973        0.740        0.211      102.804       25.812        0.063      332.785        1.674      870.398
12/23/2014  06:48:00      -63.126      -61.569       11.375       64.386       46.108       28.898     4145.588     2125.938      835.090        0.750        0.355       88.180       37.435        0.180      332.792        1.686      870.384
12/23/2014  06:49:00      -70.518      -74.979        4.112       49.791       39.623       24.452     2479.155     1569.968      597.905        0.763        0.232      102.930       24.068        0.055      332.738        1.596      870.380
12/23/2014  06:50:00      -91.058      -55.354       -5.503       44.443       28.420       23.209     1975.220      807.679      538.656        0.735        0.166      106.563       19.371        0.033      332.696        1.525      870.385
12/23/2014  06:51:00      -79.663      -63.645       -8.632       42.215       31.950       20.164     1782.090     1020.831      406.588        0.684        0.160      101.965       21.362        0.044      332.697        1.529      870.399
12/23/2014  06:52:00      -64.638      -58.882        2.597       26.121       33.409       15.575      682.318     1116.152      242.588        0.485        0.102       87.436       11.519        0.017      332.675        1.492      870.403
12/23/2014  06:53:00      -65.500      -30.202        0.540       22.096       24.164       17.163      488.244      583.918      294.583        0.328        0.068       72.128       14.449        0.040      332.669        1.481      870.389
12/23/2014  06:54:00      -68.058      -21.303       -3.384       23.571       19.602       14.910      555.612      384.250      222.304        0.313        0.058       71.315        8.070        0.013      332.673        1.490      870.377
12/23/2014  06:55:00      -74.925      -22.468        0.402       40.559       24.187       20.423     1645.026      585.019      417.086        0.438        0.132       78.222       17.904        0.052      332.580        1.335      870.359
12/23/2014  06:56:00      -74.584      -43.845      -17.507       21.879       13.590       13.549      478.682      184.689      183.578        0.432        0.042       86.517        8.698        0.010      332.666        1.478      870.361
12/23/2014  06:57:00      -18.575       -6.550        5.102       34.116       14.480       10.154     1163.882      209.670      103.107        0.095        0.074       19.696        6.358        0.104      332.598        1.365      870.358
12/23/2014  06:58:00      -52.462       24.406        0.899       18.065        6.991        8.449      326.338       48.879       71.391        0.190        0.022       57.861        5.153        0.008      332.538        1.263      870.360
12/23/2014  06:59:00      -25.406       16.991       -0.093       20.124        9.664       10.579      404.980       93.384      111.917        0.077        0.031       30.564        8.247        0.073      332.522        1.238      870.386
12/23/2014  07:00:00      -12.409        9.423       -2.181       12.258       12.768        6.429      150.254      163.011       41.337        0.030        0.018       15.581        6.334        0.165      332.497        1.198      870.398
12/23/2014  07:01:00        0.449       18.071        5.005       11.464        7.486        5.815      131.423       56.042       33.811        0.029        0.011       18.077        3.991        0.049      332.576        1.329      870.402
12/23/2014  07:02:00        6.868       13.457        6.142        9.939       10.037        5.585       98.787      100.746       31.195        0.025        0.012       15.109        4.952        0.107      332.637        1.429      870.399
12/23/2014  07:03:00       15.324       23.933       -0.096        6.418       15.014        4.992       41.192      225.433       24.925        0.055        0.015       28.418        5.337        0.035      332.658        1.462      870.400
12/23/2014  07:04:00       29.779       22.631        2.470       12.023       16.482       12.254      144.561      271.663      150.152        0.099        0.028       37.403       12.650        0.114      332.537        1.262      870.415
12/23/2014  07:05:00       30.414       29.951        1.825       15.226       14.307       11.765      231.821      204.698      138.410        0.120        0.029       42.686       11.943        0.078      332.466        1.147      870.427
12/23/2014  07:06:00       39.486       46.011        0.091       23.062       21.046       18.320      531.864      442.928      335.629        0.249        0.066       60.631       15.895        0.069      332.399        1.036      870.449
12/23/2014  07:07:00       18.045       36.525       -3.375       26.580       25.993       18.831      706.521      675.661      354.589        0.170        0.087       40.740       14.671        0.130      332.362        0.974      870.464
12/23/2014  07:08:00       19.443       42.933       -1.507       21.097       16.818       11.910      445.074      282.843      141.858        0.155        0.043       47.130        8.750        0.034      332.402        1.040      870.492
12/23/2014  07:09:00       21.373       44.743       -4.095       17.697       25.007       13.062      313.177      625.351      170.612        0.179        0.055       49.585       12.756        0.066      332.402        1.042      870.522
12/23/2014  07:10:00       32.216       80.013      -12.847       18.084       19.008       14.764      327.020      361.300      217.970        0.426        0.045       86.255       12.174        0.020      332.449        1.119      870.558
12/23/2014  07:11:00       26.068       96.158      -19.298       11.291       21.860       12.039      127.496      477.872      144.936        0.552        0.038       99.629       10.470        0.011      332.534        1.259      870.596
12/23/2014  07:12:00       25.373       90.276      -13.523       17.367       24.675       18.662      301.621      608.870      348.255        0.512        0.063       93.774       17.824        0.036      332.575        1.329      870.633
12/23/2014  07:13:00       24.619       80.997      -11.017       17.710       21.034       12.953      313.641      442.420      167.792        0.411        0.046       84.656        9.633        0.013      332.607        1.380      870.665
12/23/2014  07:14:00       25.807       41.461       -1.528       17.738       30.768       17.407      314.631      946.659      302.992        0.198        0.078       48.837       14.814        0.092      332.541        1.270      870.698
12/23/2014  07:15:00       18.020       64.650       -9.399       20.572       23.881       16.725      423.196      570.322      279.725        0.293        0.064       67.114       17.716        0.070      332.498        1.200      870.731
12/23/2014  07:16:00       23.324       47.301       -3.375       14.992       24.705       14.964      224.747      610.342      223.915        0.193        0.053       52.739       14.018        0.071      332.458        1.134      870.757
12/23/2014  07:17:00        9.212       20.806        1.928       20.134       26.332       13.223      405.377      693.374      174.849        0.090        0.064       22.754       15.114        0.441      332.435        1.096      870.773
12/23/2014  07:18:00        8.904       17.510        0.733       15.183       15.962       13.446      230.517      254.789      180.801        0.053        0.033       19.644       12.979        0.437      332.483        1.175      870.787
12/23/2014  07:19:00        8.242       14.160        0.249        8.525       12.264        8.996       72.668      150.416       80.926        0.029        0.015       16.384        8.217        0.251      332.546        1.278      870.787
12/23/2014  07:20:00       13.835       16.241       -1.307       10.455       26.191        9.571      109.301      685.980       91.604        0.067        0.044       21.335       12.910        0.366      332.613        1.389      870.788
12/23/2014  07:21:00        6.738       16.001       -1.447        8.153        8.881        7.176       66.464       78.874       51.492        0.025        0.010       17.362        4.717        0.074      332.664        1.474      870.791
12/23/2014  07:22:00       20.896        3.632       -2.773       11.361        6.073        7.133      129.083       36.880       50.884        0.034        0.011       21.210        4.446        0.044      332.738        1.595      870.795
12/23/2014  07:23:00       35.363       23.839       -2.249        8.071        8.986        6.740       65.137       80.742       45.430        0.101        0.010       42.648        4.348        0.010      332.750        1.618      870.801
12/23/2014  07:24:00       32.139       14.280        2.107        8.691       11.375        6.186       75.535      129.394       38.268        0.074        0.012       35.169        4.997        0.020      332.763        1.639      870.814
12/23/2014  07:25:00       21.197       21.750        3.674        8.089        7.343        6.282       65.424       53.925       39.464        0.055        0.008       30.371        4.446        0.021      332.739        1.597      870.819
12/23/2014  07:26:00       26.490       10.451        2.083        8.306        4.950        5.228       68.994       24.505       27.331        0.047        0.006       28.478        4.000        0.020      332.796        1.693      870.812
12/23/2014  07:27:00       32.399       15.062        9.766       12.573       11.055       10.418      158.071      122.216      108.544        0.088        0.019       35.729        5.402        0.023      332.793        1.688      870.804
12/23/2014  07:28:00       24.234       -2.021        3.825       20.809       14.393       12.087      432.999      207.151      146.106        0.070        0.039       24.318        6.778        0.078      332.783        1.673      870.789
12/23/2014  07:29:00        7.410       -5.087       13.593       13.090       12.401       12.024      171.340      153.783      144.572        0.037        0.023        8.988        9.484        1.114      332.771        1.652      870.773
12/23/2014  07:30:00        4.471      -25.598        0.684       20.457       33.319       17.708      418.475     1110.129      313.582        0.126        0.092       25.985       20.142        0.601      332.778        1.664      870.754
12/23/2014  07:31:00      -45.773      -32.620        0.796       23.757       25.014       20.309      564.376      625.682      412.446        0.238        0.080       56.207       22.658        0.163      332.846        1.775      870.740
12/23/2014  07:32:00      -50.625      -34.525        1.371       16.605       17.746       14.680      275.733      314.937      215.493        0.228        0.040       61.276       12.362        0.041      332.792        1.685      870.725
12/23/2014  07:33:00      -42.443      -18.985        2.471       21.158       20.716       18.432      447.644      429.158      339.742        0.169        0.061       46.496       15.729        0.114      332.643        1.438      870.718
12/23/2014  07:34:00      -33.681      -27.183        9.553       56.371       32.947       22.408     3177.637     1085.537      502.105        0.336        0.238       43.282       23.243        0.288      332.746        1.610      870.703
12/23/2014  07:35:00      -11.286      -28.179       20.410       34.698       26.904       19.388     1203.975      723.849      375.911        0.182        0.115       30.355       19.338        0.406      332.806        1.709      870.705
12/23/2014  07:36:00      -69.698      -54.713        1.087       56.448       31.762       21.472     3186.349     1008.847      461.066        0.625        0.233       88.607       22.972        0.067      332.828        1.744      870.714
12/23/2014  07:37:00      -68.600      -64.522       -0.429       47.164       46.985       31.106     2224.471     2207.585      967.584        0.713        0.270       94.176       13.517        0.021      332.837        1.761      870.728
12/23/2014  07:38:00      -93.600      -93.547        1.961       49.638       48.448       32.864     2463.941     2347.190     1080.020        1.170        0.295      132.333       30.610        0.054      332.832        1.752      870.741
12/23/2014  07:39:00      -88.920      -55.246        9.186       48.718       47.669       29.132     2373.424     2272.322      848.682        0.827        0.275      104.685       27.797        0.071      332.813        1.721      870.745
12/23/2014  07:40:00      -96.329      -72.323       -1.867       41.359       29.458       22.279     1710.545      867.781      496.356        0.879        0.154      120.457       24.403        0.041      332.830        1.750      870.738
12/23/2014  07:41:00     -100.256      -51.629        2.452       41.067       38.721       24.936     1686.522     1499.318      621.797        0.826        0.190      112.769       22.748        0.041      332.772        1.652      870.737
12/23/2014  07:42:00      -95.562      -45.169        4.188       50.630       46.382       24.044     2563.420     2151.267      578.105        0.824        0.265      105.699       28.425        0.072      332.751        1.617      870.743
12/23/2014  07:43:00     -103.253      -73.331      -16.999       44.077       35.885       22.806     1942.786     1287.719      520.129        1.004        0.188      126.644       19.551        0.024      332.744        1.606      870.742
12/23/2014  07:44:00     -112.143      -74.931       -5.851       46.271       36.990       23.230     2140.983     1368.295      539.648        1.114        0.202      134.872       21.330        0.025      332.756        1.627      870.724
12/23/2014  07:45:00     -108.432     -104.354       -0.960       59.880       41.130       30.390     3585.625     1691.702      923.531        1.442        0.310      150.490       25.459        0.029      332.702        1.537      870.711
12/23/2014  07:46:00     -105.288      -61.727        4.820       47.864       45.909       23.523     2290.928     2107.652      553.313        0.993        0.248      122.049       20.367        0.028      332.697        1.527      870.699
12/23/2014  07:47:00      -69.060      -46.907       -1.898       41.683       35.376       19.412     1737.486     1251.452      376.825        0.517        0.168       83.484       13.312        0.025      332.666        1.476      870.696
12/23/2014  07:48:00      -83.698      -27.895        9.627       51.241       49.348       32.148     2625.691     2435.184     1033.503        0.698        0.305       88.224       29.248        0.110      332.640        1.434      870.692
12/23/2014  07:49:00     -143.414      -50.725       -1.603       33.663       29.881       15.646     1133.195      892.898      244.809        1.271        0.114      152.120       10.329        0.005      332.551        1.285      870.710
12/23/2014  07:50:00     -122.861      -62.467       -6.423       30.831       35.179       24.013      950.526     1237.572      576.646        1.090        0.138      137.830       17.599        0.016      332.581        1.336      870.701
12/23/2014  07:51:00     -115.206      -57.347       -6.227       54.919       28.912       22.458     3016.146      835.920      504.341        1.048        0.218      128.690       27.587        0.046      332.556        1.295      870.691
12/23/2014  07:52:00      -99.831      -19.623       -4.769       33.332       28.226       15.535     1111.045      796.693      241.329        0.626        0.107      101.742       14.455        0.020      332.558        1.298      870.688
12/23/2014  07:53:00      -77.046      -11.352       -5.730       28.695       22.433       18.913      823.386      503.235      357.712        0.389        0.084       77.878       13.868        0.032      332.585        1.344      870.680
12/23/2014  07:54:00     -125.444       -0.076      -13.579       19.844       36.244       15.817      393.798     1313.656      250.172        0.894        0.098      125.444       13.955        0.012      332.483        1.176      870.683
12/23/2014  07:55:00      -74.586      -19.582       -8.623       24.405       23.364       17.250      595.583      545.853      297.569        0.373        0.072       77.114       12.564        0.027      332.521        1.236      870.692
12/23/2014  07:56:00      -97.239      -11.637       -3.566       25.636       22.535       16.887      657.197      507.807      285.164        0.553        0.073       97.933       13.803        0.020      332.510        1.218      870.697
12/23/2014  07:57:00     -138.717       -7.211      -16.807       39.433       40.958       20.038     1554.976     1677.594      401.533        1.160        0.182      138.904       14.888        0.011      332.530        1.251      870.705
12/23/2014  07:58:00      -80.036      -35.293       -7.578       40.190       28.000       21.511     1615.255      784.017      462.732        0.528        0.143       87.472       22.794        0.068      332.586        1.344      870.697
12/23/2014  07:59:00      -95.650       -1.786       -7.910       42.099       36.995       23.451     1772.344     1368.624      549.949        0.645        0.185       95.666       14.791        0.024      332.648        1.447      870.714
12/23/2014  08:00:00     -100.563       51.714      -24.086       33.640       27.370       24.531     1131.652      749.109      601.785        0.792        0.124      113.081       14.497        0.016      332.808        1.712      870.736
12/23/2014  08:01:00      -65.281       11.877       -8.171       24.277       26.968       20.161      589.362      727.270      406.449        0.310        0.086       66.353       15.793        0.057      332.819        1.731      870.758
12/23/2014  08:02:00      -53.424       35.025      -17.128       30.720       38.571       15.422      943.733     1487.713      237.845        0.352        0.133       63.882       11.703        0.034      332.902        1.868      870.771
12/23/2014  08:03:00      -51.028       24.746      -12.558       22.246       37.571       15.983      494.877     1411.612      255.449        0.277        0.108       56.711       16.838        0.088      333.006        2.040      870.787
12/23/2014  08:04:00      -30.881       35.181       -5.411       24.213       25.953       21.674      586.264      673.533      469.769        0.197        0.086       46.811       19.500        0.174      333.220        2.392      870.779
12/23/2014  08:05:00      -39.540      -15.729        1.141       23.461       21.864       14.093      550.424      478.054      198.611        0.152        0.061       42.554        9.108        0.046      333.088        2.173      870.774
12/23/2014  08:06:00       -7.469       31.468        0.365       20.504       17.958       17.813      420.409      322.488      317.291        0.105        0.053       32.342        8.323        0.066      333.392        2.675      870.763
12/23/2014  08:07:00       -5.438       -1.615       12.592       11.689       12.675       10.757      136.641      160.648      115.707        0.030        0.021        5.673        8.750        2.379      333.667        3.132      870.761
12/23/2014  08:08:00       -1.657      -18.451        2.934       11.857       17.281       16.480      140.590      298.630      271.604        0.053        0.036       18.526       10.141        0.300      333.543        2.925      870.756
12/23/2014  08:09:00       -3.051      -18.189       -2.261        8.978       14.784       10.260       80.598      218.572      105.261        0.037        0.020       18.443        3.673        0.040      333.371        2.640      870.764
12/23/2014  08:10:00       22.244       30.765       24.744       30.586       17.062       21.795      935.516      291.124      475.037        0.188        0.085       37.965       15.392        0.164      333.475        2.812      870.773
12/23/2014  08:11:00       81.337       38.781        3.150       29.365       23.934       21.845      862.285      572.817      477.212        0.502        0.096       90.109       12.929        0.021      333.334        2.581      870.803
12/23/2014  08:12:00       82.166       65.175       16.068       33.904       20.573       30.120     1149.510      423.235      907.200        0.687        0.124      104.876        9.505        0.008      333.326        2.568      870.823
12/23/2014  08:13:00       61.824       62.800       30.578       27.948       18.631       26.201      781.089      347.107      686.508        0.526        0.091       88.125       15.317        0.030      333.363        2.629      870.844
12/23/2014  08:14:00       28.664       50.138       37.388       22.873       26.759       22.852      523.191      716.023      522.235        0.325        0.088       57.753       17.073        0.087      333.515        2.880      870.859
12/23/2014  08:15:00       37.303       26.264       15.265       25.365       25.126       24.528      643.403      631.309      601.614        0.209        0.094       45.621       17.056        0.140      333.514        2.879      870.861
12/23/2014  08:16:00       35.922       23.006       26.978       40.151       34.244       25.239     1612.082     1172.621      637.023        0.298        0.171       42.658       23.571        0.305      333.605        3.029      870.859
12/23/2014  08:17:00       67.876       57.865       -2.243       19.567       18.989       19.596      382.853      360.596      384.019        0.454        0.056       89.194       10.930        0.015      333.379        2.654      870.878
12/23/2014  08:18:00       75.287       43.386       -1.250       17.163       12.502       14.329      294.582      156.297      205.319        0.410        0.033       86.893        2.830        0.001      333.383        2.660      870.915
12/23/2014  08:19:00       82.783       49.279        0.734       18.568       13.349       13.875      344.762      178.194      192.526        0.500        0.036       96.340        6.320        0.004      333.364        2.632      870.944
12/23/2014  08:20:00       66.276       48.409        3.501       11.006       18.497       13.560      121.141      342.134      183.870        0.370        0.032       82.073        9.584        0.014      333.383        2.661      870.974
12/23/2014  08:21:00       37.968       13.508       -5.504       14.593       15.764        8.590      212.962      248.514       73.791        0.109        0.027       40.299        5.676        0.020      333.522        2.891      870.989
12/23/2014  08:22:00        2.767       11.321        2.168       22.311        9.089       11.632      497.772       82.601      135.308        0.043        0.036       11.654       12.723        1.192      333.691        3.173      870.978
12/23/2014  08:23:00      -51.790       -7.014        1.892       26.002       15.949       10.422      676.087      254.362      108.613        0.189        0.052       52.263        6.681        0.016      333.644        3.095      870.965
12/23/2014  08:24:00      -51.228      -39.178        0.656       21.717       15.864       10.994      471.614      251.675      120.868        0.250        0.042       64.492        9.024        0.020      333.666        3.129      870.964
12/23/2014  08:25:00      -51.693      -14.422        2.726       20.052       26.050       15.816      402.070      678.600      250.154        0.211        0.067       53.667       15.837        0.087      333.764        3.292      870.983
12/23/2014  08:26:00      -31.925      -17.772        2.445       20.014       20.111       14.869      400.570      404.445      221.098        0.118        0.051       36.539       14.340        0.154      333.919        3.551      871.010
12/23/2014  08:27:00      -29.135       -2.918        2.731       22.941       15.925       15.175      526.281      253.594      230.289        0.094        0.051       29.280       12.310        0.177      333.889        3.499      871.023
12/23/2014  08:28:00      -36.886       -9.425        3.842       15.271       11.698        9.250      233.199      136.854       85.555        0.096        0.023       38.071        7.022        0.034      333.777        3.315      871.033
12/23/2014  08:29:00      -27.607      -19.855       -7.623       23.400       18.154       15.378      547.567      329.568      236.486        0.116        0.056       34.006        7.543        0.049      333.847        3.430      871.044
12/23/2014  08:30:00      -26.604      -24.452       11.240       41.303       25.278       20.509     1705.920      638.994      420.602        0.210        0.138       36.134       23.036        0.406      333.909        3.532      871.038
12/23/2014  08:31:00       -1.352       -2.013       11.937       23.203       16.647       18.992      538.398      277.107      360.715        0.066        0.059        2.425       11.033       20.706      334.079        3.816      871.021
12/23/2014  08:32:00      -46.591       27.015       -0.175       33.990       34.389       24.966     1155.330     1182.576      623.292        0.293        0.148       53.857       24.644        0.209      333.820        3.384      871.010
12/23/2014  08:33:00      -10.790       18.175        8.669       48.687       40.580       25.646     2370.449     1646.701      657.723        0.260        0.234       21.137        9.705        0.211      334.054        3.776      871.008
12/23/2014  08:34:00      -20.552        2.241       29.531       19.914       20.431       12.249      396.574      417.427      150.047        0.113        0.048       20.673       11.297        0.299      334.314        4.205      871.027
12/23/2014  08:35:00      -12.900       24.872       28.472       18.702       25.396       22.366      349.779      644.947      500.231        0.155        0.075       28.018       17.553        0.393      334.363        4.287      871.043
12/23/2014  08:36:00       -3.460       32.286       17.569       16.694       31.425       18.456      278.687      987.530      340.611        0.148        0.080       32.471       14.914        0.211      334.125        3.891      871.072
12/23/2014  08:37:00      -23.322        9.483       24.907       19.321       21.082       19.814      373.314      444.444      392.607        0.123        0.061       25.176       15.819        0.395      334.307        4.194      871.095
12/23/2014  08:38:00      -50.495       -4.774       11.462       24.625       25.034       21.351      606.408      626.710      455.881        0.220        0.084       50.720        6.722        0.018      334.137        3.911      871.110
12/23/2014  08:39:00      -31.321        0.661       10.496       26.276       26.917       20.759      690.408      724.530      430.920        0.147        0.092       31.328       14.910        0.227      334.089        3.832      871.139
12/23/2014  08:40:00      -36.105       25.029        8.415       26.921       18.817       13.361      724.727      354.083      178.511        0.163        0.063       43.932        6.093        0.019      334.030        3.735      871.160
12/23/2014  08:41:00      -14.557       24.298       30.795       14.148       19.217       15.515      200.153      369.310      240.727        0.128        0.041       28.325       10.303        0.132      334.520        4.549      871.174
12/23/2014  08:42:00      -34.520       -7.787        8.672       21.617       19.660       12.775      467.312      386.531      163.192        0.117        0.051       35.388       13.044        0.136      334.187        3.995      871.174
12/23/2014  08:43:00      -26.554      -27.183        8.661       40.885       26.842       21.593     1671.602      720.478      466.254        0.219        0.143       38.000       24.315        0.409      334.206        4.028      871.176
12/23/2014  08:44:00       40.047       -1.169        5.048       19.058       27.058       22.946      363.214      732.136      526.534        0.163        0.081       40.064       13.330        0.111      334.203        4.022      871.174
12/23/2014  08:45:00       28.923       -9.303       11.273       30.223       46.543       21.900      913.429     2166.270      479.593        0.230        0.178       30.382       20.798        0.469      334.263        4.121      871.169
12/23/2014  08:46:00       -0.905       23.513       50.460       11.353       25.665       14.483      128.887      658.683      209.764        0.205        0.050       23.531       15.424        0.430      334.746        4.922      871.171
12/23/2014  08:47:00        2.363       17.360       49.915       22.213       32.297       20.547      493.433     1043.099      422.178        0.238        0.098       17.520       17.047        0.947      334.595        4.671      871.178
12/23/2014  08:48:00       15.306       15.640       37.119       25.321       29.894       21.701      641.146      893.623      470.944        0.193        0.100       21.883       20.813        0.905      334.565        4.621      871.184
12/23/2014  08:49:00        1.478      -13.600       29.563       24.555       32.674       18.231      602.965     1067.601      332.379        0.153        0.100       13.680        8.521        0.388      334.580        4.645      871.198
12/23/2014  08:50:00       43.148       26.569       40.107       22.290       27.733       24.012      496.830      769.102      576.562        0.301        0.092       50.672       17.758        0.123      334.397        4.343      871.206
12/23/2014  08:51:00       25.904       16.407       25.144       31.400       29.593       24.654      985.956      875.763      607.818        0.202        0.123       30.663       25.904        0.714      334.555        4.606      871.221
12/23/2014  08:52:00       51.123       13.366       13.672       28.172       18.320       21.059      793.671      335.614      443.502        0.228        0.079       52.841       18.569        0.123      334.493        4.504      871.224
12/23/2014  08:53:00        2.061       49.944       54.128       18.257       27.500       14.301      333.301      756.241      204.513        0.336        0.065       49.986       11.088        0.049      334.686        4.822      871.207
12/23/2014  08:54:00        0.655       52.563       76.954       21.188       41.236       17.654      448.938     1700.385      311.662        0.557        0.123       52.567       22.249        0.179      334.736        4.905      871.201
12/23/2014  08:55:00       55.330       25.280       47.209       39.829       34.245       33.428     1586.322     1172.717     1117.445        0.490        0.194       60.831       30.672        0.254      334.371        4.300      871.194
12/23/2014  08:56:00       12.117       59.557       66.199       29.086       35.259       26.485      845.997     1243.201      701.445        0.543        0.140       60.777       25.393        0.175      334.582        4.649      871.193
12/23/2014  08:57:00       44.108       60.532       46.527       44.231       29.838       39.520     1956.391      890.303     1561.820        0.609        0.220       74.898       23.906        0.102      334.455        4.439      871.193
12/23/2014  08:58:00       19.423       24.948       46.767       22.595       25.748       15.058      510.512      662.939      226.756        0.229        0.070       31.618       10.121        0.102      334.783        4.984      871.198
12/23/2014  08:59:00       52.382       60.712       21.197       40.878       27.219       29.086     1671.024      740.892      845.997        0.507        0.163       80.186       22.656        0.080      334.631        4.731      871.203
12/23/2014  09:00:00       85.655       65.757        7.766       33.309       26.459       25.303     1109.478      700.105      640.257        0.709        0.122      107.986       17.730        0.027      334.434        4.405      871.207
12/23/2014  09:01:00       46.704       -8.132       11.877       37.779       59.386       26.149     1427.285     3526.676      683.772        0.401        0.282       47.407       29.099        0.377      334.484        4.487      871.218
12/23/2014  09:02:00       46.504      -28.197       12.313       31.930       30.883       35.112     1019.543      953.769     1232.871        0.316        0.160       54.385       24.363        0.201      334.686        4.821      871.214
12/23/2014  09:03:00        2.879       45.521       52.551       28.494       37.468       26.695      811.882     1403.865      712.597        0.388        0.146       45.612       19.400        0.181      334.835        5.070      871.206
12/23/2014  09:04:00       52.108       27.155       31.165       33.510       32.912       36.316     1122.929     1083.215     1318.841        0.397        0.176       58.759       32.689        0.309      334.508        4.527      871.215
12/23/2014  09:05:00       66.478       52.291       34.137       43.016       43.507       32.294     1850.385     1892.841     1042.921        0.655        0.239       84.580       24.602        0.085      334.696        4.838      871.206
12/23/2014  09:06:00       90.668       74.045       -0.189       26.201       24.324       22.152      686.485      591.656      490.714        0.774        0.088      117.061       12.602        0.012      334.489        4.496      871.196
12/23/2014  09:07:00       86.729       70.025        1.331       34.104       26.103       27.798     1163.096      681.386      772.735        0.752        0.131      111.470       21.412        0.037      334.455        4.439      871.188
12/23/2014  09:08:00       43.252       28.094       29.743       32.572       23.251       24.575     1060.951      540.625      603.921        0.287        0.110       51.575       13.727        0.071      334.793        5.000      871.166
12/23/2014  09:09:00       32.055       47.391       68.649       36.168       39.136       27.124     1308.109     1531.662      735.736        0.578        0.179       57.214       21.749        0.145      334.673        4.802      871.137
12/23/2014  09:10:00       48.609       65.768       54.316       51.162       35.012       45.645     2617.597     1225.808     2083.439        0.778        0.296       81.782       41.569        0.258      334.638        4.742      871.122
12/23/2014  09:11:00       11.680       42.958       54.866       27.859       32.753       33.031      776.127     1072.775     1091.080        0.397        0.147       44.517       27.180        0.373      334.874        5.134      871.116
12/23/2014  09:12:00        9.179       66.998       78.768       28.810       40.345       23.628      830.019     1627.714      558.301        0.690        0.151       67.624       23.391        0.120      334.831        5.062      871.118
12/23/2014  09:13:00       93.214       81.719       40.877       29.656       27.289       35.123      879.473      744.701     1233.603        0.995        0.143      123.963       22.726        0.034      334.567        4.625      871.122
12/23/2014  09:14:00       65.191       75.237       66.064       48.943       38.316       33.198     2395.445     1468.084     1102.118        0.962        0.248       99.551       24.570        0.061      334.721        4.880      871.108
12/23/2014  09:15:00        2.485        7.219       46.042       41.583       64.105       41.946     1729.120     4109.399     1759.432        0.489        0.380        7.634       35.871       22.076      334.866        5.122      871.106
12/23/2014  09:16:00       36.949      -68.815       17.085       43.339       63.461       39.239     1878.304     4027.276     1539.688        0.692        0.372       78.107       35.120        0.202      335.003        5.349      871.101
12/23/2014  09:17:00       51.506      -78.798       21.948       34.325       39.003       36.157     1178.183     1521.241     1307.349        0.667        0.200       94.138       32.157        0.117      334.818        5.041      871.092
12/23/2014  09:18:00       49.765      -46.991       12.954       35.399       50.111       34.127     1253.124     2511.081     1164.627        0.489        0.246       68.445       27.982        0.167      334.940        5.243      871.104
12/23/2014  09:19:00       -3.893       26.342       55.557       15.895       28.728       14.165      252.657      825.289      200.638        0.254        0.064       26.628       13.550        0.259      335.286        5.818      871.117
12/23/2014  09:20:00       10.567       59.223       58.366       35.046       25.508       22.488     1228.232      650.657      505.706        0.470        0.119       60.158       20.565        0.117      335.084        5.483      871.124
12/23/2014  09:21:00       67.035       66.910       50.403       36.661       29.504       24.692     1344.008      870.469      609.717        0.717        0.141       94.713        8.229        0.008      334.891        5.163      871.119
12/23/2014  09:22:00       14.705      -47.990        2.316       28.340       50.890       29.827      803.150     2589.782      889.621        0.340        0.214       50.193       34.656        0.477      335.017        5.372      871.114
12/23/2014  09:23:00       18.182      -72.173       -7.642       36.989       40.616       22.225     1368.159     1649.662      493.959        0.455        0.176       74.428       23.846        0.103      334.995        5.338      871.110
12/23/2014  09:24:00      -13.497       27.473       48.726       16.511       21.987       16.659      272.600      483.436      277.531        0.217        0.052       30.610       15.100        0.243      335.324        5.882      871.123
12/23/2014  09:25:00      -42.031       -3.157        2.263       25.203       27.413       15.364      635.167      751.480      236.055        0.170        0.081       42.149       16.770        0.158      334.844        5.086      871.118
12/23/2014  09:26:00      -45.737      -44.435        2.899       32.799       26.918       17.678     1075.791      724.568      312.509        0.309        0.106       63.768       16.018        0.063      334.784        4.985      871.127
12/23/2014  09:27:00      -50.612      -16.232        0.964       20.335       17.380       14.218      413.525      302.060      202.147        0.187        0.046       53.151       12.670        0.057      334.784        4.985      871.133
12/23/2014  09:28:00      -59.215      -23.558       -6.388       22.194       25.753       11.800      492.554      663.205      139.244        0.270        0.065       63.730        6.266        0.010      334.809        5.027      871.121
12/23/2014  09:29:00       -8.705        9.863        0.833       17.471       18.429       14.641      305.246      339.615      214.370        0.052        0.043       13.155       11.724        0.794      335.393        5.997      871.113
12/23/2014  09:30:00      -20.554        0.485        1.279       15.170       10.153       10.714      230.127      103.076      114.791        0.044        0.022       20.559        6.582        0.102      335.163        5.615      871.108
12/23/2014  09:31:00      -35.732      -20.397       -0.317       12.731       18.912        8.486      162.066      357.675       72.014        0.114        0.030       41.144        7.545        0.034      334.890        5.163      871.096
12/23/2014  09:32:00      -88.401      -40.325       -6.079       43.737       35.090       17.370     1912.949     1231.294      301.718        0.646        0.172       97.164        9.839        0.010      335.021        5.378      871.081
12/23/2014  09:33:00      -12.785       34.612       55.263       22.440       42.193       26.543      503.533     1780.237      704.550        0.370        0.149       36.898       22.212        0.362      335.654        6.432      871.069
12/23/2014  09:34:00      -17.304      -39.856       22.947       38.137       38.007       29.482     1454.399     1444.553      869.190        0.309        0.188       43.450       30.423        0.490      335.362        5.946      871.064
12/23/2014  09:35:00      -34.250      -83.642        0.586       37.587       61.436       32.219     1412.796     3774.399     1038.077        0.720        0.311       90.383       29.822        0.109      334.932        5.230      871.066
12/23/2014  09:36:00     -111.310     -102.473       -2.612       62.147       54.262       23.508     3862.296     2944.379      552.636        1.513        0.368      151.297       25.589        0.029      334.833        5.065      871.039
12/23/2014  09:37:00     -118.867      -84.532      -15.363       32.011       27.881       20.503     1024.726      777.347      420.364        1.187        0.111      145.860       12.046        0.007      334.750        4.928      871.011
12/23/2014  09:38:00      -46.220     -133.579       -9.991       27.837       43.014       17.345      774.916     1850.222      300.838        1.150        0.146      141.350       17.912        0.016      334.737        4.905      870.983
12/23/2014  09:39:00      -57.332      -70.056       -2.561       24.793       51.233       19.603      614.679     2624.824      384.268        0.591        0.181       90.525       13.565        0.022      334.788        4.992      870.946
12/23/2014  09:40:00      -93.507      -49.148        1.521       37.104       28.897       18.380     1376.697      835.065      337.820        0.685        0.127      105.637       16.973        0.026      334.893        5.167      870.932
12/23/2014  09:41:00      -55.698      -24.129        1.860       52.694       20.587       16.323     2776.664      423.836      266.446        0.358        0.173       60.700       11.482        0.036      334.992        5.331      870.937
12/23/2014  09:42:00      -56.583      -48.062       -0.513       38.994       36.359       19.932     1520.526     1321.950      397.278        0.438        0.162       74.240       18.071        0.059      335.024        5.384      870.945
12/23/2014  09:43:00      -26.984        1.320        4.724       23.007       19.510       16.948      529.310      380.635      287.243        0.097        0.060       27.017       12.389        0.210      335.443        6.081      870.957
12/23/2014  09:44:00      -74.467      -13.594       -6.319       26.692       25.926       19.303      712.488      672.139      372.596        0.376        0.088       75.697       14.004        0.034      335.298        5.839      870.972
12/23/2014  09:45:00      -47.046      -17.847       -3.187       24.012       25.413       19.350      576.555      645.802      374.421        0.207        0.080       50.317       11.080        0.048      335.291        5.827      870.977
12/23/2014  09:46:00      -36.915      -57.845       -0.244       24.873       43.787       13.844      618.646     1917.311      191.658        0.372        0.136       68.620       10.428        0.023      335.158        5.607      870.970
12/23/2014  09:47:00      -23.908      -90.338      -14.739       26.670       31.424       18.138      711.282      987.469      329.002        0.549        0.101       93.449       10.121        0.012      335.002        5.347      870.955
12/23/2014  09:48:00      -98.698      -29.561      -16.166       16.063       23.564       10.850      258.036      555.279      117.730        0.590        0.047      103.030        5.801        0.003      335.045        5.419      870.925
12/23/2014  09:49:00     -145.977      -15.573      -18.616       28.390       38.728       13.619      805.999     1499.896      185.475        1.219        0.125      146.805        7.652        0.003      335.074        5.468      870.897
12/23/2014  09:50:00      -42.492      -57.169        1.771       48.555       56.246       30.092     2357.580     3163.576      905.502        0.575        0.321       71.231       33.782        0.225      335.404        6.014      870.878
12/23/2014  09:51:00      -14.965      -43.971        4.536       21.812       42.733       22.503      475.772     1826.126      506.405        0.249        0.140       46.448       18.645        0.161      335.545        6.251      870.875
12/23/2014  09:52:00       -7.014       21.059       19.502       15.109       25.577       20.366      228.268      654.197      414.774        0.108        0.065       22.196        4.979        0.050      335.853        6.762      870.882
12/23/2014  09:53:00      -12.298      -29.947       12.007       40.463       46.873       29.468     1637.249     2197.078      868.354        0.295        0.235       32.374       31.746        0.962      335.721        6.545      870.883
12/23/2014  09:54:00        5.561      -63.442       -2.465       29.165       38.885       14.854      850.597     1512.053      220.641        0.332        0.129       63.685       11.500        0.033      335.561        6.277      870.891
12/23/2014  09:55:00       23.910       12.744       38.814       22.005       40.400       18.920      484.211     1632.133      357.958        0.236        0.124       27.094       19.954        0.542      335.877        6.803      870.893
12/23/2014  09:56:00       -6.734       -2.151       27.726       16.120       24.534       20.613      259.844      601.914      424.894        0.105        0.064        7.069       18.626        6.942      336.072        7.129      870.888
12/23/2014  09:57:00       29.697      -17.017       30.144       43.031       52.090       38.933     1851.691     2713.420     1515.786        0.408        0.304       34.227       24.803        0.525      335.867        6.788      870.889
12/23/2014  09:58:00       -2.209      -16.585       23.895       32.733       91.244       50.370     1071.450     8325.479     2537.090        0.639        0.597       16.732       57.283       11.721      335.792        6.660      870.888
12/23/2014  09:59:00       10.380      -31.824       40.651       35.546       61.930       44.609     1263.494     3835.271     1989.933        0.493        0.354       33.474       35.264        1.110      336.070        7.126      870.886
12/23/2014  10:00:00        1.186       42.779       82.437       24.960       45.632       23.024      623.012     2082.276      530.126        0.593        0.162       42.796       26.342        0.379      336.040        7.076      870.894
12/23/2014  10:01:00       37.401       29.270       24.963       41.100       43.057       43.554     1689.202     1853.904     1896.983        0.416        0.272       47.493       42.138        0.787      335.570        6.292      870.890
12/23/2014  10:02:00       40.383      -18.092       11.920       33.390       40.275       32.104     1114.871     1622.066     1030.697        0.293        0.188       44.251       21.346        0.233      335.804        6.682      870.876
12/23/2014  10:03:00        2.183       -5.964       56.888       39.192       82.077       44.166     1536.013     6736.616     1950.609        0.675        0.511        6.352       47.995       57.100      336.028        7.056      870.855
12/23/2014  10:04:00       38.829      -36.516       16.175       46.154       55.584       39.991     2130.177     3089.601     1599.241        0.496        0.341       53.302       39.229        0.542      336.001        7.009      870.843
12/23/2014  10:05:00       53.747      -78.268        4.316       52.629       41.415       34.392     2769.845     1715.177     1182.817        0.735        0.283       94.945       32.138        0.115      335.793        6.663      870.830
12/23/2014  10:06:00       17.860      -59.844       24.988       29.735       47.002       38.844      884.172     2209.212     1508.857        0.456        0.230       62.453       30.630        0.241      336.001        7.010      870.796
12/23/2014  10:07:00       12.808       12.516       53.152       33.589       45.009       35.472     1128.198     2025.768     1258.272        0.378        0.221       17.907       31.556        3.105      336.157        7.270      870.774
12/23/2014  10:08:00       29.797      -56.920       12.764       35.742       54.340       46.516     1277.520     2952.863     2163.717        0.534        0.320       64.248       41.181        0.411      336.016        7.035      870.741
12/23/2014  10:09:00       25.639       22.744       85.408       41.316       64.557       48.610     1707.032     4167.573     2362.968        0.835        0.412       34.274       48.952        2.040      336.001        7.011      870.709
12/23/2014  10:10:00       17.224       40.695       67.059       33.302       63.170       43.824     1109.038     3990.485     1920.525        0.673        0.351       44.190       46.981        1.130      335.938        6.905      870.687
12/23/2014  10:11:00        2.857       14.904       55.546       23.715       51.744       28.436      562.409     2677.441      808.610        0.368        0.202       15.175       28.655        3.565      336.399        7.674      870.677
12/23/2014  10:12:00      -11.334       19.270       48.812       27.494       62.553       43.301      755.937     3912.816     1874.998        0.471        0.327       22.356       44.568        3.974      336.063        7.114      870.672
12/23/2014  10:13:00      -17.378       15.599       22.916       20.464       21.193       26.673      418.775      449.136      711.427        0.132        0.079       23.352       16.284        0.486      336.245        7.418      870.673
12/23/2014  10:14:00       19.523       21.537       41.204       36.711       36.873       29.272     1347.723     1359.644      856.828        0.305        0.178       29.069       22.391        0.593      336.244        7.416      870.652
12/23/2014  10:15:00      -27.999       29.941       56.526       30.555       54.667       43.579      933.638     2988.461     1899.148        0.535        0.291       40.993       40.699        0.986      336.238        7.406      870.636
12/23/2014  10:16:00       -0.950       28.244       50.672       16.682       25.839       18.010      278.281      667.644      324.348        0.232        0.064       28.260       15.150        0.287      336.182        7.313      870.612
12/23/2014  10:17:00      -20.725       -2.803       21.362       15.433       26.280       22.126      238.167      690.621      489.539        0.116        0.071       20.913       21.268        1.034      336.203        7.347      870.584
12/23/2014  10:18:00      -60.835      -45.957        1.105       20.887       21.263       17.899      436.278      452.099      320.384        0.351        0.060       76.242       13.708        0.032      335.795        6.667      870.552
12/23/2014  10:19:00      -27.339       -1.984        2.028       25.521       28.879       27.471      651.326      833.973      754.681        0.150        0.112       27.410       19.061        0.484      336.193        7.331      870.515
12/23/2014  10:20:00       26.400       40.292       19.732       28.069       35.290       35.449      787.872     1245.379     1256.647        0.300        0.164       48.171       15.589        0.105      336.078        7.139      870.468
12/23/2014  10:21:00       17.981       69.772       11.024       56.397       41.945       28.874     3180.667     1759.405      833.689        0.554        0.289       72.052       15.191        0.044      335.887        6.819      870.407
12/23/2014  10:22:00      -42.210        0.508      -10.170       36.848       46.181       26.744     1357.790     2132.675      715.222        0.304        0.210       42.213       23.929        0.321      336.097        7.171      870.351
12/23/2014  10:23:00       19.530        2.108       32.255       38.990       54.323       51.704     1520.206     2950.955     2673.286        0.428        0.357       19.644       38.238        3.789      336.298        7.505      870.311
12/23/2014  10:24:00      -15.977       14.207       18.980       28.769       31.774       26.767      827.631     1009.614      716.454        0.169        0.128       21.380       19.103        0.798      336.463        7.781      870.278
12/23/2014  10:25:00       32.592       27.983       55.441       46.014       45.542       42.524     2117.270     2074.099     1808.271        0.546        0.300       42.956       35.876        0.698      336.288        7.489      870.277
12/23/2014  10:26:00       43.322       47.352       55.337       51.981       35.311       31.447     2701.975     1246.875      988.932        0.606        0.247       64.180       26.511        0.171      336.165        7.283      870.268
12/23/2014  10:27:00       50.152       57.692       47.638       37.778       33.649       33.114     1427.187     1132.254     1096.555        0.588        0.183       76.443       18.231        0.057      336.026        7.052      870.284
12/23/2014  10:28:00       88.845       56.275       14.048       36.879       31.375       34.019     1360.085      984.421     1157.260        0.738        0.175      105.168       20.373        0.038      336.169        7.290      870.289
12/23/2014  10:29:00      133.745      102.690       43.521       45.569       42.137       31.907     2076.530     1775.515     1018.035        1.760        0.244      168.621       23.023        0.019      335.891        6.826      870.308
12/23/2014  10:30:00       30.574       73.031       83.277       56.027       57.044       43.841     3139.056     3253.998     1922.055        1.076        0.416       79.173       30.194        0.145      336.473        7.798      870.291
12/23/2014  10:31:00       71.554       28.054       45.048       42.340       37.933       34.456     1792.688     1438.920     1187.182        0.618        0.221       76.857       29.269        0.145      336.065        7.117      870.295
12/23/2014  10:32:00       33.239       23.487       47.959       40.587       55.337       34.083     1647.304     3062.136     1161.685        0.491        0.294       40.700       36.071        0.785      336.409        7.691      870.274
12/23/2014  10:33:00       28.149       -3.302       18.485       58.618       55.507       43.682     3436.012     3081.024     1908.083        0.478        0.421       28.342       33.670        1.411      336.456        7.771      870.269
12/23/2014  10:34:00       64.189      -47.614       38.042       44.741       71.035       44.418     2001.756     5045.973     1972.943        0.843        0.451       79.921       37.318        0.218      336.392        7.663      870.270
12/23/2014  10:35:00       67.859       50.402       55.629       60.838       64.878       48.302     3701.266     4209.128     2333.083        1.024        0.512       84.529       51.435        0.370      336.235        7.400      870.270
12/23/2014  10:36:00       78.147        6.418       42.026       38.970       68.352       45.674     1518.643     4672.026     2086.092        0.809        0.414       78.410       48.516        0.383      335.998        7.006      870.268
12/23/2014  10:37:00       95.855       66.389       44.279       70.516       46.396       58.405     4972.545     2152.614     3411.121        1.304        0.527      116.601       52.669        0.204      336.215        7.367      870.234
12/23/2014  10:38:00       58.831       49.336       35.075       49.073       54.198       38.877     2408.204     2937.407     1511.407        0.699        0.343       76.779       38.261        0.248      336.397        7.672      870.214
12/23/2014  10:39:00       64.269       53.156       18.135       41.986       32.754       38.436     1762.858     1072.826     1477.311        0.580        0.216       83.403       15.515        0.035      336.603        8.016      870.181
12/23/2014  10:40:00       80.569       83.427        9.392       58.499       36.397       33.325     3422.175     1324.744     1110.537        0.970        0.293      115.981       22.969        0.039      336.147        7.253      870.169
12/23/2014  10:41:00       19.082       21.080       14.485       20.018       29.124       29.498      400.734      848.183      870.148        0.157        0.106       28.434       22.268        0.613      336.400        7.675      870.141
12/23/2014  10:42:00       45.320       42.801       22.044       20.847       24.609       21.060      434.580      605.604      443.517        0.293        0.074       62.336       10.616        0.029      336.380        7.643      870.120
12/23/2014  10:43:00       22.128       39.920       51.531       35.452       38.205       29.316     1256.860     1459.614      859.413        0.416        0.179       45.642       27.378        0.360      336.703        8.181      870.092
12/23/2014  10:44:00       34.452       57.913       71.601       49.266       51.512       41.228     2427.180     2653.533     1699.787        0.822        0.339       67.386       40.138        0.355      336.601        8.014      870.062
12/23/2014  10:45:00       45.573       63.448       29.706       53.122       36.369       42.526     2821.930     1322.721     1808.486        0.647        0.298       78.119       31.658        0.164      336.510        7.860      870.043
12/23/2014  10:46:00       60.082       88.567       76.173       45.801       37.434       40.127     2097.688     1401.330     1610.204        1.118        0.255      107.023       26.245        0.060      336.507        7.855      870.028
12/23/2014  10:47:00      106.012       82.717       70.009       64.846       42.973       48.720     4205.037     1846.638     2373.621        1.570        0.421      134.464       36.085        0.072      336.251        7.427      870.035
12/23/2014  10:48:00      130.310       68.150       37.691       57.111       49.712       50.713     3261.690     2471.257     2571.785        1.567        0.415      147.055       32.497        0.049      336.141        7.242      870.035
12/23/2014  10:49:00       91.051       64.418       44.091       50.414       36.394       37.221     2541.556     1324.540     1385.408        0.982        0.263      111.534       24.670        0.049      336.242        7.410      870.020
12/23/2014  10:50:00       61.184       67.478        8.109       47.294       40.662       31.246     2236.713     1653.371      976.310        0.661        0.243       91.087       19.415        0.045      336.494        7.833      870.006
12/23/2014  10:51:00       89.611       67.049       -3.487       36.805       37.171       30.576     1354.623     1381.701      934.883        0.810        0.184      111.919       19.389        0.030      336.427        7.722      869.993
12/23/2014  10:52:00        7.687       35.557       30.828       34.355       26.010       30.159     1180.277      676.519      909.558        0.252        0.138       36.378       11.482        0.100      336.899        8.511      869.986
12/23/2014  10:53:00       33.262       46.952       39.738       41.240       28.358       32.375     1700.757      804.201     1048.163        0.422        0.178       57.540       26.162        0.207      336.503        7.850      869.958
12/23/2014  10:54:00       59.425       74.541       47.834       64.330       43.885       37.445     4138.324     1925.896     1402.159        0.942        0.373       95.329       38.975        0.167      336.678        8.141      869.946
12/23/2014  10:55:00       98.250       53.990       -7.736       51.625       36.946       35.884     2665.147     1364.986     1287.668        0.897        0.266      112.107       21.730        0.038      336.595        8.003      869.938
12/23/2014  10:56:00       77.527       73.280        7.299       53.601       47.551       38.229     2873.024     2261.106     1461.446        0.901        0.330      106.679       20.383        0.037      336.741        8.247      869.918
12/23/2014  10:57:00      159.311       92.513       -3.677       41.049       29.135       41.007     1684.996      848.822     1681.551        1.908        0.211      184.224       28.821        0.024      336.369        7.624      869.918
12/23/2014  10:58:00       72.747      101.448       38.889       56.047       35.304       44.958     3141.222     1246.384     2021.249        1.175        0.320      124.836       39.454        0.100      336.484        7.815      869.913
12/23/2014  10:59:00       66.580       15.205       26.935       67.263       31.208       48.916     4524.300      973.964     2392.774        0.664        0.395       68.294       29.227        0.183      336.560        7.945      869.924
12/23/2014  11:00:00       76.021       50.099       33.195       53.276       29.211       36.566     2838.370      853.294     1337.043        0.721        0.251       91.045       28.781        0.100      336.596        8.004      869.946
12/23/2014  11:01:00       27.511       44.336       21.218       35.818       27.700       31.842     1282.909      767.316     1013.886        0.312        0.153       52.178       20.601        0.156      336.779        8.309      869.955
12/23/2014  11:02:00       30.702       52.719       -0.967       32.293       28.128       25.155     1042.834      791.192      632.785        0.309        0.123       61.008       10.052        0.027      336.639        8.077      869.984
12/23/2014  11:03:00       49.081       39.274       47.182       39.123       42.637       21.882     1530.599     1817.907      478.823        0.500        0.191       62.860       18.930        0.091      336.855        8.436      869.997
12/23/2014  11:04:00       16.300       42.372       47.826       31.200       42.551       40.476      973.470     1810.571     1638.337        0.438        0.221       45.399       35.122        0.599      337.116        8.873      870.009
12/23/2014  11:05:00       44.570       63.757       14.044       39.006       33.745       37.557     1521.480     1138.712     1410.548        0.516        0.204       77.791       24.171        0.097      336.825        8.387      870.015
12/23/2014  11:06:00       45.188       94.219      -20.686       24.603       37.103       19.530      605.313     1376.667      381.422        0.685        0.118      104.495       16.395        0.025      336.662        8.114      870.022
12/23/2014  11:07:00        7.175       32.779       -2.940       22.565       20.427       20.114      509.160      417.256      404.569        0.123        0.067       33.555       12.983        0.150      336.827        8.390      870.028
12/23/2014  11:08:00      -17.401      124.573       -8.691       24.314       43.188       21.929      591.185     1865.225      480.893        0.942        0.147      125.782       14.161        0.013      336.699        8.177      870.024
12/23/2014  11:09:00      -18.069       85.228      -11.192       31.664       39.032       35.585     1002.624     1523.461     1266.270        0.575        0.190       87.123       25.323        0.084      336.868        8.458      870.028
12/23/2014  11:10:00       -8.745       28.904        7.252       23.684       28.235       23.203      560.950      797.206      538.397        0.143        0.095       30.198       18.132        0.361      337.351        9.267      870.024
12/23/2014  11:11:00       15.668       63.376       -0.701       29.763       28.847       25.010      885.855      832.127      625.476        0.330        0.117       65.284       22.502        0.119      337.297        9.176      870.017
12/23/2014  11:12:00       30.489       71.217        7.209       46.082       38.630       29.988     2123.530     1492.278      899.290        0.528        0.226       77.469       14.966        0.037      337.282        9.152      870.011
12/23/2014  11:13:00       47.109       78.093       71.790       60.828       47.347       59.660     3700.000     2241.714     3559.316        1.148        0.475       91.201       31.578        0.120      337.313        9.203      869.988
12/23/2014  11:14:00       57.193       87.145       82.460       53.816       47.650       50.278     2896.179     2270.566     2527.927        1.268        0.385      104.237       44.036        0.178      337.078        8.810      869.982
12/23/2014  11:15:00       25.706       70.582       70.195       43.565       36.085       40.632     1897.909     1302.142     1650.922        0.771        0.243       75.117       34.800        0.215      337.278        9.145      869.948
12/23/2014  11:16:00       14.777       95.530      107.093       43.510       51.347       29.723     1893.105     2636.482      883.441        1.311        0.271       96.666       30.189        0.098      337.205        9.022      869.926
12/23/2014  11:17:00       33.554       72.680       68.271       61.878       40.936       43.766     3828.835     1675.781     1915.502        0.924        0.371       80.052       39.819        0.247      337.228        9.061      869.902
12/23/2014  11:18:00       91.502       66.631        0.318       37.320       40.055       29.346     1392.817     1604.365      861.197        0.833        0.193      113.191       24.145        0.046      336.979        8.644      869.883
12/23/2014  11:19:00       31.883       54.595       -2.345       41.709       35.219       27.609     1739.608     1240.387      762.244        0.387        0.187       63.223       24.041        0.145      337.059        8.779      869.850
12/23/2014  11:20:00       33.943       46.512        8.525       33.636       33.032       22.904     1131.360     1091.099      524.572        0.307        0.137       57.580       21.543        0.140      337.132        8.902      869.820
12/23/2014  11:21:00       33.907       22.229        0.699       19.941       25.888       19.538      397.655      670.201      381.741        0.155        0.072       40.544       11.247        0.077      337.107        8.857      869.793
12/23/2014  11:22:00       17.156        4.250        7.497       32.412       29.701       30.061     1050.552      882.156      903.638        0.160        0.142       17.674       19.938        1.273      337.412        9.369      869.767
12/23/2014  11:23:00       29.820       70.784       89.731       45.196       51.983       29.178     2042.696     2702.245      851.353        0.977        0.280       76.809       25.223        0.108      337.471        9.469      869.740
12/23/2014  11:24:00       73.297       79.510       75.380       88.744       58.874       48.124     7875.417     3466.149     2315.953        1.551        0.683      108.140       34.690        0.103      337.415        9.373      869.720
12/23/2014  11:25:00      120.099      146.414      117.799       83.193       59.715       58.496     6921.033     3565.913     3421.747        3.182        0.695      189.369       49.364        0.068      337.298        9.174      869.710
12/23/2014  11:26:00      166.327       81.233       24.844       62.269       55.559       55.555     3877.464     3086.818     3086.304        2.246        0.503      185.104       28.500        0.024      337.141        8.913      869.721
12/23/2014  11:27:00       31.217       65.369       41.346       46.101       55.792       40.182     2125.283     3112.704     1614.569        0.690        0.343       72.440       25.000        0.119      337.661        9.785      869.708
12/23/2014  11:28:00      115.548       78.167       46.614       41.236       28.544       35.170     1700.439      814.759     1236.909        1.269        0.188      139.504       15.617        0.013      337.350        9.263      869.709
12/23/2014  11:29:00       57.872       39.494       20.794       48.448       28.579       31.321     2347.167      816.785      980.986        0.474        0.207       70.064       23.269        0.110      337.345        9.255      869.701
12/23/2014  11:30:00       58.416       66.137        9.473       40.375       55.926       35.868     1630.123     3127.757     1286.486        0.696        0.302       88.242       21.515        0.059      337.575        9.642      869.702
12/23/2014  11:31:00       32.800      105.927       -0.030       46.119       67.569       41.970     2126.941     4565.520     1761.440        1.037        0.423      110.889       40.367        0.133      337.341        9.250      869.697
12/23/2014  11:32:00       95.514      104.522       81.590       61.830       57.182       58.295     3822.918     3269.730     3398.349        1.860        0.525      141.590       52.175        0.136      337.542        9.586      869.693
12/23/2014  11:33:00       55.433       63.479       66.264       76.662       72.693       48.255     5877.070     5284.284     2328.523        1.249        0.674       84.276       50.819        0.364      337.652        9.771      869.693
12/23/2014  11:34:00      147.006       99.989       59.366       63.978       40.289       42.330     4093.230     1623.168     1791.825        2.132        0.375      177.788       34.655        0.038      337.332        9.233      869.682
12/23/2014  11:35:00       83.516      102.401       85.481       80.278       33.160       55.129     6444.483     1099.589     3039.256        1.767        0.529      132.140       53.416        0.163      337.336        9.240      869.657
12/23/2014  11:36:00      122.921       90.665       25.377       56.978       30.009       32.353     3246.483      900.546     1046.721        1.458        0.260      152.741       14.922        0.010      337.278        9.142      869.645
12/23/2014  11:37:00       44.239       59.542       58.823       61.430       36.380       52.603     3773.592     1323.508     2767.085        0.841        0.393       74.178       42.726        0.332      337.628        9.729      869.632
12/23/2014  11:38:00       20.574        3.443       24.625       44.782       43.759       33.654     2005.458     1914.824     1132.596        0.305        0.253       20.860       13.914        0.445      337.604        9.690      869.606
12/23/2014  11:39:00       18.275       45.435       64.727       36.677       37.089       23.907     1345.193     1375.570      571.539        0.494        0.165       48.973       21.096        0.186      337.653        9.773      869.577
12/23/2014  11:40:00       46.065       33.948       22.595       40.664       40.659       29.104     1653.569     1653.177      847.024        0.397        0.208       57.223       24.264        0.180      337.619        9.715      869.550
12/23/2014  11:41:00       80.263       94.089       61.706       48.260       49.372       54.613     2328.996     2437.605     2982.527        1.342        0.387      123.673       43.457        0.123      337.745        9.926      869.516
12/23/2014  11:42:00      128.644       77.270       47.768       84.800       48.984       60.282     7191.040     2399.450     3633.872        1.901        0.661      150.066       41.774        0.077      337.490        9.498      869.498
12/23/2014  11:43:00       61.570       99.393       79.420       65.144       57.391       58.338     4243.745     3293.675     3403.364        1.546        0.547      116.918       35.429        0.092      337.826       10.061      869.489
12/23/2014  11:44:00       60.925       86.162       63.603       70.447       41.281       47.057     4962.715     1704.131     2214.371        1.203        0.444      105.526       40.839        0.150      337.600        9.683      869.483
12/23/2014  11:45:00       69.899       82.913       43.122       46.080       49.250       49.167     2123.380     2425.589     2417.407        1.029        0.348      108.446       41.126        0.144      337.449        9.431      869.477
12/23/2014  11:46:00       13.024       34.604       26.460       26.812       27.803       24.653      718.899      773.006      607.754        0.208        0.105       36.974       14.623        0.156      337.877       10.148      869.462
12/23/2014  11:47:00       74.073       35.938       36.015       60.244       46.183       40.922     3629.301     2132.864     1674.650        0.775        0.372       82.331       43.236        0.276      337.797       10.014      869.444
12/23/2014  11:48:00       52.638       96.668      -18.541       41.363       25.055       23.340     1710.902      627.748      544.753        0.767        0.144      110.071       17.641        0.026      337.311        9.198      869.416
12/23/2014  11:49:00       40.688       33.437        1.680       29.729       26.550       30.251      883.807      704.924      915.117        0.264        0.125       52.664        4.444        0.007      337.604        9.689      869.385
12/23/2014  11:50:00       42.313       88.285       87.266       66.241       49.706       70.341     4387.830     2470.685     4947.869        1.450        0.590       97.901       61.904        0.400      337.788       10.000      869.368
12/23/2014  11:51:00       39.560       61.642      103.148       52.195       69.999       41.712     2724.270     4899.868     1739.855        1.268        0.468       73.244       44.048        0.362      337.833       10.075      869.338
12/23/2014  11:52:00       14.914       41.753       54.490       34.817       53.513       31.121     1212.233     2863.613      968.503        0.499        0.252       44.336       28.578        0.415      338.113       10.545      869.304
12/23/2014  11:53:00       74.129       70.489       34.695       66.162       43.859       57.960     4377.416     1923.613     3359.370        1.066        0.483      102.292       53.237        0.271      337.706        9.862      869.284
12/23/2014  11:54:00       54.355       49.208       39.265       46.228       30.444       27.581     2136.982      926.836      760.731        0.537        0.191       73.320       22.210        0.092      337.780        9.985      869.262
12/23/2014  11:55:00       34.730       34.427       33.219       42.909       35.082       39.348     1841.170     1230.733     1548.265        0.406        0.231       48.902       32.841        0.451      337.987       10.333      869.214
12/23/2014  11:56:00       28.623       70.338       69.535       42.568       54.389       45.027     1812.042     2958.129     2027.413        0.870        0.340       75.938       38.859        0.262      338.208       10.703      869.180
12/23/2014  11:57:00       22.737       80.625       88.874       45.846       56.699       59.291     2101.811     3214.750     3515.390        1.187        0.442       83.770       38.451        0.211      337.940       10.253      869.165
12/23/2014  11:58:00       87.499       96.708       91.582       55.540       51.564       52.178     3084.742     2658.819     2722.569        1.693        0.423      130.416       42.330        0.105      337.654        9.773      869.136
12/23/2014  11:59:00       13.080        5.575       57.520       32.911       38.455       35.769     1083.155     1478.778     1279.423        0.368        0.192       14.219       28.317        3.966      338.198       10.687      869.103
12/23/2014  12:00:00       38.343      -76.891       22.004       51.448       84.533       49.024     2646.915     7145.912     2403.331        1.003        0.610       85.921       51.862        0.364      338.019       10.387      869.060
12/23/2014  12:01:00       35.783      -30.836       51.640       60.679       60.935       52.177     3681.890     3713.015     2722.409        0.751        0.506       47.236       46.058        0.951      338.064       10.463      869.026
12/23/2014  12:02:00       12.186       17.244       45.752       31.764       60.613       45.827     1008.947     3673.976     2100.109        0.466        0.339       21.116       44.420        4.425      338.152       10.610      868.980
12/23/2014  12:03:00        3.191        7.718       36.311       30.849       48.454       26.821      951.674     2347.788      719.379        0.270        0.201        8.351       21.004        6.326      338.400       11.027      868.954
12/23/2014  12:04:00       65.979       45.113       17.134       59.211       36.403       47.548     3505.993     1325.190     2260.773        0.689        0.355       79.928       15.788        0.039      338.180       10.657      868.953
12/23/2014  12:05:00      100.793       79.909        6.246       41.691       40.067       35.306     1738.177     1605.377     1246.542        1.059        0.230      128.626       23.833        0.034      337.807       10.029      868.939
12/23/2014  12:06:00       64.874       67.184        4.776       47.711       39.387       27.335     2276.317     1551.371      747.221        0.666        0.229       93.393       14.260        0.023      337.760        9.953      868.917
12/23/2014  12:07:00       37.545       78.311        1.440       41.466       61.927       28.820     1719.446     3834.922      830.576        0.696        0.319       86.846       14.363        0.027      337.922       10.224      868.921
12/23/2014  12:08:00       40.340       76.115        5.845       64.247       62.927       44.584     4127.678     3959.825     1987.718        0.876        0.504       86.144       36.505        0.180      337.903       10.191      868.917
12/23/2014  12:09:00       97.795       56.598       29.064       56.946       43.951       39.644     3242.851     1931.684     1571.666        1.018        0.337      112.992       30.824        0.074      337.983       10.327      868.902
12/23/2014  12:10:00       48.767       39.751       68.573       61.319       46.571       37.256     3760.016     2168.833     1388.011        0.799        0.366       62.916       29.639        0.222      338.309       10.873      868.899
12/23/2014  12:11:00       17.063       53.115       83.147       32.738       61.131       34.391     1071.752     3737.032     1182.720        0.801        0.300       55.788       39.463        0.500      338.163       10.627      868.894
12/23/2014  12:12:00       44.018       93.659        0.632       33.553       38.600       40.005     1125.817     1489.995     1600.402        0.746        0.211      103.487       28.921        0.078      337.821       10.055      868.881
12/23/2014  12:13:00       -3.403       57.547      -14.582       17.653       19.592       15.989      311.644      383.866      255.662        0.224        0.048       57.647        6.442        0.012      337.630        9.733      868.863
12/23/2014  12:14:00       -9.177       34.980       -7.155       15.927       22.353       21.215      253.680      499.671      450.065        0.128        0.060       36.164       19.480        0.290      337.856       10.113      868.851
12/23/2014  12:15:00      121.874       69.656       31.553       54.105       34.437       38.064     2927.393     1185.888     1448.845        1.313        0.278      140.375       16.427        0.014      337.821       10.053      868.832
12/23/2014  12:16:00       36.524       33.580       27.644       47.398       54.791       31.273     2246.558     3002.077      978.020        0.473        0.311       49.615       25.110        0.256      338.152       10.609      868.797
12/23/2014  12:17:00       52.258     -115.546        9.921       37.793       53.625       40.315     1428.328     2875.691     1625.326        1.105        0.296      126.814       35.884        0.080      337.977       10.315      868.767
12/23/2014  12:18:00       68.197     -113.115      -15.487       38.753       60.147       33.905     1501.773     3617.623     1149.525        1.198        0.313      132.083       32.119        0.059      338.055       10.447      868.737
12/23/2014  12:19:00       47.470      -38.126       36.541       39.696       98.256       43.111     1575.752     9654.338     1858.560        0.906        0.654       60.885       57.637        0.896      338.262       10.793      868.700
12/23/2014  12:20:00       32.044       55.454       62.273       54.161       38.641       39.515     2933.396     1493.093     1561.439        0.698        0.299       64.047       36.807        0.330      338.473       11.148      868.663
12/23/2014  12:21:00       21.194       68.680       71.463       51.391       45.590       37.757     2640.992     2078.433     1425.576        0.821        0.307       71.876       32.100        0.199      338.396       11.020      868.649
12/23/2014  12:22:00       31.963       34.868       40.216       40.821       48.494       33.308     1666.384     2351.695     1109.440        0.449        0.256       47.301       27.774        0.345      338.225       10.732      868.642
12/23/2014  12:23:00      122.720       68.228       32.253       47.975       44.823       43.784     2301.598     2009.123     1917.037        1.349        0.311      140.411       31.740        0.051      337.843       10.091      868.627
12/23/2014  12:24:00        7.348       13.028       64.913       32.103       49.963       27.600     1030.591     2496.316      761.777        0.436        0.214       14.957       29.227        3.818      338.620       11.397      868.627
12/23/2014  12:25:00        5.041       18.481       62.051       26.661       25.180       20.232      710.796      634.053      409.332        0.299        0.088       19.156       18.035        0.886      338.617       11.390      868.635
12/23/2014  12:26:00        1.209       40.254       71.075       29.525       32.977       35.369      871.720     1087.485     1250.995        0.494        0.161       40.273       27.826        0.477      338.336       10.918      868.644
12/23/2014  12:27:00       54.971      -17.493       -7.438       55.778       32.288       27.799     3111.169     1042.533      772.799        0.415        0.246       57.687       17.290        0.090      338.013       10.376      868.642
12/23/2014  12:28:00       12.006       25.093       24.059       32.812       43.144       43.732     1076.631     1861.406     1912.444        0.310        0.243       27.817       23.930        0.740      338.343       10.929      868.634
12/23/2014  12:29:00        7.142       29.420       76.890       37.445       50.708       36.873     1402.106     2571.262     1359.649        0.608        0.267       30.275       37.681        1.549      338.619       11.392      868.639
12/23/2014  12:30:00       18.439       76.051       71.802       34.068       40.179       37.938     1160.655     1614.353     1439.312        0.775        0.211       78.255       23.966        0.094      338.489       11.175      868.625
12/23/2014  12:31:00       15.995       64.318      103.876       37.213       42.114       23.173     1384.788     1773.626      537.001        0.944        0.185       66.277       24.278        0.134      338.372       10.978      868.622
12/23/2014  12:32:00       49.173       22.751       45.202       33.849       36.687       32.350     1145.740     1345.956     1046.534        0.426        0.177       54.181       25.787        0.227      338.168       10.637      868.631
12/23/2014  12:33:00       19.002       72.144      -16.717       28.513       37.562       18.240      813.000     1410.906      332.697        0.420        0.128       74.604       17.301        0.054      337.898       10.184      868.609
12/23/2014  12:34:00      -35.084       74.384      -19.463       31.695       24.145       16.623     1004.578      582.983      276.309        0.450        0.093       82.243       11.130        0.018      337.827       10.062      868.592
12/23/2014  12:35:00      -30.577       91.868      -15.603       30.269       29.988       20.190      916.198      899.254      407.632        0.592        0.111       96.823       10.492        0.012      337.887       10.165      868.570
12/23/2014  12:36:00      -54.812       46.527      -11.341       24.416       31.962       21.888      596.121     1021.601      479.072        0.370        0.105       71.897       12.441        0.030      338.163       10.627      868.544
12/23/2014  12:37:00      -24.407       66.982       -6.705       28.951       28.358       20.527      838.143      804.193      421.370        0.360        0.103       71.290       13.402        0.035      337.985       10.329      868.515
12/23/2014  12:38:00       26.653       53.446       11.654       38.471       23.616       22.137     1480.040      557.712      490.061        0.311        0.126       59.723       19.042        0.102      338.131       10.575      868.493
12/23/2014  12:39:00       14.493       32.716       11.802       21.844       25.123       22.263      477.160      631.177      495.634        0.151        0.080       35.783       19.934        0.310      338.373       10.979      868.471
12/23/2014  12:40:00       50.568       33.598       -0.857       33.278       24.510       32.083     1107.420      600.722     1029.312        0.321        0.137       60.712       20.863        0.118      338.307       10.869      868.449
12/23/2014  12:41:00       74.578       10.445       -5.923       30.320       39.632       35.725      919.306     1570.662     1276.310        0.474        0.188       75.306       22.304        0.088      338.097       10.518      868.441
12/23/2014  12:42:00        7.186        2.891       19.403       33.176       24.146       20.541     1100.666      583.014      421.929        0.127        0.105        7.745        7.429        0.920      338.313       10.880      868.437
12/23/2014  12:43:00      -20.527       17.657      -14.031       16.821       44.064       19.448      282.946     1941.635      378.221        0.177        0.130       27.076       16.371        0.366      338.219       10.721      868.410
12/23/2014  12:44:00       16.961       40.702        5.400       19.463       34.921       15.305      378.826     1219.470      234.250        0.190        0.092       44.095       13.406        0.092      338.412       11.046      868.396
12/23/2014  12:45:00       16.398       50.886      -11.834       15.466       24.307       14.889      239.184      590.808      221.669        0.202        0.053       53.463       12.396        0.054      338.362       10.963      868.385
12/23/2014  12:46:00       21.434       65.276        1.997       29.347       41.403       24.983      861.222     1714.220      624.137        0.396        0.160       68.705       19.735        0.083      338.313       10.880      868.366
12/23/2014  12:47:00       -6.852       33.226       23.475       32.279       25.174       23.055     1041.928      633.741      531.540        0.195        0.110       33.925       15.628        0.212      338.713       11.553      868.358
12/23/2014  12:48:00      -14.979       11.781        0.912       19.543       25.852       20.297      381.947      668.312      411.969        0.091        0.073       19.056       12.827        0.453      338.864       11.805      868.346
12/23/2014  12:49:00       -6.250      -40.707        1.414       30.479       61.072       36.553      928.945     3729.811     1336.104        0.385        0.300       41.184       33.580        0.665      338.842       11.767      868.338
12/23/2014  12:50:00       91.732     -148.924      -16.205       91.017       60.219       42.786     8284.022     3626.369     1830.602        2.230        0.687      174.909       42.392        0.059      338.351       10.940      868.324
12/23/2014  12:51:00       29.458      -39.163       16.763       53.965       45.710       46.736     2912.220     2089.386     2184.245        0.493        0.359       49.005       45.670        0.869      338.698       11.526      868.291
12/23/2014  12:52:00      -55.281      -54.317        3.428       69.015       59.361       28.100     4763.126     3523.684      789.633        0.755        0.454       77.500       27.223        0.123      338.659       11.461      868.273
12/23/2014  12:53:00      -54.884      -70.345       -5.226      100.115       71.785       33.724    10023.027     5153.122     1137.313        1.215        0.816       89.222       37.355        0.175      338.492       11.179      868.247
12/23/2014  12:54:00      -20.659      -47.970       14.614       41.476       38.091       27.428     1720.246     1450.917      752.303        0.343        0.196       52.230       30.412        0.339      338.671       11.481      868.228
12/23/2014  12:55:00       14.565     -104.915      -14.019       58.374       66.695       39.800     3407.515     4448.236     1584.034        1.043        0.472      105.921       36.611        0.119      338.595       11.352      868.215
12/23/2014  12:56:00       60.672      -29.574       21.112       45.898       57.604       36.113     2106.615     3318.278     1304.177        0.586        0.336       67.496       39.592        0.344      338.659       11.461      868.185
12/23/2014  12:57:00      -35.459      -28.267        9.376       37.022       42.161       24.143     1370.635     1777.536      582.897        0.294        0.187       45.347       23.013        0.258      338.781       11.666      868.160
12/23/2014  12:58:00      -29.447      -33.477       25.347       57.085       40.623       31.711     3258.696     1650.228     1005.557        0.427        0.296       44.585       34.412        0.596      338.875       11.825      868.142
12/23/2014  12:59:00       15.619      -93.665       -8.581       50.228       79.877       33.893     2522.855     6380.414     1148.718        0.957        0.503       94.958       35.134        0.137      338.917       11.894      868.115
12/23/2014  13:00:00       74.956      -71.416        6.274       73.108       78.775       42.155     5344.848     6205.479     1777.026        1.204        0.666      103.531       43.464        0.176      338.503       11.198      868.104
12/23/2014  13:01:00        3.155       -8.109       41.704       42.789       54.164       35.375     1830.889     2933.750     1251.402        0.391        0.301        8.701       25.424        8.538      338.755       11.621      868.088
12/23/2014  13:02:00       13.352      -55.289        8.206       72.876       94.046       36.634     5310.978     8844.685     1342.075        0.940        0.775       56.879       55.959        0.968      338.869       11.812      868.067
12/23/2014  13:03:00      109.176      -81.199      -25.867       75.225       90.685       54.608     5658.868     8223.803     2982.047        1.802        0.843      136.061       64.336        0.224      338.469       11.139      868.051
12/23/2014  13:04:00       60.988      -88.604       -0.371       57.997       82.221       43.685     3363.704     6760.215     1908.416        1.180        0.602      107.565       46.751        0.189      338.458       11.123      868.047
12/23/2014  13:05:00       61.723       16.735       28.489       53.011       40.939       35.002     2810.135     1675.964     1225.129        0.531        0.286       63.951       36.370        0.323      338.468       11.140      868.021
12/23/2014  13:06:00       13.095       19.975       46.354       38.273       42.540       40.971     1464.794     1809.658     1678.616        0.384        0.248       23.885       31.536        1.743      338.678       11.491      867.998
12/23/2014  13:07:00       12.202        2.601       18.375       27.248       26.742       31.348      742.468      715.149      982.726        0.147        0.122       12.476       24.381        3.819      338.773       11.651      867.982
12/23/2014  13:08:00      -10.083       55.916      -13.642       46.381       37.771       24.550     2151.181     1426.624      602.702        0.380        0.209       56.818       16.836        0.088      338.758       11.628      867.960
12/23/2014  13:09:00       18.620       45.688       -3.300       38.402       43.095       26.044     1474.738     1857.151      678.315        0.323        0.201       49.337       21.100        0.183      338.813       11.720      867.928
12/23/2014  13:10:00       15.770     -108.868      -14.520       33.226       22.794       19.594     1103.939      519.546      383.937        0.716        0.100      110.005        8.885        0.007      338.818       11.728      867.918
12/23/2014  13:11:00      -47.006      -28.290        6.911       34.595       31.703       28.135     1196.832     1005.052      791.574        0.302        0.150       54.862       12.460        0.052      338.730       11.581      867.911
12/23/2014  13:12:00      -20.587      -37.074        1.537       48.633       43.133       33.804     2365.201     1860.433     1142.707        0.358        0.268       42.406       27.501        0.421      338.921       11.902      867.898
12/23/2014  13:13:00      -44.618      -13.746       11.778       43.439       47.077       30.947     1886.980     2216.223      957.730        0.369        0.253       46.687       32.845        0.495      338.932       11.919      867.894
12/23/2014  13:14:00      -67.331      -89.091        2.756       56.769       90.801       29.195     3222.775     8244.904      852.364        1.240        0.616      111.672       37.623        0.114      338.751       11.615      867.888
12/23/2014  13:15:00       88.067     -104.741        4.025       94.281       80.539       54.247     8888.938     6486.563     2942.691        1.853        0.916      136.844       63.188        0.213      338.903       11.869      867.870
12/23/2014  13:16:00       -0.501      -95.422      -12.386       51.305       49.300       36.158     2632.162     2430.518     1307.432        0.781        0.319       95.423       30.520        0.102      338.959       11.965      867.864
12/23/2014  13:17:00       86.888     -102.635      -21.155       58.525       52.295       27.758     3425.207     2734.731      770.517        1.273        0.347      134.475       20.772        0.024      338.784       11.671      867.834
12/23/2014  13:18:00      -16.350       20.661       16.333       28.080       69.411       50.593      788.503     4817.944     2559.685        0.456        0.408       26.347       29.719        1.272      339.202       12.374      867.806
12/23/2014  13:19:00       42.532      -25.345       50.131       68.838      113.306       56.582     4738.643    12838.334     3201.536        1.287        1.039       49.511       73.388        2.197      339.008       12.047      867.791
12/23/2014  13:20:00       -1.537      -26.576       45.818       42.850       82.499       42.166     1836.084     6806.007     1778.002        0.661        0.521       26.621       48.261        3.287      339.052       12.122      867.767
12/23/2014  13:21:00       -2.234      -63.778        1.411       39.119       22.521       25.739     1530.299      507.208      662.510        0.339        0.135       63.817       12.187        0.036      338.932       11.919      867.756
12/23/2014  13:22:00      -21.957      -52.803        1.378       44.272       38.834       31.116     1960.014     1508.080      968.175        0.385        0.222       57.186       23.463        0.168      339.016       12.062      867.739
12/23/2014  13:23:00      -33.029      -35.149        9.760       64.949       36.250       31.097     4218.389     1314.057      967.001        0.446        0.325       48.233       29.761        0.381      339.036       12.095      867.724
12/23/2014  13:24:00      -17.861        2.930        3.454       38.391       29.730       20.699     1473.864      883.873      428.458        0.156        0.139       18.100       11.300        0.390      338.926       11.910      867.715
12/23/2014  13:25:00        6.198       12.548       18.629       42.891       27.344       17.603     1839.646      747.683      309.879        0.172        0.145       13.995       13.506        0.931      339.216       12.398      867.698
12/23/2014  13:26:00       -5.024        5.184       32.852       26.726       43.781       24.002      714.302     1916.763      576.109        0.217        0.160        7.219       26.168       13.138      339.409       12.723      867.681
12/23/2014  13:27:00       46.259       41.520       63.904       70.795       49.606       41.560     5011.907     2460.784     1727.215        0.857        0.460       62.159       32.121        0.267      339.110       12.220      867.658
12/23/2014  13:28:00       -4.588      -11.988       21.142       53.585       42.990       40.467     2871.312     1848.098     1637.552        0.348        0.318       12.836       22.296        3.017      339.112       12.221      867.642
12/23/2014  13:29:00       40.805       38.494       74.400       60.334       59.713       39.210     3640.197     3565.605     1537.455        0.871        0.437       56.097       38.109        0.461      338.898       11.863      867.636
12/23/2014  13:30:00        8.797      -22.369       28.897       33.796       65.166       37.127     1142.157     4246.612     1378.431        0.409        0.338       24.037       41.647        3.002      339.110       12.219      867.622
12/23/2014  13:31:00       18.850       13.611       39.749       41.215       78.281       37.671     1698.683     6127.917     1419.108        0.568        0.462       23.250       41.279        3.152      339.190       12.354      867.620
12/23/2014  13:32:00       69.666      -24.993       13.698       78.974       48.392       40.335     6236.962     2341.769     1626.919        0.793        0.510       74.014       45.786        0.383      339.022       12.072      867.628
12/23/2014  13:33:00       30.276       64.629       93.178       47.764       48.733       37.884     2281.422     2374.870     1435.184        0.993        0.305       71.369       34.942        0.240      339.021       12.070      867.623
12/23/2014  13:34:00       77.713      -18.137       39.707       62.902       55.226       48.000     3956.712     3049.877     2303.959        0.863        0.466       79.801       43.342        0.295      338.898       11.861      867.613
12/23/2014  13:35:00       41.858       12.740       38.549       39.596       77.010       36.410     1567.846     5930.576     1325.715        0.611        0.441       43.754       41.679        0.907      338.895       11.856      867.597
12/23/2014  13:36:00       98.042       61.975       18.136       60.560       52.525       31.086     3667.524     2758.835      966.310        1.059        0.370      115.988       24.099        0.043      338.773       11.652      867.586
12/23/2014  13:37:00       35.200       34.412        3.259       36.137       26.981       21.980     1305.917      728.000      483.136        0.247        0.126       49.226       14.870        0.091      338.723       11.570      867.575
12/23/2014  13:38:00       -8.821       15.272       -1.944       30.271       32.689       16.388      916.305     1068.581      268.573        0.128        0.113       17.636       13.793        0.612      338.946       11.944      867.562
12/23/2014  13:39:00       -2.365       -2.992       -3.127       33.216       39.372       31.721     1103.277     1550.122     1006.212        0.184        0.183        3.813       19.838       27.063      339.206       12.380      867.544
12/23/2014  13:40:00       37.796      -70.829      -16.133       61.919       46.998       29.858     3833.997     2208.772      891.493        0.682        0.347       80.283       38.099        0.225      339.019       12.065      867.534
12/23/2014  13:41:00       55.966      -30.904       33.402       68.284       54.489       39.992     4662.652     2969.091     1599.340        0.722        0.462       63.931       46.064        0.519      339.196       12.364      867.522
12/23/2014  13:42:00       32.247       22.434       71.335       56.804       97.695       60.175     3226.746     9544.360     3621.004        1.151        0.820       39.283       73.018        3.455      339.222       12.407      867.518
12/23/2014  13:43:00      118.950      -90.857       12.008       62.057      119.127       58.749     3851.089    14191.231     3451.430        2.202        1.075      149.680       72.494        0.235      338.931       11.918      867.518
12/23/2014  13:44:00       17.663       -8.830       54.047       38.835      103.952       38.890     1508.131    10805.945     1512.399        0.857        0.691       19.747       46.131        5.457      339.098       12.200      867.513
12/23/2014  13:45:00       65.698       53.918       57.844       60.945       59.092       44.112     3714.266     3491.826     1945.878        0.986        0.458       84.990       46.465        0.299      338.788       11.677      867.519
12/23/2014  13:46:00       96.964       82.857       51.606       53.656       49.804       49.165     2878.967     2480.457     2417.168        1.335        0.389      127.543       34.585        0.074      338.820       11.730      867.517
12/23/2014  13:47:00       69.695       65.601       58.890       66.773       60.754       58.009     4458.687     3691.028     3365.014        1.207        0.576       95.713       38.802        0.164      338.911       11.884      867.521
12/23/2014  13:48:00       53.052      101.635      105.645       85.092       48.726       48.313     7240.688     2374.247     2334.108        1.812        0.597      114.648       49.570        0.187      338.916       11.892      867.516
12/23/2014  13:49:00       60.292       45.966       44.394       63.172       37.803       30.118     3990.715     1429.052      907.117        0.702        0.316       75.816       31.070        0.168      338.936       11.927      867.524
12/23/2014  13:50:00       83.028       70.018       22.693       33.763       24.669       29.937     1139.943      608.581      896.246        0.748        0.132      108.610       23.701        0.048      338.767       11.641      867.535
12/23/2014  13:51:00       11.766       28.109       47.188       24.102       23.194       17.816      580.928      537.968      317.408        0.230        0.072       30.472       16.235        0.284      339.071       12.154      867.551
12/23/2014  13:52:00       10.190       27.463       62.519       38.365       57.613       34.772     1471.898     3319.301     1209.114        0.538        0.300       29.293       37.553        1.643      339.312       12.560      867.568
12/23/2014  13:53:00       73.922      -88.785      -23.256       65.014       64.581       47.890     4226.810     4170.743     2293.415        1.229        0.535      115.530       48.003        0.173      338.998       12.032      867.589
12/23/2014  13:54:00       50.391      -42.759        3.682       59.019       59.391       50.215     3483.243     3527.337     2521.545        0.695        0.477       66.087       42.516        0.414      339.076       12.162      867.607
12/23/2014  13:55:00       28.380      -14.135       26.798       37.513       49.951       38.155     1407.261     2495.060     1455.829        0.354        0.268       31.705       38.311        1.460      339.055       12.126      867.629
12/23/2014  13:56:00        3.080       21.667       37.317       19.214       34.193       37.983      369.164     1169.134     1442.709        0.243        0.149       21.885       32.329        2.182      339.044       12.109      867.619
12/23/2014  13:57:00       28.570       20.362       35.327       31.109       22.382       19.463      967.796      500.951      378.799        0.216        0.092       35.084       17.972        0.262      339.077       12.164      867.619
12/23/2014  13:58:00      -36.121       -9.745       15.515       24.478       26.315       23.798      599.171      692.464      566.338        0.175        0.093       37.413       18.457        0.243      339.267       12.484      867.608
12/23/2014  13:59:00      -16.626      -50.015        8.265       32.967       43.039       28.499     1086.848     1852.339      812.174        0.330        0.188       52.706       20.232        0.147      339.282       12.508      867.601
12/23/2014  14:00:00       48.417      -13.580       28.720       40.360       59.291       40.967     1628.914     3515.388     1678.295        0.509        0.341       50.285       42.883        0.727      338.997       12.028      867.594
12/23/2014  14:01:00       40.457      -38.825      -14.183       36.007       34.484       14.325     1296.533     1189.146      205.208        0.302        0.135       56.072       12.102        0.047      338.899       11.864      867.580
12/23/2014  14:02:00      -83.157      -19.625       -0.827       65.214       51.412       30.296     4252.863     2643.158      917.837        0.756        0.391       85.442       28.848        0.114      339.253       12.460      867.551
12/23/2014  14:03:00     -166.510      -51.042      -22.717       32.064       46.783       20.346     1028.129     2188.673      413.955        1.724        0.182      174.157       13.298        0.006      338.806       11.708      867.543
12/23/2014  14:04:00     -120.448      -23.121      -13.737       26.850       36.141       21.397      720.907     1306.207      457.831        0.886        0.124      122.648        3.501        0.001      339.254       12.460      867.545
12/23/2014  14:05:00      -32.597       54.775      -17.075       37.484       22.718       19.181     1405.051      516.086      367.910        0.332        0.114       63.740       17.212        0.073      338.971       11.983      867.548
12/23/2014  14:06:00       40.487       40.717       25.650       27.134       22.030       23.752      736.228      485.316      564.174        0.287        0.089       57.420       13.893        0.059      339.036       12.095      867.545
12/23/2014  14:07:00       61.846       53.964       25.658       36.403       40.763       20.503     1325.153     1661.655      420.371        0.540        0.170       82.079       13.223        0.026      339.038       12.098      867.546
12/23/2014  14:08:00       49.287       27.748       13.575       55.372       26.283       17.684     3066.032      690.796      312.726        0.373        0.203       56.561       12.000        0.045      339.200       12.370      867.547
12/23/2014  14:09:00       78.207       46.534       19.807       63.737       40.722       35.240     4062.380     1658.280     1241.887        0.782        0.348       91.004       19.903        0.048      339.117       12.231      867.541
12/23/2014  14:10:00      104.749       61.902        0.266       44.699       30.102       34.435     1998.014      906.159     1185.782        0.945        0.204      121.673       11.396        0.009      338.961       11.969      867.541
12/23/2014  14:11:00       23.204       74.926       80.240       47.371       40.696       44.193     2243.990     1656.125     1953.062        0.922        0.293       78.437       32.922        0.176      339.241       12.439      867.516
12/23/2014  14:12:00       82.846      116.945       85.753       57.562       46.822       53.428     3313.425     2192.309     2854.541        1.813        0.418      143.317       43.217        0.091      339.018       12.063      867.518
12/23/2014  14:13:00       95.905       76.815       62.232       60.359       42.597       52.616     3643.200     1814.525     2768.441        1.360        0.411      122.875       48.306        0.155      339.025       12.075      867.521
12/23/2014  14:14:00       86.901       68.975        8.256       41.936       33.033       22.498     1758.613     1091.170      506.152        0.787        0.168      110.947       23.081        0.043      338.995       12.026      867.520
12/23/2014  14:15:00       35.820       61.339       33.820       56.218       46.079       40.524     3160.486     2123.246     1642.174        0.656        0.346       71.032       28.628        0.162      339.209       12.385      867.504
12/23/2014  14:16:00      133.584       84.691       -8.096       46.565       42.067       29.260     2168.333     1769.665      856.169        1.494        0.240      158.168       16.980        0.012      338.982       12.005      867.490
12/23/2014  14:17:00      120.809       92.848        6.956       36.138       35.027       29.257     1305.973     1226.884      855.972        1.333        0.169      152.367        9.709        0.004      339.022       12.071      867.517
12/23/2014  14:18:00       70.749       61.025       14.385       37.882       25.523       29.327     1435.079      651.415      860.052        0.594        0.147       93.432       11.331        0.015      339.119       12.234      867.527
12/23/2014  14:19:00       50.340       67.545       -1.231       48.846       39.221       31.705     2385.925     1538.302     1005.221        0.601        0.246       84.240       24.563        0.085      339.045       12.109      867.525
12/23/2014  14:20:00       87.836       61.394        1.743       36.506       36.910       27.069     1332.693     1362.350      732.720        0.746        0.171      107.166       23.357        0.048      339.047       12.114      867.530
12/23/2014  14:21:00       39.384       64.826       -0.021       47.182       36.247       25.677     2226.106     1313.825      659.293        0.498        0.210       75.852       25.282        0.111      339.025       12.076      867.529
12/23/2014  14:22:00       21.454      131.809      -26.593       24.005       34.150       12.643      576.252     1166.237      159.850        1.022        0.095      133.544       15.983        0.014      338.967       11.981      867.518
12/23/2014  14:23:00       75.955       91.890       -4.058       31.919       51.476       31.770     1018.853     2649.732     1009.318        0.945        0.234      119.218       25.604        0.046      339.022       12.071      867.538
12/23/2014  14:24:00       20.318       68.600      -17.234       23.083       35.162       12.217      532.817     1236.345      149.244        0.367        0.096       71.545       12.355        0.030      339.025       12.075      867.556
12/23/2014  14:25:00       20.344       16.380        6.335       15.659       34.468       14.856      245.197     1188.015      220.688        0.119        0.083       26.119       18.223        0.487      339.120       12.234      867.576
12/23/2014  14:26:00       -4.289       -2.184       11.241       12.709       34.887       16.407      161.525     1217.135      269.185        0.090        0.082        4.814       18.407       14.624      339.215       12.397      867.584
12/23/2014  14:27:00      -31.969        5.625      -19.086       19.888       18.778       16.612      395.546      352.621      275.973        0.122        0.051       32.460        8.542        0.069      339.229       12.418      867.583
12/23/2014  14:28:00      -28.368      -15.261       13.278       30.269       20.550       13.742      916.226      422.292      188.847        0.137        0.076       32.212       10.317        0.103      339.491       12.861      867.571
12/23/2014  14:29:00      -26.364       -8.789       11.499       31.916       25.371       17.463     1018.613      643.675      304.943        0.144        0.098       27.790       15.450        0.309      339.585       13.019      867.570
12/23/2014  14:30:00       -7.267      -32.499        6.026       25.870       19.286       17.045      669.271      371.964      290.525        0.124        0.067       33.301        4.636        0.019      339.524       12.917      867.564
12/23/2014  14:31:00       37.815       36.735       32.177       28.824       31.797       16.866      830.798     1011.024      284.447        0.297        0.106       52.720       12.984        0.061      339.358       12.637      867.560
12/23/2014  14:32:00       56.203       87.133       95.804       55.654       52.896       39.941     3097.381     2797.999     1595.305        1.371        0.375      103.687       33.330        0.103      339.235       12.429      867.549
12/23/2014  14:33:00       14.260       17.658       29.505       50.127       65.861       49.007     2512.729     4337.708     2401.670        0.532        0.463       22.697       58.476        6.638      339.308       12.552      867.560
12/23/2014  14:34:00       -5.425       35.962       51.846       39.624       52.176       41.113     1570.072     2722.313     1690.304        0.500        0.299       36.369       41.260        1.287      339.464       12.815      867.577
12/23/2014  14:35:00       33.974       63.343       68.651       56.411       36.434       23.022     3182.251     1327.450      530.010        0.746        0.252       71.879       18.847        0.069      339.347       12.619      867.594
12/23/2014  14:36:00      -17.037       23.723       43.160       13.266       23.063       13.239      175.992      531.883      175.260        0.180        0.044       29.206        9.964        0.116      339.629       13.092      867.593
12/23/2014  14:37:00      -19.453      -52.313       12.749       29.941       38.615       26.153      896.489     1491.122      683.969        0.317        0.154       55.812       13.594        0.059      339.462       12.812      867.603
12/23/2014  14:38:00       59.990      -74.338       -0.568       35.821       41.300       38.147     1283.179     1705.699     1455.157        0.678        0.222       95.525       36.026        0.142      339.291       12.523      867.613
12/23/2014  14:39:00       46.092       -9.717       15.942       32.597       36.228       30.469     1062.576     1312.490      928.374        0.289        0.165       47.105       28.493        0.366      339.248       12.451      867.618
12/23/2014  14:40:00       34.560       -0.510       15.670       18.173       19.085       18.440      330.243      364.255      340.041        0.124        0.052       34.563       13.589        0.155      339.258       12.468      867.611
12/23/2014  14:41:00       31.265        1.539       10.001       24.725       20.387       19.605      611.308      415.632      384.365        0.125        0.071       31.303       17.594        0.316      339.253       12.460      867.603
12/23/2014  14:42:00      -10.470        9.807       17.839       14.446       16.033       14.801      208.682      257.056      219.055        0.060        0.034       14.345       10.433        0.529      339.610       13.060      867.600
12/23/2014  14:43:00        4.108      -16.760        2.600       17.413       18.193       15.843      303.226      330.995      251.011        0.059        0.044       17.256       14.214        0.678      339.773       13.335      867.604
12/23/2014  14:44:00      -67.274       -9.661       -7.162       57.745       29.886       23.920     3334.433      893.148      572.153        0.473        0.240       67.964       30.076        0.196      339.309       12.554      867.606
12/23/2014  14:45:00      -86.151      -15.228        1.968       39.158       37.186       27.007     1533.324     1382.828      729.360        0.565        0.182       87.486       20.967        0.057      339.588       13.024      867.606
12/23/2014  14:46:00     -126.814      -30.352      -19.686       25.632       31.067       19.639      656.987      965.160      385.696        0.970        0.100      130.396       11.282        0.007      339.338       12.602      867.588
12/23/2014  14:47:00      -21.469      -36.473       15.750       46.781       24.004       31.121     2188.483      576.199      968.487        0.289        0.187       42.323       23.288        0.303      339.526       12.920      867.573
12/23/2014  14:48:00       -3.449       21.023       43.126       17.705       29.985       15.289      313.450      899.112      233.767        0.188        0.072       21.304        9.555        0.201      339.678       13.175      867.574
12/23/2014  14:49:00       -1.834       10.191       16.494       10.659       16.446       19.937      113.621      270.459      397.491        0.058        0.039       10.355       14.495        1.960      339.703       13.217      867.567
12/23/2014  14:50:00       -6.461        3.646        7.741       18.452       11.481       11.410      340.458      131.819      130.185        0.036        0.030        7.419       11.235        2.294      339.775       13.340      867.559
12/23/2014  14:51:00       21.894        4.756       17.595       26.338       11.816       13.661      693.711      139.614      186.632        0.092        0.051       22.404       10.003        0.199      339.646       13.122      867.561
12/23/2014  14:52:00       28.432       23.563       -8.400       19.046       15.502       10.643      362.736      240.309      113.272        0.108        0.036       36.927       11.152        0.091      339.355       12.632      867.551
12/23/2014  14:53:00       34.967       21.599        3.109       25.828       27.969       27.284      667.060      782.289      744.402        0.195        0.110       41.100       10.280        0.063      339.345       12.613      867.543
12/23/2014  14:54:00       75.061       56.038       16.163       32.252       29.063       23.179     1040.216      844.679      537.257        0.573        0.121       93.672       10.182        0.012      339.203       12.374      867.545
12/23/2014  14:55:00       46.201       47.249       -7.348       12.119       21.485       15.614      146.878      461.606      243.809        0.264        0.043       66.083        5.178        0.006      339.197       12.366      867.541
12/23/2014  14:56:00        8.589       52.161       -1.036       16.718       21.966       19.855      279.481      482.515      394.227        0.198        0.058       52.863       15.457        0.085      339.293       12.526      867.531
12/23/2014  14:57:00       40.851       39.662       19.603       28.389       31.538       32.496      805.952      994.618     1055.964        0.324        0.143       56.937       22.232        0.152      339.247       12.451      867.517
12/23/2014  14:58:00       41.102       68.551       75.747       48.936       48.553       40.382     2394.722     2357.411     1630.728        0.925        0.319       79.929       36.936        0.214      339.397       12.703      867.498
12/23/2014  14:59:00      121.010       88.227       25.977       33.988       28.637       34.931     1155.179      820.071     1220.178        1.315        0.160      149.758       10.958        0.005      339.292       12.525      867.481
12/23/2014  15:00:00       79.029       35.218       14.414       23.675       17.172       22.382      560.510      294.864      500.934        0.452        0.068       86.521       13.533        0.024      339.273       12.492      867.477
12/23/2014  15:01:00       30.336       47.707       59.223       41.699       39.178       32.066     1738.822     1534.889     1028.238        0.550        0.215       56.535       27.561        0.238      339.475       12.833      867.485
12/23/2014  15:02:00       22.216       11.098       18.344       42.821       40.590       36.771     1833.619     1647.577     1352.118        0.289        0.242       24.833       29.880        1.448      339.546       12.953      867.501
12/23/2014  15:03:00       42.865      -73.204       21.006       37.736       42.652       29.297     1424.029     1819.155      858.290        0.587        0.205       84.830       26.297        0.096      339.479       12.841      867.512
12/23/2014  15:04:00        0.035      -30.692        9.782       31.299       45.057       21.561      979.627     2030.114      464.873        0.226        0.174       30.692       21.723        0.501      339.478       12.839      867.522
12/23/2014  15:05:00       29.272       12.736       29.046       44.727       34.035       31.106     2000.544     1158.364      967.606        0.299        0.206       31.923       22.141        0.481      339.584       13.017      867.519
12/23/2014  15:06:00       20.437       34.173       51.171       37.357       43.629       34.337     1395.544     1903.478     1179.029        0.434        0.224       39.818       34.044        0.731      339.530       12.926      867.501
12/23/2014  15:07:00       59.190       43.817       45.726       29.991       25.146       20.237      899.468      632.297      409.522        0.473        0.097       73.644       17.358        0.056      339.354       12.629      867.501
12/23/2014  15:08:00       69.778       39.815       19.485       37.106       34.240       25.872     1376.871     1172.351      669.347        0.503        0.161       80.338       22.613        0.079      339.363       12.644      867.488
12/23/2014  15:09:00       54.862       15.656       39.548       44.799       32.445       34.799     2006.908     1052.669     1211.004        0.454        0.214       57.052       31.925        0.313      339.401       12.710      867.486
12/23/2014  15:10:00        2.424       -6.993       33.998       27.958       44.752       34.396      781.668     2002.757     1183.117        0.259        0.198        7.401       28.685       15.021      339.616       13.072      867.481
12/23/2014  15:11:00       49.505       50.229       39.457       34.837       22.123       27.387     1213.621      489.408      750.027        0.449        0.123       70.525       21.619        0.094      339.389       12.689      867.481
12/23/2014  15:12:00       47.175       29.138       13.470       38.343       20.141       17.258     1470.209      405.668      297.850        0.271        0.109       55.448       18.318        0.109      339.386       12.685      867.481
12/23/2014  15:13:00        8.254        7.887        5.559       16.341       13.982       10.599      267.015      195.507      112.335        0.037        0.029       11.417        5.143        0.203      339.519       12.907      867.473
12/23/2014  15:14:00        7.928       25.718       20.700       13.937       16.883       13.295      194.229      285.029      176.753        0.090        0.033       26.912        5.143        0.037      339.574       13.002      867.474
12/23/2014  15:15:00        3.228       20.934       39.326       27.657       21.263       16.370      764.893      452.100      267.967        0.174        0.074       21.182       14.784        0.487      339.654       13.138      867.472
12/23/2014  15:16:00       52.535       29.069       -4.259       50.068       34.622       26.157     2506.763     1198.682      684.164        0.401        0.219       60.041       18.808        0.098      339.373       12.660      867.472
12/23/2014  15:17:00       32.047       82.702      -15.724       28.615       34.517       20.433      818.831     1191.439      417.490        0.527        0.121       88.694       11.347        0.016      339.314       12.563      867.485
12/23/2014  15:18:00      -12.297       51.681      -18.119       16.272       28.980       14.544      264.791      839.838      211.517        0.223        0.066       53.123       10.681        0.040      339.338       12.603      867.505
12/23/2014  15:19:00      -10.448       22.300       -2.254       38.236       18.222       20.300     1462.018      332.040      412.104        0.141        0.110       24.627       17.045        0.479      339.546       12.953      867.518
12/23/2014  15:20:00        1.860      -24.237       -8.154       11.157       22.562       12.507      124.488      509.061      156.429        0.072        0.039       24.308        9.199        0.143      339.385       12.683      867.535
12/23/2014  15:21:00        9.062      -26.986      -10.316       14.933       17.467       12.346      223.002      305.099      152.412        0.080        0.034       28.467        6.586        0.054      339.306       12.549      867.543
12/23/2014  15:22:00       22.443        9.065        5.892       20.970       22.394       16.393      439.743      501.496      268.729        0.092        0.060       24.204       14.883        0.378      339.304       12.544      867.541
12/23/2014  15:23:00       51.238       37.242       13.305       13.543       21.566       19.486      183.420      465.101      379.699        0.261        0.051       63.343       13.512        0.046      339.270       12.487      867.527
12/23/2014  15:24:00        3.697        2.560        6.649       24.198       15.119       21.860      585.531      228.592      477.877        0.068        0.065        4.497       12.690        7.963      339.475       12.833      867.514
12/23/2014  15:25:00      -30.817        7.800       19.630       16.282       13.940       14.447      265.091      194.336      208.708        0.103        0.033       31.788        9.556        0.090      339.543       12.948      867.487
12/23/2014  15:26:00        9.356       13.107       19.980       14.457       11.465       10.358      209.013      131.455      107.288        0.055        0.022       16.104        8.174        0.258      339.512       12.896      867.457
12/23/2014  15:27:00       11.975      -10.756        7.721       14.719       14.215       11.172      216.640      202.062      124.816        0.043        0.027       16.097        7.171        0.198      339.531       12.928      867.434
12/23/2014  15:28:00       14.115       -9.916        2.057       18.812       18.182       13.159      353.886      330.573      173.159        0.058        0.043       17.250        7.941        0.212      339.542       12.947      867.414
12/23/2014  15:29:00        3.779      -18.273       -5.498       10.046       13.964       16.049      100.920      195.007      257.568        0.047        0.028       18.660        5.333        0.082      339.514       12.901      867.393
12/23/2014  15:30:00       -3.390        6.061       -5.892       13.565       10.347        9.594      184.022      107.068       92.036        0.023        0.019        6.944        7.521        1.173      339.613       13.067      867.379
12/23/2014  15:31:00        7.216        5.401        5.012        9.735        6.502        6.833       94.779       42.271       46.687        0.015        0.009        9.014        4.635        0.264      339.577       13.005      867.369
12/23/2014  15:32:00       -2.789       -0.225       -3.657       15.232        9.545        6.085      232.025       91.099       37.031        0.019        0.018        2.798        4.627        2.734      339.644       13.119      867.364
12/23/2014  15:33:00        9.455        9.699       -2.121       18.570        7.264       14.772      344.863       52.772      218.217        0.040        0.031       13.545        8.658        0.409      339.663       13.150      867.366
12/23/2014  15:34:00       17.440       30.346       -0.107       17.411       10.098       12.413      303.160      101.976      154.088        0.089        0.028       35.000        9.383        0.072      339.453       12.798      867.365
12/23/2014  15:35:00        9.996        3.761        5.834       13.984       16.830       13.480      195.540      283.256      181.720        0.040        0.033       10.681       12.466        1.362      339.604       13.050      867.353
12/23/2014  15:36:00       -7.090       -8.124       13.394       22.611        9.368        8.310      511.242       87.760       69.057        0.048        0.033       10.783        7.683        0.508      339.780       13.348      867.341
12/23/2014  15:37:00       -1.144        4.241       11.280       15.228       25.140       12.910      231.900      632.009      166.660        0.059        0.052        4.393        9.759        4.935      339.723       13.252      867.325
12/23/2014  15:38:00       37.324     -101.105      -15.996       35.841       36.733       26.114     1284.568     1349.332      681.931        0.759        0.166      107.774       22.477        0.043      339.517       12.905      867.304
12/23/2014  15:39:00       88.182     -122.467      -34.753       28.409       35.302       18.230      807.099     1246.246      332.337        1.318        0.119      150.912       13.324        0.008      339.356       12.634      867.296
12/23/2014  15:40:00       55.743      -37.779      -11.828       33.758       25.185       25.317     1139.581      634.266      640.942        0.354        0.121       67.339       22.081        0.108      339.410       12.724      867.286
12/23/2014  15:41:00       25.659      -24.531       -6.754       18.452       17.729       16.750      340.467      314.308      280.551        0.112        0.047       35.498        9.791        0.076      339.469       12.824      867.288
12/23/2014  15:42:00       30.096      -42.748        4.739       26.700       27.118       16.449      712.866      735.370      270.565        0.224        0.086       52.280        9.972        0.036      339.541       12.945      867.284
12/23/2014  15:43:00       33.533       -1.392       17.357       25.143       22.022       21.419      632.162      484.966      458.780        0.150        0.079       33.561       14.169        0.178      339.490       12.859      867.283
12/23/2014  15:44:00        5.878        2.376       -5.209       19.429       13.739       18.646      377.501      188.756      347.663        0.049        0.046        6.340       11.893        3.519      339.575       13.002      867.273
12/23/2014  15:45:00      -21.000       -1.697      -14.395       15.459       16.838       19.366      238.987      283.503      375.024        0.077        0.045       21.068       15.460        0.538      339.625       13.088      867.258
12/23/2014  15:46:00      -17.319        8.858       11.277       19.349       10.562       10.748      374.399      111.552      115.514        0.055        0.030       19.452        9.198        0.224      339.640       13.114      867.243
12/23/2014  15:47:00       -4.850       -9.601        3.590       10.641       17.984       10.324      113.224      323.434      106.587        0.034        0.027       10.756        8.619        0.642      339.696       13.208      867.227
12/23/2014  15:48:00        3.841      -47.149        1.756       11.352       18.270       11.664      128.872      333.780      136.045        0.142        0.030       47.305        8.565        0.033      339.589       13.026      867.215
12/23/2014  15:49:00       -0.075      -11.247        4.433       15.670        9.587       11.314      245.557       91.909      128.010        0.031        0.023       11.247        7.864        0.489      339.643       13.117      867.206
12/23/2014  15:50:00       -7.791        4.639        1.687       18.377       12.488       13.678      337.712      155.939      187.086        0.038        0.034        9.067        6.806        0.563      339.624       13.085      867.201
12/23/2014  15:51:00       24.887      -73.929        0.778       20.302       19.138       21.069      412.184      366.276      443.883        0.365        0.061       78.006       13.905        0.032      339.495       12.869      867.187
12/23/2014  15:52:00       10.673      -48.054       -9.461       16.973       20.465       15.333      288.075      418.830      235.109        0.173        0.047       49.225        7.698        0.024      339.658       13.142      867.170
12/23/2014  15:53:00      -50.541      -41.630        1.589       24.472       15.700       19.428      598.888      246.485      377.446        0.276        0.061       65.479       12.894        0.039      339.542       12.947      867.167
12/23/2014  15:54:00       -7.404      -52.142        9.588       19.595       23.130       18.790      383.955      534.997      353.052        0.207        0.064       52.665       11.326        0.046      339.631       13.096      867.166
12/23/2014  15:55:00        3.491        1.708       32.612       20.968       52.055       15.087      439.642     2709.771      227.624        0.223        0.169        3.886       14.729       14.364      339.540       12.943      867.158
12/23/2014  15:56:00       46.660       34.807       33.571       24.124       17.565       14.922      581.946      308.531      222.663        0.281        0.056       58.213       12.738        0.048      339.453       12.797      867.160
12/23/2014  15:57:00       35.986       -1.799        3.973       21.338       24.165       14.215      455.322      583.938      202.080        0.128        0.062       36.031       10.613        0.087      339.410       12.722      867.159
12/23/2014  15:58:00       17.395       19.988        5.426       26.840       14.273       12.640      720.378      203.714      159.758        0.091        0.054       26.497       10.447        0.155      339.388       12.688      867.142
12/23/2014  15:59:00       12.961       45.147       -2.587       16.892       12.766       10.194      285.346      162.959      103.913        0.138        0.028       46.970        3.151        0.004      339.410       12.725      867.127
12/23/2014  16:00:00       16.064       33.595       -4.306       13.090       10.497        9.414      171.340      110.178       88.617        0.089        0.019       37.238        5.232        0.020      339.415       12.734      867.122
12/23/2014  16:01:00       18.904       34.919       -8.716       20.592       22.061       11.850      424.024      486.698      140.430        0.135        0.053       39.707       12.055        0.092      339.398       12.706      867.107
12/23/2014  16:02:00       14.400       42.914       -9.109       19.980       29.248       14.858      399.212      855.461      220.774        0.180        0.074       45.265        8.304        0.034      339.369       12.654      867.107
12/23/2014  16:03:00       24.062       31.042       -9.010       12.811       12.384       11.430      164.119      153.373      130.653        0.104        0.022       39.276        5.453        0.019      339.346       12.616      867.097
12/23/2014  16:04:00       20.844       16.602       -1.564       17.966       13.598        8.505      322.771      184.893       72.336        0.065        0.029       26.647        6.411        0.058      339.407       12.719      867.084
12/23/2014  16:05:00       15.637       13.278        2.138       12.530       12.900        8.755      156.994      166.408       76.655        0.041        0.020       20.514        4.883        0.057      339.438       12.771      867.063
12/23/2014  16:06:00        2.256       -2.283       -7.448       11.690       21.150       10.030      136.658      447.309      100.597        0.038        0.034        3.210        8.049        6.289      339.482       12.846      867.054
12/23/2014  16:07:00       10.386      -10.572        3.971        8.329       12.089        8.277       69.365      146.136       68.506        0.026        0.014       14.821        5.020        0.115      339.553       12.965      867.053
12/23/2014  16:08:00        8.591       -8.115       10.034       15.345       14.366       12.343      235.482      206.395      152.355        0.042        0.030       11.818        7.889        0.446      339.582       13.015      867.056
12/23/2014  16:09:00      -27.497      -24.761        1.789       28.280       13.397       18.613      799.731      179.477      346.427        0.135        0.066       37.003       15.604        0.178      339.467       12.821      867.063
12/23/2014  16:10:00       -8.916       -6.107       10.374       24.058       12.233       13.719      578.777      149.658      188.221        0.057        0.046       10.807       12.188        1.272      339.599       13.042      867.063
12/23/2014  16:11:00      -13.550      -23.804        4.510       24.778       17.220       14.743      613.950      296.518      217.367        0.095        0.056       27.390       12.749        0.217      339.628       13.091      867.064
12/23/2014  16:12:00        0.751       -2.923       16.973       17.536       20.694       12.891      307.511      428.224      166.185        0.060        0.045        3.018        8.609        8.137      339.511       12.896      867.051
12/23/2014  16:13:00        3.264       19.196       14.990       26.348       12.713       11.954      694.223      161.609      142.890        0.080        0.050       19.472       10.089        0.268      339.465       12.817      867.038
12/23/2014  16:14:00      -20.307       -5.151       -2.450       14.771       19.868        7.976      218.179      394.724       63.614        0.056        0.034       20.951        6.429        0.094      339.452       12.795      867.036
12/23/2014  16:15:00       20.366      -39.301        6.825       36.924       28.176       22.712     1363.376      793.882      515.815        0.234        0.134       44.264       21.511        0.236      339.498       12.872      867.036
12/23/2014  16:16:00       -9.514       -7.756       12.638       20.298       31.505       17.488      412.019      992.541      305.814        0.101        0.086       12.275       14.146        1.328      339.363       12.647      867.030
12/23/2014  16:17:00       36.158       -3.265       28.766       43.846       42.423       24.048     1922.450     1799.732      578.291        0.322        0.215       36.305       32.153        0.784      339.251       12.457      867.016
12/23/2014  16:18:00      -29.021      -16.857       12.826       26.211       19.657       16.048      687.003      386.400      257.536        0.131        0.067       33.561       16.474        0.241      339.318       12.570      867.006
12/23/2014  16:19:00      -20.527       -6.302       -2.428       17.060       16.975       11.526      291.037      288.144      132.850        0.059        0.036       21.473       10.010        0.217      339.422       12.746      867.000
12/23/2014  16:20:00      -34.876      -32.112       -7.279       17.468       10.491       12.467      305.135      110.067      155.429        0.144        0.029       47.408       10.324        0.047      339.487       12.853      866.991
12/23/2014  16:21:00      -16.048      -20.092       -6.741       34.342       22.419       13.479     1179.358      502.620      181.682        0.128        0.093       25.714       11.258        0.192      339.410       12.725      866.990
12/23/2014  16:22:00       -2.709      -39.675       -8.612       22.532       31.494       26.392      507.689      991.885      696.547        0.193        0.110       39.767       16.080        0.163      339.480       12.843      866.993
12/23/2014  16:23:00        3.787      -27.453        9.345       16.627       21.249       14.389      276.472      451.533      207.056        0.090        0.047       27.713       12.786        0.213      339.464       12.815      866.999
12/23/2014  16:24:00      -16.144       -6.768       20.891       30.288       37.971       20.790      917.358     1441.831      432.210        0.177        0.140       17.505       18.954        1.172      339.285       12.513      866.997
12/23/2014  16:25:00       48.517      -65.990       -0.508       47.799       37.664       28.493     2284.723     1418.560      811.836        0.561        0.226       81.906       25.798        0.099      339.322       12.575      866.986
12/23/2014  16:26:00       44.688      -24.172       -0.584       43.648       38.106       30.361     1905.191     1452.096      921.762        0.343        0.214       50.806       27.598        0.295      339.290       12.524      866.981
12/23/2014  16:27:00       10.870       -4.629       42.276       26.679       44.158       30.447      711.754     1949.956      927.047        0.276        0.179       11.815       31.772        7.231      339.252       12.457      866.973
12/23/2014  16:28:00       -0.144      -15.272       25.409       17.131       25.744       21.062      293.475      662.736      443.593        0.114        0.070       15.273        4.495        0.087      339.340       12.608      866.959
12/23/2014  16:29:00       -4.554        6.813       31.785       24.274       36.699       24.924      589.228     1346.814      621.185        0.182        0.128        8.195       15.171        3.427      339.273       12.494      866.968
12/23/2014  16:30:00       13.312      -31.885        9.319       27.970       38.665       26.189      782.326     1494.968      685.843        0.212        0.148       34.552       18.813        0.296      339.337       12.599      866.969
12/23/2014  16:31:00       34.102      -78.375        8.399       54.118       33.719       28.469     2928.718     1136.966      810.507        0.613        0.244       85.472       25.984        0.092      339.400       12.707      866.989
12/23/2014  16:32:00       -7.942       33.213       57.627       16.318       32.812       23.638      266.273     1076.618      558.773        0.319        0.095       34.149       24.725        0.524      339.208       12.384      867.008
12/23/2014  16:33:00       13.100      -10.597       24.921       25.859       34.770       23.993      668.683     1208.929      575.684        0.168        0.123       16.850       22.757        1.824      339.211       12.389      867.039
12/23/2014  16:34:00       39.132      -50.428       14.885       77.391       50.984       21.480     5989.326     2599.398      461.389        0.667        0.453       63.830       26.002        0.166      339.280       12.505      867.053
12/23/2014  16:35:00      -30.934       -6.772       11.346       17.031       18.951       11.306      290.040      359.127      127.826        0.095        0.039       31.667        5.396        0.029      339.209       12.384      867.044
12/23/2014  16:36:00        2.192      -18.059        6.580       18.904       22.312       14.830      357.360      497.807      219.917        0.072        0.054       18.191        8.594        0.223      339.291       12.524      867.044
12/23/2014  16:37:00       19.888      -12.464       19.390       34.426       40.691       27.540     1185.125     1655.744      758.433        0.226        0.180       23.471       30.278        1.664      339.232       12.425      867.037
12/23/2014  16:38:00       -8.034       28.654       47.458       16.321       29.107       14.630      266.368      847.211      214.051        0.223        0.066       29.759       13.100        0.194      339.104       12.208      867.036
12/23/2014  16:39:00       64.508      -40.058       13.862       25.977       36.595       22.667      674.810     1339.159      513.796        0.424        0.126       75.934       23.918        0.099      339.217       12.397      867.054
12/23/2014  16:40:00       63.997      -43.153        1.992       19.645       23.536       17.050      385.912      553.928      290.713        0.360        0.062       77.187       12.349        0.026      339.264       12.476      867.065
12/23/2014  16:41:00       15.664       20.026       45.565       33.764       30.182       24.521     1139.995      910.954      601.303        0.269        0.133       25.424       25.661        1.019      339.152       12.289      867.083
12/23/2014  16:42:00       51.137      -14.532       31.881       38.640       44.207       25.706     1493.047     1954.224      660.795        0.397        0.205       53.162       26.218        0.243      339.149       12.285      867.096
12/23/2014  16:43:00       45.516      -20.632       20.262       39.302       60.888       31.413     1544.614     3707.399      986.761        0.457        0.312       49.974       35.947        0.517      339.181       12.337      867.103
12/23/2014  16:44:00       18.265      -67.369       12.234       20.638       44.143       27.608      425.944     1948.611      762.196        0.408        0.157       69.801       23.350        0.112      339.240       12.437      867.114
12/23/2014  16:45:00       14.966      -10.644       13.363       21.179       50.387       19.285      448.546     2538.851      371.905        0.194        0.168       18.365        5.615        0.093      339.172       12.323      867.108
12/23/2014  16:46:00       -7.189        6.200       28.684       16.020       23.692       21.497      256.638      561.322      462.108        0.110        0.064        9.493       10.687        1.267      339.065       12.143      867.122
12/23/2014  16:47:00        3.446       30.583       40.552       19.084       28.251       16.720      364.203      798.135      279.561        0.202        0.072       30.777       15.733        0.261      339.001       12.036      867.120
12/23/2014  16:48:00       85.397       39.904       21.328       35.557       18.584       19.978     1264.323      345.359      399.113        0.567        0.100       94.260        8.192        0.008      339.011       12.054      867.121
12/23/2014  16:49:00       47.134       16.849       26.901       32.766       29.734       20.011     1073.620      884.102      400.439        0.279        0.118       50.055       11.170        0.050      338.977       11.994      867.132
12/23/2014  16:50:00       77.809       42.882       21.591       45.016       29.816       32.876     2026.428      889.020     1080.827        0.618        0.200       88.843       19.825        0.050      338.976       11.994      867.125
12/23/2014  16:51:00       60.148       27.313       15.656       31.765       24.633       21.813     1009.029      606.777      475.803        0.335        0.105       66.059       16.602        0.063      338.919       11.898      867.114
12/23/2014  16:52:00       78.320       31.014       10.103       31.769       26.677       18.092     1009.290      711.664      327.316        0.462        0.102       84.237       13.923        0.027      338.864       11.804      867.102
12/23/2014  16:53:00       56.424       22.376       10.527       23.209       19.062       14.817      538.668      363.352      219.529        0.246        0.056       60.699        7.553        0.015      338.769       11.646      867.095
12/23/2014  16:54:00       26.890       16.430       15.850       24.230       15.125       11.468      587.106      228.765      131.515        0.110        0.047       31.513        3.445        0.012      338.734       11.586      867.094
12/23/2014  16:55:00       54.886        6.127        3.456       34.849       15.340       17.226     1214.484      235.301      296.724        0.240        0.087       55.226       19.067        0.119      338.830       11.748      867.083
12/23/2014  16:56:00       56.651       38.376       36.586       31.438       28.955       21.672      988.362      838.383      469.669        0.416        0.115       68.425       17.815        0.068      338.795       11.690      867.080
12/23/2014  16:57:00       57.491        6.233       21.908       35.825       24.000       24.826     1283.404      576.019      616.323        0.315        0.124       57.828       20.444        0.125      338.840       11.765      867.087
12/23/2014  16:58:00       24.172       27.352       40.613       27.090       21.562       18.825      733.842      464.941      354.377        0.227        0.078       36.502       14.274        0.153      338.782       11.666      867.088
12/23/2014  16:59:00       19.705       20.057       32.982       28.555       20.308       18.619      815.374      412.415      346.677        0.173        0.079       28.117       12.818        0.208      338.722       11.566      867.094
12/23/2014  17:00:00       35.080       34.209       36.962       28.455       19.308       17.426      809.703      372.782      303.660        0.263        0.074       48.999       12.282        0.063      338.735       11.588      867.103
12/23/2014  17:01:00      -15.785        0.347       15.001       11.743       18.090       10.930      137.908      327.257      119.456        0.053        0.029       15.789        9.940        0.396      338.683       11.500      867.097
12/23/2014  17:02:00      -13.392       15.943       25.133       13.480       12.809       10.773      181.717      164.059      116.053        0.076        0.023       20.822        9.016        0.188      338.679       11.492      867.095
12/23/2014  17:03:00       14.736       18.974       26.338       15.843       12.863        8.750      251.009      165.457       76.558        0.088        0.025       24.025        4.692        0.038      338.636       11.421      867.097
12/23/2014  17:04:00       47.379       24.243        2.195       11.598       12.587       10.607      134.525      158.443      112.515        0.162        0.020       53.221        4.069        0.006      338.659       11.459      867.102
12/23/2014  17:05:00       68.922       27.612       11.600       25.284       18.057       19.108      639.278      326.054      365.124        0.349        0.067       74.247       14.626        0.039      338.603       11.367      867.103
12/23/2014  17:06:00       89.981       36.117        8.512       19.138       18.347       18.094      366.256      336.622      327.410        0.525        0.052       96.959        9.778        0.010      338.644       11.435      867.110
12/23/2014  17:07:00       55.848       32.098       15.761       37.495       28.865       19.681     1405.894      833.204      387.357        0.351        0.131       64.415       10.284        0.025      338.576       11.321      867.113
12/23/2014  17:08:00       80.816       26.671       23.026       43.206       32.517       25.330     1866.740     1057.369      641.624        0.567        0.178       85.103       19.945        0.055      338.600       11.361      867.113
12/23/2014  17:09:00       90.192       41.349        8.102       30.478       26.316       20.656      928.921      692.546      426.651        0.598        0.102       99.219       12.868        0.017      338.613       11.385      867.118
12/23/2014  17:10:00       74.485       41.448       29.977       42.263       29.260       22.407     1786.169      856.133      502.086        0.565        0.157       85.240       17.823        0.044      338.560       11.294      867.124
12/23/2014  17:11:00       42.109       53.265       44.410       26.092       25.570       27.528      680.797      653.831      757.792        0.434        0.105       67.899       17.020        0.063      338.569       11.309      867.127
12/23/2014  17:12:00       70.427       16.669       14.079       37.141       32.250       22.968     1379.437     1040.040      527.524        0.419        0.147       72.372       14.880        0.042      338.632       11.415      867.124
12/23/2014  17:13:00       57.186       25.846       46.563       40.913       27.257       20.417     1673.841      742.937      416.869        0.447        0.142       62.755       22.040        0.123      338.588       11.341      867.109
12/23/2014  17:14:00       14.147       15.843       26.085       23.193       17.846       15.662      537.901      318.495      245.290        0.112        0.055       21.240        8.111        0.146      338.551       11.279      867.098
12/23/2014  17:15:00       62.098       35.714       10.434       23.850       23.782       21.408      568.808      565.575      458.294        0.342        0.080       71.636       16.753        0.055      338.525       11.236      867.088
12/23/2014  17:16:00       85.456       39.876       10.891       29.935       16.359       16.882      896.097      267.604      284.994        0.523        0.072       94.302        6.975        0.005      338.494       11.183      867.082
12/23/2014  17:17:00       71.957       16.291       24.646       36.826       26.661       22.885     1356.131      710.825      523.722        0.432        0.130       73.779       19.972        0.073      338.394       11.016      867.068
12/23/2014  17:18:00       41.565       17.849       27.934       32.089       24.306       19.173     1029.685      590.758      367.588        0.241        0.099       45.236       17.861        0.156      338.351       10.944      867.062
12/23/2014  17:19:00       -1.886       42.560       65.169       17.234       29.705       16.187      297.019      882.411      262.009        0.375        0.072       42.602       16.604        0.152      338.470       11.142      867.054
12/23/2014  17:20:00       24.232       60.114       62.510       25.886       25.768       20.388      670.083      664.006      415.671        0.493        0.087       64.814       16.143        0.062      338.491       11.180      867.045
12/23/2014  17:21:00       65.857       31.977       23.113       33.214       37.858       30.339     1103.156     1433.218      920.456        0.467        0.173       73.210       20.850        0.081      338.501       11.196      867.048
12/23/2014  17:22:00       18.970       11.035       28.201       26.439       24.235       14.702      699.023      587.317      216.135        0.139        0.075       21.947       14.246        0.421      338.387       11.004      867.050
12/23/2014  17:23:00       -9.295      -13.542       12.664       12.890       15.685        9.361      166.147      246.018       87.627        0.046        0.025       16.425        3.623        0.049      338.325       10.900      867.053
12/23/2014  17:24:00       -4.540       11.222       19.442        7.407        9.665        6.397       54.870       93.415       40.923        0.036        0.009       12.106        3.801        0.099      338.241       10.760      867.061
12/23/2014  17:25:00       -1.026        5.826       11.842        7.871       13.239       13.373       61.957      175.272      178.831        0.030        0.021        5.916        7.310        1.527      338.256       10.783      867.049
12/23/2014  17:26:00        2.704       27.159       36.188       13.341       13.756        9.975      177.971      189.229       99.507        0.126        0.023       27.294        7.926        0.084      338.298       10.853      867.038
12/23/2014  17:27:00       14.617       25.855       29.553       17.845       17.528       15.846      318.435      307.235      251.092        0.132        0.044       29.701       11.059        0.139      338.285       10.834      867.034
12/23/2014  17:28:00       21.019       11.351       19.025       20.782       21.749       17.027      431.897      473.000      289.924        0.106        0.060       23.888       17.311        0.525      338.383       10.997      867.046
12/23/2014  17:29:00       20.270        4.857       -0.914       17.418       12.133        9.762      303.371      147.208       95.292        0.049        0.027       20.844       10.633        0.260      338.298       10.855      867.073
12/23/2014  17:30:00       30.690        6.484       10.740       11.662       17.719       11.829      136.000      313.948      139.917        0.084        0.029       31.367        4.938        0.025      338.291       10.844      867.093
12/23/2014  17:31:00       46.765       22.209        9.842       20.617       15.979       11.822      425.065      255.328      139.759        0.180        0.041       51.771       10.918        0.044      338.241       10.759      867.116
12/23/2014  17:32:00       40.011       15.454        9.889       24.168       13.919       12.597      584.097      193.733      158.684        0.144        0.047       42.891        9.291        0.047      338.179       10.654      867.129
12/23/2014  17:33:00       42.755       17.528       16.700       15.745       16.422       12.838      247.893      269.687      164.822        0.155        0.034       46.208        6.645        0.021      338.217       10.718      867.126
12/23/2014  17:34:00       28.170        9.403        4.280       18.381       12.907       13.584      337.865      166.601      184.515        0.079        0.034       29.698        5.330        0.032      338.226       10.735      867.122
12/23/2014  17:35:00       46.256       17.531        7.435       22.154       12.622       14.190      490.803      159.317      201.345        0.168        0.043       49.466       12.171        0.061      338.206       10.701      867.105
12/23/2014  17:36:00       46.037       47.229       30.453       17.915       10.587       13.346      320.951      112.095      178.123        0.294        0.031       65.955        5.297        0.006      338.237       10.754      867.105
12/23/2014  17:37:00       26.906       23.303       31.024       13.958       16.423       10.322      194.830      269.719      106.545        0.140        0.029       35.595        8.864        0.062      338.186       10.667      867.100
12/23/2014  17:38:00        1.259       11.416       18.790       11.705       11.260       10.124      137.000      126.791      102.489        0.043        0.018       11.485        7.138        0.386      338.060       10.454      867.097
12/23/2014  17:39:00      -42.057       -0.669        1.726       16.254       19.389        8.681      264.204      375.922       75.359        0.124        0.036       42.062        6.652        0.025      337.821       10.053      867.090
12/23/2014  17:40:00      -62.914      -15.267      -10.851        8.120       13.958        8.358       65.928      194.819       69.859        0.232        0.017       64.740        6.021        0.009      337.685        9.826      867.101
12/23/2014  17:41:00      -54.323      -15.099       -7.666       11.615        8.766        8.637      134.907       76.837       74.590        0.176        0.014       56.383        4.433        0.006      337.901       10.189      867.107
12/23/2014  17:42:00      -65.798      -24.520       -8.947       15.523       13.475        9.629      240.970      181.569       92.717        0.276        0.026       70.218        5.478        0.006      337.896       10.179      867.124
12/23/2014  17:43:00      -26.722        2.370       -6.844       22.259       23.218       17.315      495.442      539.064      299.825        0.105        0.067       26.827       13.645        0.259      337.899       10.186      867.145
12/23/2014  17:44:00       -8.279       13.781        7.506       27.684       21.232       14.237      766.398      450.787      202.703        0.087        0.071       16.076       15.964        0.986      337.960       10.287      867.172
12/23/2014  17:45:00        2.940        7.827        8.782       21.178       20.956       14.453      448.527      439.147      208.900        0.062        0.055        8.361        7.090        0.719      337.970       10.304      867.171
12/23/2014  17:46:00        4.125      -10.779        4.676       18.893       17.191       14.328      356.940      295.528      205.286        0.051        0.043       11.541        7.377        0.409      337.827       10.064      867.174
12/23/2014  17:47:00      -58.230      -38.317       -6.673       17.311       20.556       12.185      299.680      422.532      148.469        0.289        0.044       69.706        8.112        0.014      337.495        9.507      867.167
12/23/2014  17:48:00      -72.194      -52.196       -6.243       15.133       11.205        7.197      229.021      125.542       51.790        0.419        0.020       89.086        5.009        0.003      337.582        9.654      867.171
12/23/2014  17:49:00      -71.768      -45.789       -9.805       12.756       10.970        9.354      162.720      120.342       87.489        0.386        0.019       85.131        7.399        0.008      337.434        9.405      867.168
12/23/2014  17:50:00      -84.275      -32.826      -11.062       15.822       14.267        7.969      250.343      203.535       63.498        0.441        0.026       90.442        5.983        0.004      337.382        9.319      867.172
12/23/2014  17:51:00      -59.416      -33.036      -12.721       19.552       14.809       13.438      382.292      219.316      180.567        0.278        0.039       67.982        9.069        0.018      337.437        9.409      867.156
12/23/2014  17:52:00      -74.576      -22.650      -13.936       17.456       17.314       10.816      304.719      299.770      116.979        0.349        0.036       77.940        8.042        0.011      337.493        9.503      867.149
12/23/2014  17:53:00      -43.551      -21.357      -13.293       15.995       11.029       10.725      255.836      121.640      115.035        0.151        0.025       48.506        8.857        0.033      337.443        9.420      867.137
12/23/2014  17:54:00      -53.622      -17.305       -6.046       15.368       11.604        9.518      236.184      134.654       90.588        0.184        0.023       56.345        6.003        0.011      337.212        9.035      867.133
12/23/2014  17:55:00      -71.937      -21.353      -11.316       16.545       14.313       10.106      273.721      204.865      102.133        0.317        0.029       75.039        5.070        0.005      337.115        8.871      867.119
12/23/2014  17:56:00      -95.101      -12.261      -12.479       12.759       11.786        8.404      162.780      138.919       70.629        0.486        0.019       95.888        6.968        0.005      337.054        8.769      867.132
12/23/2014  17:57:00      -98.452      -30.878      -11.022       14.037       21.676       17.162      197.048      469.869      294.535        0.586        0.048      103.181       13.582        0.017      337.141        8.914      867.130
12/23/2014  17:58:00      -81.313      -28.865      -11.935       32.913       21.357       15.785     1083.263      456.107      249.159        0.469        0.089       86.284       12.608        0.021      337.191        8.999      867.144
12/23/2014  17:59:00      -92.902      -25.312      -22.687       21.481       20.248       12.441      461.436      409.969      154.790        0.541        0.051       96.289        8.573        0.008      337.230        9.064      867.148
12/23/2014  18:00:00      -80.157      -25.675      -16.084       28.043       19.845       16.041      786.428      393.830      257.325        0.439        0.072       84.169        8.187        0.009      337.126        8.890      867.152
12/23/2014  18:01:00      -77.462      -39.800      -15.924       15.372       19.875       11.124      236.297      394.999      123.736        0.430        0.038       87.088        7.829        0.008      337.086        8.822      867.159
12/23/2014  18:02:00     -111.638      -21.715      -20.514       18.374       20.729       13.432      337.591      429.688      180.410        0.715        0.047      113.730       12.762        0.013      337.027        8.723      867.152
12/23/2014  18:03:00      -87.065      -46.625      -16.906       20.883       26.808       23.994      436.110      718.657      575.716        0.588        0.087       98.764       20.423        0.043      336.901        8.512      867.147
12/23/2014  18:04:00      -57.916      -41.027      -11.198       23.019       20.470       17.638      529.861      419.011      311.109        0.321        0.063       70.975       15.183        0.046      336.912        8.531      867.125
12/23/2014  18:05:00      -69.236      -38.853       -5.596       24.092       26.212       17.037      580.433      687.045      290.250        0.395        0.078       79.392       17.057        0.046      336.906        8.522      867.111
12/23/2014  18:06:00      -76.439      -41.165       -9.312       18.597       21.367       13.717      345.863      456.569      188.169        0.431        0.050       86.818        8.613        0.010      336.838        8.408      867.097
12/23/2014  18:07:00      -89.558      -30.312      -13.727       17.554       18.363       11.759      308.135      337.211      138.284        0.496        0.039       94.549       10.179        0.012      336.804        8.352      867.092
12/23/2014  18:08:00      -77.738      -41.960       -8.842       14.226       16.192       12.955      202.390      262.176      167.834        0.426        0.032       88.340        9.100        0.011      336.803        8.351      867.090
12/23/2014  18:09:00      -94.380      -29.106      -17.306       22.679       15.263       13.708      514.316      232.945      187.899        0.549        0.047       98.766       11.184        0.013      336.714        8.201      867.091
12/23/2014  18:10:00     -106.380      -38.427      -22.755       16.443       14.897       11.312      270.358      221.931      127.956        0.697        0.031      113.107        8.300        0.005      336.645        8.087      867.096
12/23/2014  18:11:00      -69.694      -34.099       -8.227       26.442       22.909       17.040      699.195      524.836      290.346        0.380        0.076       77.589        9.829        0.016      336.564        7.951      867.101
12/23/2014  18:12:00     -110.162      -29.575      -21.834       22.476       16.900       15.038      505.180      285.614      226.129        0.725        0.051      114.063       12.265        0.012      336.589        7.993      867.102
12/23/2014  18:13:00      -85.079      -20.002      -14.419       24.422       18.630       17.680      596.447      347.066      312.593        0.455        0.063       87.398       12.791        0.021      336.668        8.124      867.105
12/23/2014  18:14:00      -82.439      -20.105      -12.524       21.589       15.400       14.711      466.087      237.169      216.407        0.414        0.046       84.856        5.547        0.004      336.794        8.334      867.116
12/23/2014  18:15:00      -55.538      -20.444      -10.459       26.145       26.018       10.847      683.545      676.933      117.651        0.254        0.074       59.181        4.735        0.006      336.862        8.449      867.128
12/23/2014  18:16:00      -63.378      -30.122      -10.878       24.283       17.686       14.695      589.683      312.806      215.946        0.308        0.056       70.172       11.390        0.026      336.747        8.257      867.133
12/23/2014  18:17:00      -85.767      -43.247      -17.100       15.550       16.931       12.408      241.789      286.669      153.958        0.510        0.034       96.054        8.926        0.009      336.728        8.225      867.145
12/23/2014  18:18:00      -88.608      -38.760      -18.702       24.396       19.247       14.931      595.168      370.442      222.922        0.545        0.059       96.715       10.854        0.013      336.556        7.938      867.146
12/23/2014  18:19:00      -99.702      -25.996      -19.795       16.899       19.134       11.835      285.569      366.102      140.071        0.590        0.040      103.035       10.750        0.011      336.455        7.769      867.147
12/23/2014  18:20:00      -99.052      -24.956      -20.545       17.209       11.486       13.325      296.143      131.936      177.547        0.573        0.030      102.148        6.744        0.004      336.429        7.726      867.133
12/23/2014  18:21:00      -98.216      -24.458      -18.699       15.619       15.134       11.312      243.952      229.041      127.952        0.560        0.030      101.216        7.103        0.005      336.421        7.710      867.116
12/23/2014  18:22:00      -74.816      -32.345      -13.228       21.217       23.921       14.619      450.176      572.191      213.714        0.403        0.062       81.508       10.400        0.016      336.437        7.739      867.111
12/23/2014  18:23:00      -49.168      -27.776      -13.196       21.748       22.816       15.246      472.977      520.589      232.446        0.229        0.061       56.471       15.555        0.076      336.539        7.909      867.095
12/23/2014  18:24:00      -73.879      -22.137      -15.537       16.303       15.299       10.784      265.804      234.050      116.305        0.340        0.031       77.124        9.338        0.015      336.530        7.895      867.093
12/23/2014  18:25:00      -56.242      -18.440      -23.896       10.012       12.694       13.660      100.231      161.143      186.592        0.226        0.022       59.188       10.152        0.029      336.499        7.842      867.087
12/23/2014  18:26:00      -40.900      -12.290      -10.254       20.470       12.385       11.218      419.024      153.381      125.843        0.131        0.035       42.707        9.291        0.047      336.737        8.240      867.081
12/23/2014  18:27:00      -52.922      -10.170      -13.049        7.437        7.515        7.864       55.304       56.474       61.839        0.162        0.009       53.890        5.857        0.012      336.566        7.954      867.090
12/23/2014  18:28:00      -33.012      -13.856      -10.082       13.826       13.303        7.669      191.154      176.962       58.810        0.091        0.021       35.802        5.869        0.027      336.605        8.019      867.095
12/23/2014  18:29:00      -64.597      -21.719       -7.882       13.891       14.263       10.134      192.971      203.429      102.696        0.260        0.025       68.150        3.802        0.003      336.444        7.750      867.109
12/23/2014  18:30:00      -74.130      -32.265      -10.419       12.346       15.640       12.134      152.423      244.624      147.243        0.359        0.027       80.847        7.264        0.008      336.417        7.703      867.118
12/23/2014  18:31:00      -91.987      -14.794      -16.925       10.484       11.917        9.222      109.917      142.007       85.044        0.465        0.017       93.169        3.990        0.002      336.461        7.779      867.123
12/23/2014  18:32:00      -86.148      -24.895      -20.143       15.317       12.181       10.791      234.599      148.377      116.436        0.447        0.025       89.673        4.963        0.003      336.544        7.918      867.129
12/23/2014  18:33:00      -43.090      -53.045       -5.696       18.303       20.855       16.797      335.003      434.914      282.142        0.288        0.053       68.341       11.346        0.028      336.328        7.557      867.124
12/23/2014  18:34:00      -69.324      -34.223      -12.861       31.625       16.113       15.091     1000.153      259.640      227.731        0.381        0.074       77.312       18.181        0.055      336.372        7.631      867.132
12/23/2014  18:35:00      -66.952      -31.150      -14.450       13.368       13.977       12.235      178.712      195.369      149.693        0.309        0.026       73.844        9.105        0.015      336.330        7.558      867.134
12/23/2014  18:36:00      -65.867      -22.239      -18.976       13.487       14.916       12.363      181.899      222.477      152.855        0.288        0.028       69.520        6.973        0.010      336.348        7.590      867.142
12/23/2014  18:37:00      -55.563      -26.244      -17.167       20.341       12.191       10.618      413.741      148.624      112.750        0.237        0.034       61.449        6.340        0.011      336.510        7.859      867.142
12/23/2014  18:38:00      -57.148      -23.735      -14.862       15.671       14.294        9.937      245.582      204.306       98.751        0.230        0.027       61.881       10.902        0.031      336.444        7.749      867.148
12/23/2014  18:39:00      -35.687      -12.142       -6.012       22.654       12.954       10.363      513.210      167.799      107.386        0.112        0.039       37.696       11.343        0.091      336.677        8.139      867.148
12/23/2014  18:40:00      -45.621      -21.815      -13.341       20.147       21.697       12.956      405.900      470.746      167.852        0.189        0.052       50.568        8.534        0.028      336.599        8.008      867.154
12/23/2014  18:41:00      -86.216      -20.596      -13.614       19.123       13.454       12.039      365.672      181.018      144.931        0.437        0.035       88.642       12.276        0.019      336.361        7.610      867.144
12/23/2014  18:42:00      -73.627      -35.060      -18.328       24.425       25.102       18.432      596.574      630.095      339.721        0.428        0.078       81.549       16.499        0.041      336.254        7.432      867.146
12/23/2014  18:43:00      -91.687      -28.142      -21.488       18.734       18.388       11.296      350.970      338.114      127.596        0.524        0.041       95.908        6.518        0.005      336.174        7.297      867.132
12/23/2014  18:44:00      -73.718      -16.080      -21.131       23.156       12.030        7.348      536.187      144.729       53.997        0.344        0.037       75.452        4.670        0.004      336.231        7.394      867.122
12/23/2014  18:45:00      -54.851      -12.982      -21.090       11.314       14.381       10.736      128.011      206.808      115.252        0.204        0.023       56.367        7.204        0.016      336.304        7.516      867.093
12/23/2014  18:46:00      -60.120       -6.398      -22.547       10.893        9.941        7.666      118.649       98.816       58.772        0.222        0.014       60.460        3.930        0.004      336.286        7.486      867.073
12/23/2014  18:47:00      -16.864      -14.451       -6.366       11.871       11.587       12.147      140.931      134.249      147.558        0.048        0.021       22.208        8.290        0.139      336.433        7.731      867.048
12/23/2014  18:48:00      -10.477      -13.328       -4.622        9.162       17.710       12.278       83.937      313.653      150.742        0.043        0.027       16.953        4.562        0.072      336.521        7.877      867.036
12/23/2014  18:49:00      -14.308       23.575       -7.465       20.352       23.891       20.559      414.213      570.800      422.676        0.111        0.070       27.577       18.029        0.427      336.923        8.550      867.022
12/23/2014  18:50:00      -16.639       44.424       -9.339       20.450       23.643       14.192      418.219      559.008      201.418        0.176        0.059       47.438       13.763        0.084      337.063        8.784      867.008
12/23/2014  18:51:00        4.080       68.721      -13.373       10.943       10.925        6.003      119.756      119.359       36.040        0.260        0.014       68.842        3.862        0.003      337.171        8.966      866.994
12/23/2014  18:52:00       -1.612       65.818       -8.456        7.875       11.066        6.001       62.010      122.454       36.012        0.231        0.011       65.837        4.350        0.004      337.194        9.004      866.994
12/23/2014  18:53:00        1.264       71.678       -9.047       14.328       12.453        7.351      205.297      155.072       54.037        0.282        0.021       71.689        7.003        0.010      337.158        8.943      866.989
12/23/2014  18:54:00       -5.157       47.055       -2.091       18.470       23.985       10.444      341.158      575.277      109.068        0.164        0.051       47.337       12.438        0.069      337.001        8.682      866.992
12/23/2014  18:55:00       -9.261       -4.241       -3.421       17.686       30.207       13.105      312.804      912.484      171.742        0.076        0.070       10.186       16.020        2.473      336.491        7.828      866.989
12/23/2014  18:56:00      -27.757       20.579       -5.198       23.089       33.018       15.764      533.093     1090.165      248.513        0.155        0.094       34.554        7.635        0.049      336.604        8.016      866.975
12/23/2014  18:57:00      -20.551       92.374      -17.129       27.676       33.402       11.056      765.984     1115.694      122.241        0.563        0.100       94.633       11.548        0.015      336.955        8.605      866.974
12/23/2014  18:58:00       -6.760      103.321      -16.629       17.476       22.027       10.009      305.405      485.199      100.186        0.594        0.045      103.542       10.223        0.010      337.059        8.776      866.964
12/23/2014  18:59:00        0.972       95.016      -16.476       19.904       19.694        9.448      396.158      387.850       89.272        0.509        0.044       95.021        6.331        0.004      337.016        8.704      866.948
12/23/2014  19:00:00       -9.345       92.551      -13.236       18.278       18.531       10.527      334.079      343.409      110.813        0.481        0.039       93.022        8.194        0.008      336.959        8.609      866.952
12/23/2014  19:01:00       -3.032       89.236      -13.217       20.846       14.010        9.277      434.568      196.274       86.067        0.443        0.036       89.287       10.041        0.013      336.973        8.634      866.941
12/23/2014  19:02:00       10.681       62.341       -7.130       20.682       18.308       10.007      427.738      335.180      100.140        0.246        0.043       63.250       10.194        0.026      336.915        8.537      866.924
12/23/2014  19:03:00       16.259       40.526       -5.857       13.372       19.661       11.467      178.797      386.549      131.490        0.132        0.035       43.666       11.948        0.075      336.837        8.407      866.914
12/23/2014  19:04:00       14.341       59.043       -8.966       15.074       16.329        8.117      227.230      266.646       65.880        0.217        0.028       60.760        6.829        0.013      336.801        8.348      866.917
12/23/2014  19:05:00       10.534       53.624       -5.799       12.745       12.995        7.131      162.443      168.862       50.856        0.170        0.019       54.649        4.181        0.006      336.786        8.320      866.914
12/23/2014  19:06:00        8.997       88.697      -13.641       16.266       23.482        8.234      264.577      551.412       67.804        0.451        0.044       89.152       10.650        0.014      336.853        8.434      866.927
12/23/2014  19:07:00        3.601      102.088      -22.411       15.788       16.976        8.677      249.246      288.201       75.292        0.577        0.031      102.151        5.494        0.003      336.883        8.482      866.937
12/23/2014  19:08:00      -24.337       77.529      -15.013       21.189       29.305       11.495      448.969      858.776      132.134        0.413        0.072       81.259       10.088        0.015      336.860        8.444      866.942
12/23/2014  19:09:00        0.165       90.084      -11.318       29.391       29.227       15.835      863.819      854.219      250.751        0.511        0.098       90.084       14.734        0.027      336.869        8.461      866.955
12/23/2014  19:10:00      -17.179        8.224       -2.455       20.324       26.682       13.236      413.051      711.909      175.201        0.083        0.065       19.046       11.941        0.393      336.314        7.532      866.974
12/23/2014  19:11:00      -21.874       43.771       -8.472       28.589       51.885       18.686      817.344     2692.008      349.166        0.316        0.193       48.933       19.439        0.158      336.577        7.972      866.972
12/23/2014  19:12:00        1.515       34.393       -4.491       16.865       18.419        9.656      284.441      339.267       93.244        0.096        0.036       34.426       10.981        0.102      336.789        8.327      866.963
12/23/2014  19:13:00      -24.242       -2.486       -0.302       30.581       17.108       17.986      935.178      292.688      323.487        0.107        0.078       24.369       15.727        0.416      336.308        7.524      866.958
12/23/2014  19:14:00      -23.793       -8.395       -6.971       14.742       12.958       12.781      217.334      167.907      163.357        0.062        0.027       25.230        9.970        0.156      336.333        7.566      866.961
12/23/2014  19:15:00       -8.102       40.073       -3.365       27.770       28.119       14.537      771.195      790.672      211.324        0.173        0.089       40.884       12.001        0.086      336.714        8.200      866.952
12/23/2014  19:16:00      -22.958       44.245       -4.735       21.815       26.689       13.333      475.907      712.293      177.763        0.194        0.068       49.847       11.990        0.058      336.713        8.201      866.947
12/23/2014  19:17:00      -16.862       65.436      -12.708       19.470       19.781        9.728      379.070      391.279       94.641        0.280        0.043       67.574        4.399        0.004      336.868        8.458      866.954
12/23/2014  19:18:00      -22.940       58.828       -7.217       32.893       42.735       18.541     1081.930     1826.285      343.783        0.364        0.163       63.143       22.496        0.127      336.823        8.383      866.951
12/23/2014  19:19:00      -35.618       43.565       -6.945       32.522       35.213       17.793     1057.653     1239.972      316.608        0.291        0.131       56.272       18.414        0.107      336.534        7.902      866.952
12/23/2014  19:20:00      -30.523       20.554       -6.478       34.476       30.182       16.966     1188.617      910.971      287.834        0.189        0.119       36.799       19.224        0.273      336.400        7.676      866.962
12/23/2014  19:21:00      -41.701       58.833      -11.245       31.224       30.667       18.165      974.959      940.472      329.967        0.379        0.112       72.113       16.255        0.051      336.726        8.220      866.956
12/23/2014  19:22:00      -35.731       55.576       -9.051       45.405       32.775       18.298     2061.573     1074.208      334.835        0.396        0.174       66.071       17.147        0.067      336.689        8.160      866.942
12/23/2014  19:23:00      -33.556       -0.273        1.971       17.324       21.015       16.544      300.114      441.627      273.720        0.107        0.051       33.557       15.226        0.206      336.358        7.606      866.946
12/23/2014  19:24:00      -31.678        7.576       -2.440       24.971       17.752       15.872      623.566      315.139      251.910        0.113        0.060       32.571       15.322        0.221      336.353        7.597      866.948
12/23/2014  19:25:00      -33.197        8.834       -6.178       23.264       26.947       12.447      541.205      726.149      154.936        0.132        0.071       34.352       13.012        0.143      336.544        7.918      866.943
12/23/2014  19:26:00      -51.788       -8.563       -9.163       19.124       15.998       11.801      365.724      255.924      139.261        0.180        0.038       52.491        6.478        0.015      335.928        6.888      866.954
12/23/2014  19:27:00      -41.584        1.093       -6.139       26.048       24.509       14.865      678.504      600.673      220.970        0.163        0.075       41.599        9.638        0.054      336.242        7.413      866.965
12/23/2014  19:28:00      -44.562       17.993      -14.318       20.831       36.752       17.382      433.921     1350.736      302.147        0.230        0.104       48.057       16.744        0.121      336.437        7.738      866.972
12/23/2014  19:29:00      -39.837        6.734      -16.735       26.365       26.768       15.885      695.094      716.542      252.327        0.179        0.083       40.402       15.468        0.147      336.392        7.663      866.977
12/23/2014  19:30:00      -56.870       -7.035      -14.335       23.895       24.404       16.912      570.995      595.565      286.016        0.247        0.073       57.304        9.742        0.029      336.069        7.124      866.998
12/23/2014  19:31:00      -65.281       -2.105      -11.058       30.457       24.448       18.238      927.626      597.697      332.623        0.312        0.093       65.315       11.988        0.034      336.104        7.181      867.017
12/23/2014  19:32:00      -87.300       -4.671      -15.805       43.937       27.038       17.746     1930.436      731.059      314.905        0.543        0.149       87.425       13.169        0.023      335.845        6.750      867.051
12/23/2014  19:33:00      -44.956        3.424       -9.667       46.075       38.499       18.483     2122.882     1482.167      341.622        0.304        0.197       45.087       11.447        0.064      336.015        7.033      867.072
12/23/2014  19:34:00      -44.937        4.360       -3.330       31.177       22.484       17.407      972.020      505.537      303.006        0.191        0.089       45.148       18.337        0.165      335.980        6.975      867.081
12/23/2014  19:35:00      -78.741      -22.513      -16.850       15.690       22.066       12.500      246.177      486.918      156.249        0.394        0.044       81.896        8.715        0.011      335.724        6.548      867.088
12/23/2014  19:36:00      -86.536      -16.985      -15.662       19.409       21.540       11.367      376.703      463.979      129.198        0.450        0.048       88.187        9.798        0.012      335.794        6.665      867.087
12/23/2014  19:37:00      -77.905      -22.535      -14.778       13.235       15.217       10.464      175.178      231.561      109.495        0.366        0.026       81.099        4.762        0.003      335.720        6.542      867.092
12/23/2014  19:38:00      -43.327       -4.211       -1.977       26.555       32.670       22.663      705.174     1067.360      513.621        0.209        0.114       43.531       23.392        0.289      336.073        7.130      867.091
12/23/2014  19:39:00      -33.385       20.796       -6.607       17.819       28.611       15.911      317.521      818.601      253.152        0.149        0.069       39.332       14.258        0.131      336.241        7.412      867.081
12/23/2014  19:40:00      -26.379       24.181        0.054       16.923       29.570       15.822      286.387      874.410      250.330        0.135        0.071       35.786       17.359        0.235      336.294        7.500      867.059
12/23/2014  19:41:00       -2.807       73.780      -12.698       25.634       28.145       13.794      657.115      792.116      190.273        0.363        0.082       73.833       12.822        0.030      336.569        7.960      867.054
12/23/2014  19:42:00      -19.821       76.000       -0.875       26.460       53.595       23.145      700.142     2872.421      535.670        0.514        0.205       78.542       24.521        0.097      336.585        7.984      867.037
12/23/2014  19:43:00      -17.681      108.030      -12.136       16.585       23.339       18.353      275.063      544.719      336.840        0.664        0.058      109.467       14.401        0.017      336.744        8.251      867.025
12/23/2014  19:44:00      -34.568      105.156      -16.761       19.294       38.855       20.016      372.269     1509.744      400.626        0.741        0.114      110.692       12.389        0.013      336.823        8.382      867.002
12/23/2014  19:45:00      -13.399      122.396      -22.591       16.058       30.105       12.448      257.856      906.290      154.965        0.849        0.066      123.127        8.223        0.004      336.798        8.342      866.989
12/23/2014  19:46:00      -18.116      117.537      -15.135       22.950       24.014       13.734      526.717      576.666      188.611        0.783        0.065      118.925        6.501        0.003      336.778        8.309      866.974
12/23/2014  19:47:00      -11.113       96.858      -12.357       13.862       14.914        7.211      192.153      222.421       51.995        0.506        0.023       97.493        5.626        0.003      336.588        7.991      866.967
12/23/2014  19:48:00       -0.489       68.176       -9.636       14.234       21.629       10.130      202.603      467.800      102.618        0.276        0.039       68.178       12.175        0.032      336.473        7.797      866.975
12/23/2014  19:49:00      -32.023       60.948      -11.119       30.661       37.769        8.238      940.072     1426.477       67.868        0.365        0.122       68.849        3.693        0.003      336.306        7.520      866.999
12/23/2014  19:50:00      -35.449        9.409       -7.638       25.976       26.641       23.426      674.772      709.760      548.781        0.167        0.097       36.676       19.418        0.280      336.207        7.355      867.001
12/23/2014  19:51:00      -25.532       17.670       -0.304       22.722       31.984       14.334      516.270     1022.950      205.455        0.135        0.087       31.050       16.715        0.290      336.340        7.577      866.987
12/23/2014  19:52:00        5.526       13.098        0.350       20.082       31.162       10.531      403.295      971.085      110.906        0.084        0.074       14.216        8.217        0.334      336.428        7.724      866.969
12/23/2014  19:53:00      -27.926      -31.407       -9.543       14.861        8.945        9.729      220.858       80.006       94.649        0.113        0.020       42.027        9.128        0.047      335.823        6.713      866.949
12/23/2014  19:54:00      -29.147      -31.468       -8.263       17.138       15.334       16.873      293.711      235.139      284.712        0.136        0.041       42.892        8.776        0.042      335.872        6.795      866.947
12/23/2014  19:55:00      -41.975      -20.360       -7.530       11.600        9.628        7.033      134.567       92.698       49.466        0.125        0.014       46.652        7.634        0.027      335.785        6.650      866.950
12/23/2014  19:56:00      -56.973      -30.144       -6.610       12.235        8.914       10.507      149.692       79.451      110.405        0.227        0.017       64.456        7.655        0.014      335.732        6.562      866.951
12/23/2014  19:57:00      -75.649      -31.746      -16.010       12.835       11.450        9.596      164.738      131.105       92.090        0.369        0.019       82.040        7.766        0.009      335.723        6.546      866.957
12/23/2014  19:58:00      -63.361      -45.729      -12.732       19.381       17.262       15.818      375.612      297.968      250.216        0.360        0.046       78.139       10.602        0.018      335.716        6.535      866.970
12/23/2014  19:59:00      -63.788      -38.502       -9.100       32.766       21.807       17.273     1073.590      475.549      298.340        0.374        0.092       74.507       17.352        0.054      335.677        6.469      866.983
12/23/2014  20:00:00      -84.407      -33.470       -7.872       37.318       16.345       16.629     1392.627      267.154      276.538        0.512        0.097       90.800       22.066        0.059      335.638        6.404      866.990
12/23/2014  20:01:00      -87.257      -40.424      -10.572       18.882       16.223       16.417      356.537      263.184      269.527        0.512        0.044       96.166        9.677        0.010      335.645        6.417      866.989
12/23/2014  20:02:00      -68.639      -40.600       -5.767       18.024       15.300       13.101      324.879      234.079      171.648        0.356        0.037       79.747        8.070        0.010      335.668        6.455      866.977
12/23/2014  20:03:00      -73.542      -64.297      -11.893       16.763       15.284       13.447      281.003      233.601      180.834        0.519        0.035       97.686        8.949        0.008      335.692        6.497      866.951
12/23/2014  20:04:00      -91.470      -42.346      -18.043       12.138        9.990        7.561      147.336       99.802       57.175        0.539        0.015      100.797        5.405        0.003      335.674        6.466      866.936
12/23/2014  20:05:00      -89.818      -39.271      -17.190        7.572        9.649        7.133       57.337       93.102       50.881        0.505        0.010       98.028        2.067        0.000      335.660        6.443      866.936
12/23/2014  20:06:00     -106.217      -54.744      -13.868       15.697       16.057        9.741      246.408      257.820       94.887        0.754        0.030      119.495        8.222        0.005      335.571        6.294      866.928
12/23/2014  20:07:00     -110.053      -60.055       -6.597       25.580       17.913       19.464      654.359      320.867      378.858        0.856        0.068      125.373       13.585        0.012      335.460        6.108      866.924
12/23/2014  20:08:00     -132.299      -55.162       -9.582       19.171       19.300       12.069      367.515      372.499      145.654        1.076        0.044      143.338        5.532        0.001      335.464        6.114      866.913
12/23/2014  20:09:00     -141.899      -61.039      -12.139       15.596       16.090       12.019      243.248      258.877      144.445        1.233        0.032      154.470        5.898        0.001      335.431        6.060      866.886
12/23/2014  20:10:00      -95.173      -52.994        3.801       33.497       27.816       19.391     1122.064      773.719      376.001        0.708        0.114      108.932       18.289        0.028      335.371        5.960      866.864
12/23/2014  20:11:00      -85.317      -38.887        4.044       38.133       23.268       22.388     1454.094      541.415      501.242        0.565        0.125       93.761       24.928        0.071      335.402        6.011      866.841
12/23/2014  20:12:00      -60.467      -57.195        3.850       34.058       32.008       22.094     1159.966     1024.486      488.139        0.481        0.134       83.231       21.719        0.068      335.492        6.162      866.809
12/23/2014  20:13:00      -77.200      -50.744       -2.513       29.931       28.719       18.290      895.889      824.757      334.537        0.530        0.103       92.384       16.518        0.032      335.454        6.097      866.780
12/23/2014  20:14:00     -107.864      -55.771       -6.426       19.525       15.565        9.946      381.232      242.270       98.925        0.775        0.036      121.429        6.103        0.003      335.415        6.032      866.745
12/23/2014  20:15:00     -118.921      -54.505      -11.628       16.222       13.800       11.704      263.159      190.442      136.988        0.892        0.030      130.817        7.998        0.004      335.360        5.942      866.721
12/23/2014  20:16:00     -129.903      -60.290       -7.683       21.482       17.884       14.394      461.461      319.851      207.201        1.078        0.049      143.212       11.117        0.006      335.366        5.951      866.720
12/23/2014  20:17:00     -134.861      -62.552       -3.872       23.005       21.056       16.364      529.214      443.363      267.775        1.168        0.062      148.662       14.621        0.010      335.414        6.031      866.731
12/23/2014  20:18:00     -101.619      -61.844       -0.111       35.689       18.773       20.006     1273.729      352.410      400.244        0.809        0.101      118.958       18.283        0.024      335.373        5.962      866.749
12/23/2014  20:19:00      -90.086      -60.110       -5.695       34.894       24.176       20.370     1217.610      584.485      414.934        0.699        0.111      108.299       15.442        0.020      335.370        5.956      866.775
12/23/2014  20:20:00     -110.750      -61.349       -5.997       24.432       20.701       13.486      596.903      428.511      181.878        0.864        0.060      126.607        9.721        0.006      335.366        5.951      866.785
12/23/2014  20:21:00     -100.410      -50.460       -5.721       24.284       17.823       12.772      589.690      317.653      163.130        0.687        0.054      112.376       13.588        0.015      335.346        5.918      866.796
12/23/2014  20:22:00      -85.279      -43.020       -1.516       18.699       20.159       15.264      349.660      406.392      232.981        0.506        0.049       95.515       11.597        0.015      335.337        5.903      866.792
12/23/2014  20:23:00      -87.896      -48.847       -2.196       17.540       14.588       11.373      307.667      212.822      129.344        0.538        0.032      100.557        5.324        0.003      335.330        5.891      866.784
12/23/2014  20:24:00      -96.541      -54.104      -10.141       12.030       10.168        9.333      144.711      103.379       87.106        0.634        0.017      110.668        7.483        0.005      335.327        5.886      866.783
12/23/2014  20:25:00      -83.587      -44.838       -0.695       18.990       13.578       10.635      360.625      184.349      113.094        0.483        0.033       94.854       10.265        0.012      335.299        5.840      866.779
12/23/2014  20:26:00      -91.638      -46.690       -5.872       15.587       14.365       12.684      242.960      206.361      160.872        0.561        0.031      102.847        9.553        0.009      335.280        5.807      866.764
12/23/2014  20:27:00      -95.522      -50.421       -5.644       22.723       15.023       13.546      516.335      225.696      183.483        0.631        0.046      108.012       11.740        0.012      335.275        5.799      866.758
12/23/2014  20:28:00      -71.064      -44.241       -0.799       37.924       21.850       17.265     1438.245      477.438      298.092        0.461        0.111       83.710       15.339        0.034      335.213        5.697      866.759
12/23/2014  20:29:00      -84.333      -50.048       -1.304       37.323       15.897       14.884     1393.022      252.718      221.544        0.574        0.093       98.066       16.789        0.029      335.219        5.706      866.743
12/23/2014  20:30:00     -101.354      -59.496       -3.874       21.838       19.900       18.104      476.910      396.021      327.754        0.751        0.060      117.526       14.615        0.015      335.243        5.746      866.731
12/23/2014  20:31:00      -88.139      -59.559       -6.223       39.912       29.039       19.314     1592.983      843.268      373.038        0.708        0.140      106.376       12.272        0.013      335.228        5.722      866.724
12/23/2014  20:32:00     -102.175      -82.130       -2.798       48.294       40.202       24.178     2332.306     1616.222      584.590        1.086        0.227      131.092       22.015        0.028      335.251        5.761      866.709
12/23/2014  20:33:00     -115.681      -76.884        0.043       37.495       28.610       22.155     1405.860      818.548      490.851        1.100        0.136      138.900       19.794        0.020      335.199        5.674      866.695
12/23/2014  20:34:00     -119.693      -71.924        0.316       34.935       23.979       23.657     1220.437      574.978      559.673        1.093        0.118      139.641       20.694        0.022      335.213        5.697      866.675
12/23/2014  20:35:00     -107.494      -47.428      -10.661       13.977       22.106       17.699      195.370      488.689      313.265        0.746        0.050      117.492       14.178        0.015      335.188        5.657      866.648
12/23/2014  20:36:00     -100.912      -66.356       -2.859       29.270       27.163       19.593      856.738      737.855      383.890        0.829        0.099      120.774       18.584        0.024      335.274        5.799      866.623
12/23/2014  20:37:00     -101.184      -28.907       -7.578       20.114       18.301       14.016      404.563      334.933      196.438        0.603        0.047      105.232       10.581        0.010      335.342        5.912      866.615
12/23/2014  20:38:00     -103.723      -49.166       -2.048       24.497       19.772       11.366      600.123      390.918      129.176        0.715        0.056      114.785       12.236        0.011      335.309        5.855      866.605
12/23/2014  20:39:00     -111.770      -39.241       -5.747       19.020       16.301       11.412      361.753      265.716      130.225        0.741        0.038      118.458        8.863        0.006      335.336        5.901      866.598
12/23/2014  20:40:00     -113.469      -37.543       -4.254       27.472       21.859       14.770      754.715      477.833      218.162        0.788        0.073      119.518       15.233        0.016      335.303        5.847      866.605
12/23/2014  20:41:00     -110.867      -49.838        0.457       30.246       23.653       17.658      914.795      559.460      311.813        0.828        0.089      121.553       17.731        0.021      335.232        5.727      866.610
12/23/2014  20:42:00     -120.914      -56.194       -5.862       15.435       22.971       13.161      238.244      527.682      173.223        0.938        0.047      133.334        6.774        0.003      335.192        5.661      866.614
12/23/2014  20:43:00     -123.126      -43.605       -9.882       23.776       22.987       14.019      565.311      528.425      196.534        0.922        0.065      130.619        9.173        0.005      335.045        5.419      866.620
12/23/2014  20:44:00      -88.217      -35.978       -4.425       26.332       20.766       15.353      693.398      431.227      235.700        0.523        0.068       95.271       14.309        0.023      335.036        5.405      866.615
12/23/2014  20:45:00      -88.952      -38.564       -2.274       18.249       19.002       13.497      333.039      361.071      182.171        0.514        0.044       96.952       10.983        0.013      335.066        5.454      866.599
12/23/2014  20:46:00      -86.204      -36.709       -8.962       17.866       16.109       14.425      319.201      259.502      208.090        0.482        0.039       93.694       13.498        0.021      335.110        5.527      866.592
12/23/2014  20:47:00      -97.280      -36.025      -11.140       11.134       13.574       11.254      123.974      184.244      126.654        0.566        0.022      103.736        7.443        0.005      335.153        5.596      866.579
12/23/2014  20:48:00      -95.805      -29.584       -9.119       19.296       13.759       11.662      372.328      189.319      135.997        0.542        0.035      100.269       10.687        0.011      335.133        5.565      866.561
12/23/2014  20:49:00      -96.143      -28.945      -11.774       21.384       18.455       12.327      457.296      340.593      151.947        0.558        0.047      100.406       11.441        0.013      335.099        5.508      866.546
12/23/2014  20:50:00      -99.224      -33.643      -17.438       10.690       16.600       12.861      114.274      275.575      165.408        0.592        0.028      104.772        2.220        0.000      335.069        5.460      866.537
12/23/2014  20:51:00      -87.803      -39.671      -18.336       22.533       12.796       10.896      507.742      163.727      118.720        0.520        0.040       96.349       11.061        0.013      334.973        5.300      866.538
12/23/2014  20:52:00      -95.386      -38.650      -15.187       14.972       20.072       11.038      224.173      402.890      121.840        0.579        0.037      102.919        9.760        0.009      334.949        5.260      866.537
12/23/2014  20:53:00      -94.481      -19.931       -2.544       12.844       19.332       12.439      164.958      373.710      154.739        0.501        0.035       96.560        9.356        0.009      334.912        5.197      866.536
12/23/2014  20:54:00     -101.086      -32.667      -15.066       21.254       13.838       14.090      451.736      191.485      198.518        0.618        0.042      106.233       11.712        0.012      334.820        5.045      866.543
12/23/2014  20:55:00     -106.175      -42.085      -18.082       15.757       14.316       10.922      248.273      204.952      119.299        0.697        0.029      114.211        8.377        0.005      334.794        5.000      866.542
12/23/2014  20:56:00     -103.649      -37.461      -16.181       14.162       13.994       10.541      200.570      195.823      111.111        0.646        0.025      110.211        6.296        0.003      334.781        4.981      866.538
12/23/2014  20:57:00     -105.235      -31.719      -18.400       11.743       12.837       10.309      137.892      164.796      106.272        0.641        0.020      109.911        5.120        0.002      334.820        5.044      866.531
12/23/2014  20:58:00      -89.092       -7.871       -6.357       22.955       16.850       13.849      526.911      283.925      191.787        0.452        0.050       89.439       10.730        0.014      334.872        5.131      866.521
12/23/2014  20:59:00     -112.932       -8.455      -19.714       20.612       16.976       14.980      424.847      288.189      224.409        0.708        0.047      113.248       13.742        0.015      334.944        5.251      866.507
12/23/2014  21:00:00     -125.431      -14.968      -19.890        9.877       12.218        9.707       97.557      149.276       94.218        0.835        0.017      126.321        2.669        0.000      334.782        4.982      866.501
12/23/2014  21:01:00     -125.447      -20.677      -21.064       22.117       17.799       14.840      489.175      316.792      220.234        0.882        0.051      127.140       10.423        0.007      334.688        4.826      866.495
12/23/2014  21:02:00     -122.520      -31.623      -15.841       18.123       20.109       11.746      328.435      404.357      137.969        0.857        0.044      126.536        7.451        0.003      334.657        4.775      866.506
12/23/2014  21:03:00      -95.752      -50.725      -17.521       16.733       20.633       11.915      279.984      425.726      141.962        0.645        0.042      108.358       10.535        0.009      334.641        4.747      866.511
12/23/2014  21:04:00     -100.697      -53.862      -13.094       22.610       21.068       20.022      511.205      443.879      400.865        0.728        0.068      114.197       15.009        0.017      334.632        4.732      866.503
12/23/2014  21:05:00     -121.186      -40.266      -21.585       38.010       17.403       13.685     1444.739      302.859      187.277        0.935        0.097      127.700       14.187        0.012      334.653        4.768      866.504
12/23/2014  21:06:00     -121.437      -31.079      -17.067       26.624       19.420       17.076      708.857      377.127      291.581        0.869        0.069      125.351       10.013        0.006      334.578        4.641      866.490
12/23/2014  21:07:00      -97.163      -42.426      -11.877       31.726       27.925       20.984     1006.556      779.803      440.334        0.680        0.111      106.021       16.722        0.025      334.559        4.610      866.466
12/23/2014  21:08:00     -101.139      -27.784      -10.720       26.218       21.654       16.763      687.365      468.912      281.003        0.628        0.072      104.886       11.915        0.013      334.558        4.610      866.456
12/23/2014  21:09:00     -111.698      -17.709      -11.221       29.543       23.878       19.603      872.807      570.148      384.285        0.737        0.091      113.093       16.362        0.021      334.575        4.637      866.440
12/23/2014  21:10:00      -99.718      -21.831      -10.347       33.772       21.364       17.659     1140.529      456.427      311.831        0.622        0.095      102.080       13.505        0.018      334.655        4.771      866.424
12/23/2014  21:11:00      -85.192      -30.878      -14.980       29.258       22.953       14.737      856.023      526.847      217.190        0.502        0.080       90.615       11.166        0.015      334.690        4.829      866.426
12/23/2014  21:12:00     -111.993      -17.495      -22.006       16.049       18.921       17.812      257.584      358.007      317.272        0.713        0.047      113.351       10.576        0.009      334.701        4.848      866.454
12/23/2014  21:13:00     -122.884      -26.380      -18.588       30.269       24.130       14.005      916.184      582.237      196.128        0.892        0.085      125.683       10.487        0.007      334.633        4.736      866.477
12/23/2014  21:14:00     -106.309      -24.976      -17.836       27.404       27.596       15.714      750.995      761.554      246.941        0.700        0.088      109.204       13.694        0.016      334.615        4.704      866.487
12/23/2014  21:15:00      -96.216      -26.425       -9.531       37.352       26.378       16.784     1395.147      695.797      281.692        0.621        0.119       99.779       11.087        0.012      334.659        4.778      866.493
12/23/2014  21:16:00      -89.323      -46.465      -22.186       22.860       28.016       19.121      522.592      784.875      365.621        0.615        0.084      100.686       10.534        0.011      334.594        4.670      866.470
12/23/2014  21:17:00      -44.012      -49.240      -17.986       30.223       25.913       24.022      913.410      671.484      577.063        0.342        0.108       66.042       15.604        0.056      334.617        4.708      866.456
12/23/2014  21:18:00      -97.434      -44.235      -22.668       21.567       25.418       16.532      465.134      646.081      273.315        0.667        0.069      107.005       15.465        0.021      334.596        4.673      866.450
12/23/2014  21:19:00     -108.095      -37.268      -17.781       19.328       19.934       15.081      373.570      397.370      227.427        0.719        0.050      114.339       11.014        0.009      334.612        4.699      866.433
12/23/2014  21:20:00     -101.991      -44.861      -16.920       17.166       17.953       12.892      294.662      322.302      166.212        0.674        0.039      111.421        8.216        0.005      334.638        4.742      866.429
12/23/2014  21:21:00     -100.931      -28.897      -16.541       23.976       15.602       15.217      574.843      243.410      231.558        0.617        0.052      104.986       13.891        0.018      334.668        4.793      866.403
12/23/2014  21:22:00      -94.072      -13.834      -12.017       19.802       13.954        9.684      392.110      194.719       93.778        0.493        0.034       95.083        9.306        0.010      334.636        4.740      866.376
12/23/2014  21:23:00      -92.150      -16.299       -9.632       13.372       13.873        9.047      178.797      192.462       81.841        0.465        0.023       93.581        5.504        0.003      334.710        4.862      866.363
12/23/2014  21:24:00      -85.049      -20.410      -13.634       12.612       16.094       10.217      159.050      259.032      104.380        0.418        0.026       87.464        7.634        0.008      334.719        4.879      866.344
12/23/2014  21:25:00      -80.535      -30.554      -14.961        8.081        9.006        8.474       65.300       81.115       71.814        0.393        0.011       86.136        4.409        0.003      334.702        4.850      866.336
12/23/2014  21:26:00      -78.854      -23.601      -10.406        9.376       11.001        6.270       87.900      121.031       39.318        0.357        0.012       82.310        4.482        0.003      334.747        4.924      866.324
12/23/2014  21:27:00      -69.560      -27.837       -9.429        8.811        7.589        6.979       77.640       57.593       48.704        0.294        0.009       74.923        4.832        0.004      334.739        4.911      866.306
12/23/2014  21:28:00      -79.536      -31.665      -14.002       10.875        8.794        8.904      118.269       77.334       79.287        0.390        0.014       85.608        4.013        0.002      334.720        4.880      866.294
12/23/2014  21:29:00      -75.148      -38.594      -11.441        9.748        8.969        7.822       95.017       80.438       61.180        0.375        0.012       84.479        2.850        0.001      334.686        4.823      866.288
12/23/2014  21:30:00      -81.800      -42.324      -10.399       11.382        9.937        5.819      129.547       98.745       33.861        0.443        0.013       92.101        2.611        0.001      334.741        4.915      866.263
12/23/2014  21:31:00      -92.343      -31.236      -16.237       12.139       14.533        7.691      147.356      211.221       59.156        0.509        0.021       97.483        4.854        0.002      334.786        4.989      866.238
12/23/2014  21:32:00      -93.429      -30.433       -6.208       14.368       17.107       11.408      206.436      292.653      130.134        0.516        0.031       98.260        5.110        0.003      334.713        4.868      866.226
12/23/2014  21:33:00      -88.833      -33.641      -11.333        8.798       10.465        8.159       77.399      109.518       66.569        0.470        0.013       94.989        5.003        0.003      334.687        4.824      866.212
12/23/2014  21:34:00      -99.934      -54.977       -6.405       14.770       16.631        9.990      218.147      276.580       99.804        0.682        0.030      114.058        6.514        0.003      334.683        4.815      866.211
12/23/2014  21:35:00     -105.693      -34.246      -11.626       13.090       14.500        8.436      171.345      210.248       71.174        0.647        0.023      111.103        3.633        0.001      334.627        4.724      866.221
12/23/2014  21:36:00     -117.515      -26.386      -12.462       10.415       12.349       10.717      108.468      152.506      114.852        0.752        0.019      120.440        6.112        0.003      334.604        4.685      866.224
12/23/2014  21:37:00     -128.956      -33.153       -8.991       25.019       17.191       12.546      625.966      295.538      157.408        0.944        0.054      133.150       12.519        0.009      334.581        4.646      866.223
12/23/2014  21:38:00     -115.280      -43.319       -0.522       27.905       17.367       11.512      778.717      301.601      132.528        0.819        0.061      123.150       11.341        0.008      334.550        4.596      866.216
12/23/2014  21:39:00     -101.060      -47.488       -4.819       22.563       15.045       12.621      509.071      226.354      159.286        0.669        0.045      111.661        8.505        0.006      334.565        4.621      866.186
12/23/2014  21:40:00      -80.837      -38.580      -11.623        6.645        8.049        9.832       44.159       64.779       96.674        0.418        0.010       89.571        3.920        0.002      334.598        4.676      866.160
12/23/2014  21:41:00      -95.310      -40.223       -9.858       17.646       15.415       13.359      311.372      237.635      178.450        0.576        0.036      103.449       10.682        0.011      334.660        4.778      866.134
12/23/2014  21:42:00      -63.115      -42.321        3.022       24.644       22.955       17.176      607.344      526.917      295.016        0.361        0.071       75.991        8.160        0.012      334.590        4.663      866.111
12/23/2014  21:43:00      -89.274      -45.279       -3.209       23.686       16.747       17.314      561.033      280.456      299.773        0.559        0.057      100.100       16.665        0.028      334.501        4.514      866.093
12/23/2014  21:44:00      -78.030      -48.531       -3.274       26.064       13.753       13.842      679.307      189.137      191.590        0.476        0.053       91.891       13.466        0.021      334.482        4.484      866.089
12/23/2014  21:45:00      -69.239      -35.058        2.615       28.830       19.081       14.727      831.171      364.080      216.891        0.372        0.071       77.609       15.410        0.039      334.530        4.561      866.090
12/23/2014  21:46:00      -94.114      -46.293       -2.575       21.167       13.223       15.045      448.035      174.846      226.353        0.593        0.042      104.883       14.566        0.019      334.541        4.582      866.082
12/23/2014  21:47:00      -97.975      -47.392       -9.813       11.679       10.161        9.499      136.392      103.247       90.227        0.614        0.016      108.835        4.141        0.001      334.570        4.630      866.074
12/23/2014  21:48:00     -109.850      -40.808      -10.708        7.602       10.446        7.778       57.790      109.120       60.492        0.704        0.011      117.185        4.856        0.002      334.570        4.627      866.068
12/23/2014  21:49:00      -91.130      -38.461       -6.873       14.248       12.986        8.908      202.997      168.631       79.347        0.514        0.023       98.913        7.980        0.007      334.566        4.623      866.069
12/23/2014  21:50:00      -79.138      -21.609       -9.637        7.548        8.733        8.056       56.968       76.262       64.904        0.351        0.010       82.035        4.485        0.003      334.594        4.669      866.045
12/23/2014  21:51:00      -99.478      -24.262      -15.398       11.964        9.369        8.909      143.129       87.784       79.375        0.552        0.016      102.394        5.592        0.003      334.615        4.705      866.020
12/23/2014  21:52:00      -94.508      -22.367      -10.095       16.565       17.470       13.660      274.385      305.195      186.603        0.515        0.038       97.119        8.839        0.008      334.627        4.725      866.003
12/23/2014  21:53:00     -110.205      -24.299      -10.365       28.747       16.759       13.081      826.402      280.853      171.124        0.706        0.064      112.852       12.491        0.012      334.523        4.552      865.999
12/23/2014  21:54:00     -110.600      -32.277      -16.136       14.236       11.318       12.660      202.659      128.093      160.267        0.701        0.025      115.214        7.874        0.005      334.425        4.389      866.012
12/23/2014  21:55:00     -119.667      -41.054      -17.904       13.134       16.788       10.312      172.511      281.828      106.339        0.844        0.028      126.514        6.333        0.003      334.408        4.359      866.019
12/23/2014  21:56:00     -125.465      -33.628      -20.619       20.603       15.644       10.353      424.471      244.750      107.179        0.904        0.039      129.893        7.473        0.003      334.353        4.270      866.017
12/23/2014  21:57:00     -115.225      -38.629      -16.018       18.154       14.304       12.107      329.552      204.609      146.589        0.785        0.034      121.528       11.677        0.009      334.362        4.287      866.005
12/23/2014  21:58:00      -96.190      -29.761      -12.599       19.148       13.806       14.261      366.661      190.597      203.367        0.553        0.038      100.689       11.218        0.012      334.392        4.333      865.990
12/23/2014  21:59:00     -130.357      -43.379      -10.901       17.438       13.360        9.752      304.096      178.491       95.101        0.979        0.029      137.385        5.688        0.002      334.362        4.284      865.997
12/23/2014  22:00:00     -117.502      -45.957      -16.456       16.119       18.925       12.752      259.827      358.172      162.603        0.848        0.039      126.170        6.525        0.003      334.290        4.165      866.006
12/23/2014  22:01:00     -114.807      -33.355      -16.963       12.640        9.667        7.772      159.769       93.454       60.409        0.745        0.016      119.554        5.644        0.002      334.341        4.252      866.004
12/23/2014  22:02:00     -102.646      -23.549      -15.265        9.309        8.812        7.190       86.661       77.655       51.694        0.577        0.011      105.313        4.585        0.002      334.368        4.297      865.982
12/23/2014  22:03:00     -104.811      -38.860      -17.015        9.278       10.457        8.762       86.090      109.343       76.780        0.653        0.014      111.783        6.614        0.004      334.388        4.327      865.970
12/23/2014  22:04:00     -125.203      -51.133      -12.409       14.999       13.914       10.676      224.960      193.592      113.987        0.949        0.027      135.242        7.132        0.003      334.399        4.347      865.951
12/23/2014  22:05:00     -111.309      -40.799       -7.999       13.926       18.244       11.306      193.934      332.838      127.822        0.739        0.033      118.550        8.720        0.005      334.359        4.282      865.959
12/23/2014  22:06:00     -103.226      -32.887      -13.713       10.666       11.662        9.092      113.755      136.010       82.672        0.613        0.017      108.339        5.763        0.003      334.369        4.297      865.971
12/23/2014  22:07:00     -106.590      -38.554      -11.050       10.539       10.797        9.015      111.067      116.571       81.276        0.664        0.015      113.348        5.236        0.002      334.352        4.268      865.981
12/23/2014  22:08:00     -101.784      -50.231      -12.927       13.728       17.897       12.297      188.466      320.300      151.211        0.685        0.033      113.504        9.999        0.008      334.285        4.157      865.990
12/23/2014  22:09:00      -98.313      -52.724      -12.859       21.680       19.970       12.867      470.034      398.810      165.550        0.682        0.052      111.559        8.320        0.006      334.246        4.092      866.004
12/23/2014  22:10:00      -48.922      -47.676      -13.017       26.110       24.016       16.569      681.719      576.772      274.523        0.318        0.077       68.311       12.023        0.031      334.256        4.109      866.004
12/23/2014  22:11:00     -101.347      -15.648      -13.270       32.417       20.459       16.682     1050.891      418.561      278.306        0.622        0.087      102.548       17.769        0.030      334.133        3.905      865.997
12/23/2014  22:12:00      -58.712      -39.151      -10.304       24.848       16.709       12.492      617.440      279.203      156.040        0.307        0.053       70.569        8.188        0.013      334.187        3.994      865.974
12/23/2014  22:13:00      -74.959      -26.567      -11.730       20.904       17.561       14.102      436.970      308.389      198.878        0.370        0.047       79.528       12.076        0.023      334.246        4.091      865.996
12/23/2014  22:14:00      -83.654      -17.486      -10.245       25.962       21.566       16.976      674.007      465.079      288.187        0.442        0.071       85.462       17.034        0.040      334.235        4.074      865.997
12/23/2014  22:15:00      -78.484      -16.585       -8.324       22.873       20.025       16.751      523.176      400.991      280.584        0.385        0.060       80.217       14.116        0.031      334.257        4.111      865.991
12/23/2014  22:16:00      -72.147      -32.733      -10.554       14.678       15.449       10.794      215.440      238.658      116.502        0.348        0.029       79.225        6.365        0.006      334.258        4.113      865.978
12/23/2014  22:17:00      -65.479      -28.646      -11.543       28.698       26.880       14.303      823.576      722.544      204.578        0.350        0.088       71.471        9.595        0.018      334.297        4.178      865.963
12/23/2014  22:18:00      -61.753      -23.603      -22.070       18.236       18.584       13.434      332.548      345.358      180.475        0.286        0.043       66.110       11.514        0.030      334.314        4.205      865.955
12/23/2014  22:19:00      -70.031       -6.318      -15.872       16.992       11.448       12.038      288.732      131.052      144.903        0.288        0.028       70.315        6.651        0.009      334.400        4.346      865.939
12/23/2014  22:20:00      -97.360      -12.069      -15.278       21.503       10.903       11.045      462.383      118.868      122.002        0.528        0.035       98.105        5.755        0.003      334.332        4.236      865.937
12/23/2014  22:21:00     -111.029       -8.184      -17.357       18.727       14.314       11.490      350.710      204.903      132.026        0.669        0.034      111.330        7.239        0.004      334.303        4.188      865.947
12/23/2014  22:22:00     -115.565       -9.894      -18.502       21.578       15.649       10.985      465.611      244.904      120.674        0.731        0.042      115.988        6.361        0.003      334.279        4.147      865.959
12/23/2014  22:23:00      -64.566      -30.846       -9.935       13.502       15.207       12.759      182.293      231.267      162.801        0.290        0.029       71.557        9.178        0.016      334.248        4.094      865.977
12/23/2014  22:24:00      -82.840      -29.863       -3.319       19.852       13.607       10.779      394.092      185.140      116.193        0.423        0.035       88.058        8.988        0.010      334.232        4.069      866.005
12/23/2014  22:25:00      -84.137      -36.000      -11.093       20.609       17.334       16.352      424.714      300.479      267.375        0.475        0.050       91.516        9.066        0.010      334.224        4.056      866.038
12/23/2014  22:26:00      -55.406      -50.023       -4.047       21.902       23.696       18.067      479.694      561.490      326.422        0.348        0.068       74.647       15.244        0.042      334.270        4.132      866.059
12/23/2014  22:27:00      -65.096      -37.874      -17.511       19.809       14.309       11.081      392.412      204.735      122.783        0.335        0.036       75.312       10.460        0.019      334.287        4.160      866.073
12/23/2014  22:28:00      -93.228      -28.301      -14.980       17.966       11.784        9.773      322.764      138.874       95.505        0.514        0.028       97.429        9.454        0.009      334.300        4.183      866.087
12/23/2014  22:29:00      -88.266      -31.918       -4.705       19.182       17.454       14.198      367.961      304.650      201.577        0.485        0.044       93.860       10.575        0.013      334.302        4.186      866.098
12/23/2014  22:30:00     -124.050      -19.367      -13.404       11.622        9.205        8.431      135.066       84.735       71.077        0.812        0.015      125.553        4.078        0.001      334.279        4.148      866.096
12/23/2014  22:31:00     -108.371      -28.227      -11.918       12.596       12.755       10.143      158.670      162.689      102.887        0.655        0.021      111.987        4.816        0.002      334.257        4.110      866.089
12/23/2014  22:32:00      -98.717      -28.884      -12.527       13.316       16.068        9.087      177.324      258.179       82.567        0.563        0.026      102.856        7.172        0.005      334.184        3.989      866.099
12/23/2014  22:33:00     -113.190      -38.524       -8.140       21.125       20.278       13.716      446.280      411.188      188.129        0.770        0.052      119.567        3.140        0.001      334.231        4.066      866.119
12/23/2014  22:34:00     -115.607      -29.843       -9.329       19.708       15.270       11.774      388.387      233.159      138.622        0.755        0.038      119.397        9.442        0.006      334.219        4.047      866.131
12/23/2014  22:35:00      -79.627      -28.424      -10.119       10.879        8.575        7.844      118.351       73.535       61.526        0.375        0.013       84.548        4.252        0.003      334.261        4.116      866.127
12/23/2014  22:36:00      -73.732      -33.783      -13.538       11.518       10.818        7.924      132.659      117.037       62.788        0.354        0.016       81.103        6.848        0.007      334.356        4.275      866.120
12/23/2014  22:37:00      -86.241      -27.604      -12.559       10.030       10.217        6.449      100.610      104.395       41.595        0.430        0.012       90.551        3.383        0.001      334.362        4.284      866.100
12/23/2014  22:38:00      -70.254      -35.510      -13.679       17.028       12.524        8.306      289.947      156.845       68.997        0.345        0.026       78.718        5.560        0.005      334.270        4.134      866.084
12/23/2014  22:39:00      -85.233      -26.439      -15.417       10.363        9.266        8.344      107.402       85.851       69.626        0.423        0.013       89.240        5.122        0.003      334.292        4.170      866.069
12/23/2014  22:40:00      -74.124      -27.280      -13.868       12.363        9.669        8.193      152.856       93.491       67.123        0.337        0.016       78.985        6.541        0.007      334.301        4.187      866.058
12/23/2014  22:41:00      -48.762      -33.307      -10.224        7.569        5.590        6.235       57.287       31.252       38.881        0.186        0.006       59.052        0.996        0.000      334.296        4.176      866.059
12/23/2014  22:42:00      -67.487      -23.903      -10.631       12.435        9.466        8.014      154.620       89.613       64.223        0.277        0.015       71.595        4.144        0.003      334.346        4.257      866.073
12/23/2014  22:43:00      -77.567      -13.017       -9.938       11.737        9.314        8.846      137.762       86.750       78.257        0.329        0.015       78.651        4.946        0.004      334.305        4.190      866.088
12/23/2014  22:44:00      -75.807      -13.988      -13.086       15.369        7.502        8.960      236.209       56.284       80.275        0.324        0.019       77.087        7.262        0.009      334.295        4.175      866.087
12/23/2014  22:45:00      -51.954      -16.502       -5.916       11.269        7.710        9.188      126.986       59.450       84.425        0.164        0.014       54.512        7.702        0.020      334.280        4.149      866.083
12/23/2014  22:46:00      -50.204      -20.428       -8.481        8.626        7.195        5.014       74.401       51.767       25.141        0.158        0.008       54.201        1.559        0.001      334.457        4.443      866.094
12/23/2014  22:47:00      -61.843      -16.432      -17.248        9.505        9.108        5.764       90.340       82.951       33.224        0.230        0.010       63.989        5.013        0.006      334.253        4.105      866.102
12/23/2014  22:48:00      -58.175      -20.566      -11.217       10.654       12.210        7.876      113.508      149.079       62.024        0.213        0.016       61.703        8.174        0.018      334.250        4.099      866.100
12/23/2014  22:49:00      -60.114      -28.056      -10.833        6.571        7.888        6.921       43.173       62.225       47.905        0.234        0.008       66.338        4.742        0.005      334.259        4.115      866.094
12/23/2014  22:50:00      -57.103      -36.551      -13.651        6.673        7.601        6.443       44.523       57.770       41.513        0.246        0.007       67.799        2.491        0.001      334.201        4.020      866.089
12/23/2014  22:51:00      -74.107      -38.912      -14.723       19.439       10.687        7.833      377.859      114.216       61.356        0.389        0.028       83.702        4.353        0.003      334.183        3.988      866.089
12/23/2014  22:52:00      -90.663      -40.736      -10.062        9.484        8.465        7.550       89.954       71.651       56.997        0.510        0.011       99.394        3.936        0.002      334.176        3.976      866.084
12/23/2014  22:53:00      -84.497      -33.875      -10.621       16.813        7.793        5.677      282.690       60.735       32.224        0.439        0.019       91.034        4.294        0.002      334.268        4.131      866.066
12/23/2014  22:54:00      -60.023      -31.777      -11.540        7.687        5.703        5.528       59.086       32.520       30.562        0.243        0.006       67.916        2.461        0.001      334.288        4.163      866.064
12/23/2014  22:55:00      -79.534      -31.792       -7.019       10.716        8.685        6.900      114.837       75.428       47.610        0.381        0.012       85.652        2.946        0.001      334.367        4.293      866.065
12/23/2014  22:56:00      -94.222      -27.775      -12.103        9.098       11.913        8.489       82.779      141.916       72.060        0.505        0.015       98.231        4.914        0.003      334.249        4.097      866.062
12/23/2014  22:57:00      -77.816      -19.460      -12.579       12.118        9.584        8.677      146.838       91.859       75.287        0.345        0.016       80.213        4.422        0.003      334.172        3.969      866.041
12/23/2014  22:58:00      -61.760      -33.459      -11.029        9.041        7.926        5.196       81.740       62.827       27.002        0.261        0.009       70.241        4.997        0.005      334.190        3.999      866.018
12/23/2014  22:59:00      -60.934      -33.102      -12.546        6.135        6.628        6.086       37.638       43.927       37.039        0.254        0.006       69.344        1.493        0.000      334.186        3.993      865.999
12/23/2014  23:00:00      -49.152      -35.580      -11.908        8.444        8.800        6.359       71.305       77.449       40.439        0.201        0.009       60.678        4.493        0.005      334.164        3.957      865.959
12/23/2014  23:01:00      -15.371      -23.578        5.936       16.185       15.271        9.442      261.961      233.208       89.159        0.071        0.029       28.146        9.050        0.103      334.255        4.106      865.905
12/23/2014  23:02:00      -15.030      -15.557       -6.783       12.519        6.124        8.664      156.727       37.500       75.070        0.039        0.013       21.631        8.282        0.147      334.355        4.273      865.862
12/23/2014  23:03:00      -46.198      -15.708       -9.278        8.841        6.818        6.906       78.172       46.481       47.687        0.132        0.009       48.796        5.327        0.012      334.403        4.354      865.844
12/23/2014  23:04:00      -54.409      -21.947       -8.077        6.191        8.293        4.781       38.329       68.781       22.858        0.182        0.006       58.668        2.530        0.002      334.221        4.049      865.825
12/23/2014  23:05:00      -48.912      -31.456       -8.541        6.726        4.654        4.971       45.236       21.656       24.714        0.177        0.005       58.154        3.261        0.003      334.228        4.060      865.813
12/23/2014  23:06:00      -55.295      -33.524       -7.893        6.483        6.302        5.145       42.034       39.712       26.475        0.218        0.005       64.664        2.380        0.001      334.215        4.041      865.796
12/23/2014  23:07:00      -47.353      -22.448       -8.644        4.711        5.272        3.717       22.195       27.789       13.818        0.144        0.003       52.404        2.867        0.003      334.289        4.164      865.770
12/23/2014  23:08:00      -35.640      -11.969       -8.398        4.716        4.937        4.918       22.243       24.369       24.190        0.078        0.004       37.596        2.313        0.004      334.336        4.242      865.741
12/23/2014  23:09:00      -49.966      -20.909      -10.918        9.708        6.917        4.698       94.237       47.840       22.072        0.161        0.008       54.164        3.600        0.004      334.317        4.209      865.715
12/23/2014  23:10:00      -55.256      -27.657       -8.851        6.098        4.354        4.630       37.189       18.955       21.435        0.199        0.004       61.791        1.647        0.001      334.193        4.004      865.691
12/23/2014  23:11:00      -63.331      -31.675       -8.611        7.265        6.886        6.773       52.778       47.411       45.867        0.262        0.007       70.810        3.692        0.003      334.138        3.913      865.654
12/23/2014  23:12:00      -70.748      -18.918       -7.472        7.218        7.557        6.046       52.100       57.103       36.558        0.278        0.007       73.234        4.069        0.003      334.133        3.904      865.625
12/23/2014  23:13:00      -84.908      -24.906      -11.461       12.617        7.559        6.572      159.180       57.135       43.187        0.411        0.013       88.486        2.312        0.001      334.214        4.039      865.612
12/23/2014  23:14:00      -86.214      -27.614       -9.014        9.219        7.570        6.292       84.992       57.304       39.589        0.423        0.009       90.529        4.163        0.002      334.202        4.019      865.605
12/23/2014  23:15:00      -74.797      -31.645       -6.007       10.237        7.509        5.998      104.794       56.386       35.981        0.341        0.010       81.215        2.288        0.001      334.214        4.038      865.583
12/23/2014  23:16:00      -47.878      -21.658       -7.644       10.232        7.364        7.207      104.703       54.233       51.935        0.152        0.011       52.549        2.881        0.003      334.287        4.161      865.547
12/23/2014  23:17:00      -43.249      -12.526      -10.747        9.139        8.192        5.606       83.513       67.106       31.426        0.116        0.009       45.027        3.868        0.007      334.268        4.128      865.518
12/23/2014  23:18:00      -44.049      -21.103       -9.914        6.719        4.615        5.041       45.148       21.298       25.415        0.129        0.005       48.844        2.628        0.003      334.175        3.974      865.490
12/23/2014  23:19:00      -54.542      -25.329       -9.309        7.332        7.469        7.063       53.758       55.783       49.886        0.193        0.008       60.136        2.575        0.002      334.130        3.900      865.465
12/23/2014  23:20:00      -66.120      -28.143      -14.923       11.915        6.051        5.715      141.959       36.613       32.661        0.280        0.011       71.860        4.735        0.004      334.097        3.845      865.445
12/23/2014  23:21:00      -96.013      -29.404      -13.402       15.535       10.158        6.591      241.344      103.193       43.447        0.533        0.019      100.415        4.183        0.002      334.078        3.814      865.430
12/23/2014  23:22:00     -113.438      -36.783      -17.100        8.393        9.242        6.205       70.446       85.418       38.497        0.735        0.010      119.253        3.708        0.001      334.039        3.748      865.432
12/23/2014  23:23:00     -104.010      -21.509      -18.462        8.364       10.546        6.864       69.964      111.226       47.111        0.592        0.011      106.211        4.995        0.002      334.024        3.724      865.423
12/23/2014  23:24:00      -80.128      -44.386      -13.551       13.816       16.939        8.859      190.872      286.940       78.487        0.457        0.028       91.600        6.017        0.004      333.986        3.662      865.410
12/23/2014  23:25:00      -33.893      -57.735       -5.634       21.712       23.299       17.998      471.396      542.834      323.915        0.293        0.067       66.948       14.625        0.048      334.003        3.690      865.388
12/23/2014  23:26:00      -28.119      -29.395       -5.646       19.842       18.753       14.393      393.697      351.691      207.172        0.132        0.048       40.679       11.690        0.083      334.037        3.745      865.382
12/23/2014  23:27:00      -73.672      -42.755       -7.801       22.358       14.062       10.876      499.895      197.732      118.283        0.407        0.041       85.180       10.319        0.015      334.015        3.711      865.376
12/23/2014  23:28:00      -80.494      -36.487       -3.503       16.462       17.687        8.806      271.013      312.821       77.538        0.424        0.033       88.378        7.608        0.007      333.969        3.633      865.371
12/23/2014  23:29:00      -75.207      -30.232       -5.052       15.012       14.481        7.736      225.351      209.701       59.849        0.355        0.025       81.056        6.375        0.006      334.010        3.701      865.358
12/23/2014  23:30:00      -79.748      -36.046       -8.544       12.160        6.820        6.219      147.871       46.510       38.680        0.398        0.012       87.516        5.455        0.004      334.005        3.694      865.350
12/23/2014  23:31:00      -88.185      -42.366       -3.631       21.967       14.644       11.369      482.553      214.453      129.253        0.521        0.041       97.834       10.819        0.012      333.976        3.646      865.356
12/23/2014  23:32:00      -91.522      -46.784      -14.502       19.900       14.850        9.300      396.013      220.512       86.499        0.574        0.035      102.786        4.411        0.002      334.044        3.755      865.359
12/23/2014  23:33:00      -83.946      -42.647        4.918       28.795       17.903       15.384      829.147      320.503      236.670        0.514        0.069       94.158       16.291        0.030      334.029        3.732      865.350
12/23/2014  23:34:00      -65.403      -31.490        0.887       30.522       19.833       13.500      931.575      393.339      182.249        0.339        0.075       72.589       15.990        0.049      334.062        3.786      865.327
12/23/2014  23:35:00      -71.291      -36.439       -8.194       10.556       10.656        9.131      111.424      113.554       83.375        0.339        0.015       80.064        4.923        0.004      334.127        3.894      865.291
12/23/2014  23:36:00      -77.555      -38.437      -13.843        9.290        8.385        7.567       86.309       70.311       57.253        0.395        0.011       86.558        4.529        0.003      334.063        3.789      865.261
12/23/2014  23:37:00      -73.408      -47.067      -11.078        9.028       11.587        7.065       81.511      134.253       49.909        0.400        0.013       87.201        5.139        0.003      334.072        3.803      865.237
12/23/2014  23:38:00      -75.837      -49.001      -10.240       10.094        8.130        6.986      101.880       66.097       48.805        0.424        0.011       90.290        3.180        0.001      334.135        3.909      865.206
12/23/2014  23:39:00      -86.216      -38.859       -8.994       16.976       12.561        8.153      288.188      157.778       66.479        0.477        0.026       94.568        4.165        0.002      334.073        3.806      865.168
12/23/2014  23:40:00      -99.459      -53.936       -6.631       24.527       16.721       11.160      601.581      279.592      124.553        0.693        0.050      113.142        7.828        0.005      334.042        3.753      865.132
12/23/2014  23:41:00     -111.720      -69.316       -3.163       23.569       15.630       17.786      555.493      244.288      316.325        0.921        0.056      131.476       14.141        0.012      333.936        3.578      865.111
12/23/2014  23:42:00      -96.055      -70.736       -2.482       28.125       18.810       19.146      790.999      353.832      366.587        0.787        0.076      119.290       15.572        0.017      333.900        3.519      865.109
12/23/2014  23:43:00      -69.010      -48.870       -1.807       23.637       18.208       17.503      558.695      331.541      306.344        0.417        0.060       84.561       16.212        0.037      333.892        3.505      865.095
12/23/2014  23:44:00      -47.028      -32.468       -0.420       13.003        7.456        6.421      169.084       55.592       41.230        0.177        0.013       57.147        3.495        0.004      333.963        3.625      865.045
12/23/2014  23:45:00      -56.988      -36.483       -7.478       17.630        8.969        8.949      310.808       80.449       80.092        0.255        0.024       67.665        1.756        0.001      334.050        3.766      865.025
12/23/2014  23:46:00      -52.664      -31.971        5.851       32.433       20.808       15.665     1051.922      432.977      245.401        0.278        0.087       61.609       18.463        0.090      333.918        3.549      865.030
12/23/2014  23:47:00      -86.412      -59.301       -5.723       26.265       22.328       13.844      689.863      498.537      191.662        0.620        0.069      104.803       12.238        0.014      333.873        3.474      865.023
12/23/2014  23:48:00     -129.785      -56.399       -9.192       15.802       12.040        8.390      249.700      144.963       70.399        1.029        0.023      141.510        7.506        0.003      333.793        3.342      865.001
12/23/2014  23:49:00     -106.257      -62.326       -7.991       19.706       20.615       15.401      388.309      424.984      237.195        0.814        0.053      123.187        6.172        0.003      333.800        3.352      864.974
12/23/2014  23:50:00      -86.139      -53.581       -1.039       39.474       28.436       21.564     1558.158      808.587      465.004        0.656        0.142      101.444       22.402        0.049      333.787        3.331      864.956
12/23/2014  23:51:00      -58.193      -38.063        4.650       31.671       22.535       17.712     1003.066      507.807      313.716        0.334        0.091       69.535       18.068        0.068      333.770        3.303      864.916
12/23/2014  23:52:00      -76.132      -40.768        2.366       24.616       21.300       17.944      605.958      453.696      321.990        0.442        0.069       86.360       16.326        0.036      333.790        3.336      864.875
12/23/2014  23:53:00      -87.115      -52.185        0.486       28.045       19.095       17.846      786.519      364.635      318.480        0.589        0.073      101.550       16.624        0.027      333.808        3.366      864.860
12/23/2014  23:54:00      -63.775      -39.708        4.574       31.950       25.401       20.127     1020.801      645.220      405.113        0.387        0.104       75.126       15.037        0.040      333.785        3.327      864.861
12/23/2014  23:55:00      -86.742      -44.368       -4.899       30.605       14.744       14.091      936.647      217.373      198.549        0.543        0.068       97.430       16.227        0.028      333.821        3.389      864.849
12/23/2014  23:56:00      -82.196      -26.883       -9.015       10.295       12.117        9.938      105.996      146.832       98.758        0.396        0.018       86.481        6.607        0.006      333.831        3.404      864.821
12/23/2014  23:57:00     -102.661      -28.944      -19.066       13.161       18.369       13.178      173.212      337.416      173.651        0.621        0.034      106.663        9.695        0.008      333.841        3.421      864.795
12/23/2014  23:58:00     -117.721      -28.752       -6.365       25.194       17.313       15.423      634.760      299.739      237.869        0.795        0.059      121.181       15.405        0.016      333.812        3.370      864.788
12/23/2014  23:59:00     -113.749      -42.416       -5.419       20.895       20.516       15.478      436.613      420.907      239.577        0.793        0.055      121.400       13.501        0.012      333.712        3.206      864.793
